[[{"header":{"parameterUnit":"m.s-1","parameterCategory":1,"la1":31.0,"la2":29.5877,"lo1":-88.7671,"lo2":-86.6584,"dy":0.0162,"dx":0.0185,"nx":115,"ny":88,"refTime":"2023-10-23T12:00:00:Z","depth":0,"parameterNumber":2,"parameterNumberName":"U-component_of_WINDS"},"data":[0.0,0.0,0.0,0.0,0.0,0.0,0.0,0.0,0.0,0.0,0.0,0.0,0.0,0.0,0.0,0.0,0.0,0.0,0.0,0.0,0.0,0.0,0.0,0.0,0.0,0.0,0.0,0.0,0.0,0.0,0.0,0.0,0.0,0.0,0.0,0.0,0.0,0.0,0.0,0.0,0.0,0.0,0.0,0.0,0.0,0.0,0.0,0.0,0.0,0.0,0.0,0.0,0.0,0.0,0.0,0.0,0.0,0.0,0.0,0.0,0.0,0.0,0.0,0.0,0.0,0.0,0.0,0.0,0.0,0.0,0.0,0.0,0.0,0.0,0.0,0.0,0.0,0.0,0.0,0.0,0.0,0.0,0.0,0.0,0.0,0.0,0.0,0.0,0.0,0.0,0.0,0.0,0.0,0.0,0.0,0.0,0.0,0.0,0.0,0.0,0.0,0.0,0.0,0.0,0.0,0.0,0.0,0.0,0.0,0.0,0.0,0.0,0.0,0.0,0.0,0.0,0.0,0.0,0.0,0.0,0.0,0.0,0.0,0.0,0.0,0.0,0.0,0.0,0.0,0.0,0.0,0.0,0.0,0.0,0.0,0.0,0.0,0.0,0.0,0.0,0.0,0.0,0.0,0.0,0.0,0.0,0.0,0.0,0.0,0.0,0.0,0.0,0.0,0.0,0.0,0.0,0.0,0.0,0.0,0.0,0.0,0.0,0.0,0.0,0.0,0.0,0.0,0.0,0.0,0.0,0.0,0.0,0.0,0.0,0.0,0.0,0.0,0.0,0.0,0.0,0.0,0.0,0.0,0.0,0.0,0.0,0.0,0.0,0.0,0.0,0.0,0.0,0.0,0.0,0.0,0.0,0.0,0.0,0.0,0.0,0.0,0.0,0.0,0.0,0.0,0.0,0.0,0.0,0.0,0.0,0.0,0.0,0.0,0.0,0.0,0.0,0.0,0.0,0.0,0.0,0.0,0.0,0.0,0.0,0.0,0.0,0.0,0.0,0.0,0.0,0.0,0.0,0.0,0.0,0.0,0.0,0.0,0.0,0.0,0.0,0.0,0.0,0.0,0.0,0.0,0.0,0.0,0.0,0.0,0.0,0.0,0.0,0.0,0.0,0.0,0.0,0.0,0.0,0.0,0.0,0.0,0.0,0.0,0.0,0.0,0.0,0.0,0.0,0.0,0.0,0.0,0.0,0.0,0.0,0.0,0.0,0.0,0.0,0.0,0.0,0.0,0.0,0.0,0.0,0.0,0.0,0.0,0.0,0.0,0.0,0.0,0.0,0.0,0.0,0.0,0.0,0.0,0.0,0.0,0.0,0.0,0.0,0.0,0.0,0.0,0.0,0.0,0.0,0.0,0.0,0.0,0.0,0.0,0.0,0.0,0.0,0.0,0.0,0.0,0.0,0.0,0.0,0.0,0.0,0.0,0.0,0.0,0.0,0.0,0.0,0.0,0.0,0.0,0.0,0.0,0.0,0.0,0.0,0.0,0.0,0.0,0.0,0.0,0.0,0.0,0.0,0.0,0.0,0.0,0.0,0.0,0.0,0.0,0.0,0.0,0.0,0.0,0.0,0.0,0.0,0.0,0.0,0.0,0.0,0.0,0.0,0.0,0.0,0.0,0.0,0.0,0.0,0.0,0.0,0.0,0.0,0.0,0.0,0.0,0.0,0.0,0.0,0.0,0.0,0.0,0.0,0.0,0.0,0.0,0.0,0.0,0.0,0.0,0.0,0.0,0.0,0.0,0.0,0.0,0.0,0.0,0.0,0.0,0.0,0.0,0.0,0.0,0.0,0.0,0.0,0.0,0.0,0.0,0.0,0.0,0.0,0.0,0.0,0.0,0.0,0.0,0.0,0.0,0.0,0.0,0.0,0.0,0.0,0.0,0.0,0.0,0.0,0.0,0.0,0.0,0.0,0.0,0.0,0.0,0.0,0.0,0.0,0.0,0.0,0.0,0.0,0.0,0.0,0.0,0.0,0.0,0.0,0.0,0.0,0.0,0.0,0.0,0.0,0.0,0.0,0.0,0.0,0.0,0.0,0.0,0.0,0.0,0.0,0.0,0.0,0.0,0.0,0.0,0.0,0.0,0.0,0.0,0.0,0.0,0.0,0.0,0.0,0.0,0.0,0.0,0.0,0.0,0.0,0.0,0.0,0.0,0.0,0.0,0.0,0.0,0.0,0.0,0.0,0.0,0.0,0.0,0.0,0.0,0.0,0.0,0.0,0.0,0.0,0.0,0.0,0.0,0.0,0.0,0.0,0.0,0.0,0.0,0.0,0.0,0.0,0.0,0.0,0.0,0.0,0.0,0.0,0.0,0.0,0.0,0.0,0.0,0.0,0.0,0.0,0.0,0.0,0.0,0.0,0.0,0.0,0.0,0.0,0.0,0.0,0.0,0.0,0.0,0.0,0.0,0.0,0.0,0.0,0.0,0.0,0.0,0.0,0.0,0.0,0.0,0.0,0.0,0.0,0.0,0.0,0.0,0.0,0.0,0.0,0.0,0.0,0.0,0.0,0.0,0.0,0.0,0.0,0.0,0.0,0.0,0.0,0.0,0.0,0.0,0.0,0.0,0.0,0.0,0.0,0.0,0.0,0.0,0.0,0.0,0.0,0.0,0.0,0.0,0.0,0.0,0.0,0.0,0.0,0.0,0.0,0.0,0.0,0.0,0.0,0.0,0.0,0.0,0.0,0.0,0.0,0.0,0.0,0.0,0.0,0.0,0.0,0.0,0.0,0.0,0.0,0.0,0.0,0.0,0.0,0.0,0.0,0.0,0.0,0.0,0.0,0.0,0.0,0.0,0.0,0.0,0.0,0.0,0.0,0.0,0.0,0.0,0.0,0.0,0.0,0.0,0.0,0.0,0.0,0.0,0.0,0.0,0.0,0.0,0.0,0.0,0.0,0.0,0.0,0.0,0.0,0.0,0.0,0.0,0.0,0.0,0.0,0.0,0.0,0.0,0.0,0.0,0.0,0.0,0.0,0.0,0.0,0.0,0.0,0.0,0.0,0.0,0.0,0.0,0.0,0.0,0.0,0.0,0.0,0.0,0.0,0.0,0.0,0.0,0.0,0.0,0.0,0.0,0.0,0.0,0.0,0.0,0.0,0.0,0.0,0.0,0.0,0.0,0.0,0.0,0.0,0.0,0.0,0.0,0.0,0.0,0.0,0.0,0.0,0.0,0.0,0.0,0.0,0.0,0.0,0.0,0.0,0.0,0.0,0.0,0.0,0.0,0.0,0.0,0.0,0.0,0.0,0.0,0.0,0.0,0.0,0.0,0.0,0.0,0.0,0.0,0.0,0.0,0.0,0.0,0.0,0.0,0.0,0.0,0.0,0.0,0.0,0.0,0.0,0.0,0.0,0.0,0.0,0.0,0.0,0.0,0.0,0.0,0.0,0.0,0.0,0.0,0.0,0.0,0.0,0.0,0.0,0.0,0.0,0.0,0.0,0.0,0.0,0.0,0.0,0.0,0.0,0.0,0.0,0.0,0.0,0.0,0.0,0.0,0.0,0.0,0.0,0.0,0.0,0.0,0.0,0.0,0.0,0.0,0.0,0.0,0.0,0.0,0.0,0.0,0.0,0.0,0.0,0.0,0.0,0.0,0.0,0.0,0.0,0.0,0.0,0.0,0.0,0.0,0.0,0.0,0.0,0.0,0.0,0.0,0.0,0.0,0.0,0.0,0.0,0.0,0.0,0.0,0.0,0.0,0.0,0.0,0.0,0.0,0.0,0.0,0.0,0.0,0.0,0.0,0.0,0.0,0.0,0.0,0.0,0.0,0.0,0.0,0.0,0.0,0.0,0.0,0.0,0.0,0.0,0.0,0.0,0.0,0.0,0.0,0.0,0.0,0.0,0.0,0.0,0.0,0.0,0.0,0.0,0.0,0.0,0.0,0.0,0.0,0.0,0.0,0.0,0.0,0.0,0.0,0.0,0.0,0.0,0.0,0.0,0.0,0.0,0.0,0.0,0.0,0.0,0.0,0.0,0.0,0.0,0.0,0.0,0.0,0.0,0.0,0.0,0.0,0.0,0.0,0.0,0.0,0.0,0.0,0.0,0.0,0.0,0.0,0.0,0.0,0.0,0.0,0.0,0.0,0.0,0.0,0.0,0.0,0.0,0.0,0.0,0.0,0.0,0.0,0.0,0.0,0.0,0.0,0.0,0.0,0.0,0.0,0.0,0.0,0.0,0.0,0.0,0.0,0.0,0.0,0.0,0.0,0.0,0.0,0.0,0.0,0.0,0.0,0.0,-1.0007,0.0,0.0,0.0,0.0,0.0,0.0,0.0,0.0,0.0,0.0,0.0,0.0,0.0,0.0,0.0,0.0,0.0,0.0,0.0,0.0,0.0,0.0,0.0,0.0,0.0,0.0,0.0,0.0,0.0,0.0,0.0,0.0,0.0,0.0,0.0,0.0,0.0,0.0,0.0,0.0,0.0,0.0,0.0,0.0,0.0,0.0,0.0,0.0,0.0,0.0,0.0,0.0,0.0,0.0,0.0,0.0,0.0,0.0,0.0,0.0,0.0,0.0,0.0,0.0,0.0,0.0,0.0,0.0,0.0,0.0,0.0,0.0,0.0,0.0,0.0,0.0,0.0,0.0,0.0,0.0,0.0,0.0,0.0,0.0,0.0,0.0,0.0,0.0,0.0,0.0,0.0,0.0,0.0,0.0,0.0,0.0,0.0,0.0,0.0,0.0,0.0,0.0,0.0,0.0,0.0,0.0,0.0,0.0,0.0,0.0,-0.974,-0.9799,-0.9921,-0.9973,-0.9895,0.0,0.0,0.0,0.0,0.0,0.0,0.0,0.0,0.0,0.0,0.0,0.0,0.0,0.0,0.0,0.0,0.0,0.0,0.0,0.0,0.0,0.0,0.0,0.0,0.0,0.0,0.0,0.0,0.0,0.0,0.0,0.0,0.0,0.0,0.0,0.0,0.0,0.0,0.0,0.0,0.0,0.0,0.0,0.0,0.0,0.0,0.0,0.0,0.0,0.0,0.0,0.0,0.0,0.0,0.0,0.0,0.0,0.0,0.0,0.0,0.0,0.0,0.0,0.0,0.0,0.0,0.0,0.0,0.0,0.0,0.0,0.0,0.0,0.0,0.0,0.0,0.0,0.0,0.0,0.0,0.0,0.0,0.0,0.0,0.0,0.0,0.0,0.0,0.0,0.0,0.0,0.0,0.0,0.0,0.0,0.0,0.0,0.0,0.0,0.0,0.0,0.0,0.0,0.0,0.0,0.0,0.0,0.0,0.0,0.0,0.0,0.0,-1.0136,-1.0162,-1.0023,0.0,0.0,0.0,0.0,0.0,0.0,0.0,0.0,0.0,0.0,0.0,0.0,0.0,0.0,0.0,0.0,0.0,0.0,0.0,0.0,0.0,0.0,0.0,0.0,0.0,0.0,0.0,0.0,0.0,0.0,0.0,0.0,0.0,0.0,0.0,0.0,0.0,0.0,0.0,0.0,0.0,0.0,0.0,0.0,0.0,0.0,0.0,0.0,0.0,0.0,0.0,0.0,0.0,0.0,0.0,0.0,0.0,0.0,0.0,0.0,0.0,0.0,0.0,0.0,0.0,0.0,0.0,0.0,0.0,0.0,0.0,0.0,0.0,0.0,0.0,0.0,0.0,0.0,0.0,0.0,0.0,0.0,0.0,0.0,0.0,0.0,0.0,0.0,0.0,0.0,0.0,0.0,0.0,0.0,0.0,0.0,0.0,0.0,0.0,0.0,0.0,0.0,0.0,0.0,0.0,0.0,0.0,0.0,0.0,0.0,-1.0543,-1.028,-1.0743,0.0,-1.0632,0.0,0.0,0.0,0.0,0.0,0.0,0.0,0.0,0.0,0.0,0.0,0.0,0.0,0.0,0.0,0.0,0.0,0.0,0.0,0.0,0.0,0.0,0.0,0.0,0.0,0.0,0.0,0.0,0.0,0.0,0.0,0.0,0.0,0.0,0.0,0.0,0.0,0.0,0.0,0.0,0.0,0.0,0.0,0.0,0.0,0.0,0.0,0.0,0.0,0.0,0.0,0.0,0.0,0.0,0.0,0.0,0.0,0.0,0.0,0.0,0.0,0.0,0.0,0.0,0.0,0.0,0.0,0.0,0.0,0.0,0.0,0.0,0.0,0.0,0.0,0.0,0.0,0.0,0.0,0.0,0.0,0.0,0.0,0.0,0.0,0.0,0.0,0.0,0.0,0.0,0.0,0.0,0.0,0.0,0.0,0.0,0.0,0.0,0.0,0.0,0.0,0.0,0.0,0.0,0.0,0.0,0.0,0.0,0.0,0.0,-1.1117,-1.1075,-1.0811,-1.0657,0.0,0.0,0.0,0.0,0.0,0.0,0.0,0.0,0.0,0.0,0.0,0.0,0.0,0.0,0.0,0.0,0.0,0.0,0.0,0.0,0.0,0.0,0.0,0.0,0.0,0.0,0.0,0.0,0.0,0.0,0.0,0.0,0.0,0.0,0.0,0.0,0.0,0.0,0.0,0.0,0.0,0.0,0.0,0.0,0.0,0.0,0.0,0.0,0.0,0.0,0.0,0.0,0.0,0.0,0.0,0.0,0.0,0.0,0.0,0.0,0.0,0.0,0.0,0.0,0.0,0.0,0.0,0.0,0.0,0.0,0.0,0.0,0.0,0.0,0.0,0.0,0.0,0.0,0.0,0.0,0.0,0.0,0.0,0.0,0.0,0.0,0.0,0.0,0.0,0.0,0.0,0.0,0.0,0.0,0.0,0.0,0.0,0.0,0.0,0.0,0.0,0.0,0.0,0.0,0.0,0.0,0.0,0.0,0.0,0.0,-1.2042,-1.1889,-1.1885,-1.1109,-1.0657,-1.0664,0.0,0.0,0.0,0.0,0.0,0.0,0.0,0.0,0.0,0.0,0.0,0.0,0.0,0.0,0.0,0.0,0.0,0.0,0.0,0.0,0.0,0.0,0.0,0.0,0.0,0.0,0.0,0.0,0.0,0.0,0.0,0.0,0.0,0.0,0.0,0.0,0.0,0.0,0.0,0.0,0.0,0.0,0.0,0.0,0.0,0.0,0.0,0.0,0.0,0.0,0.0,0.0,0.0,0.0,0.0,0.0,0.0,0.0,0.0,0.0,0.0,0.0,0.0,0.0,0.0,0.0,0.0,0.0,0.0,0.0,0.0,0.0,0.0,0.0,0.0,0.0,0.0,0.0,0.0,0.0,0.0,0.0,0.0,0.0,0.0,0.0,0.0,0.0,0.0,0.0,0.0,0.0,0.0,0.0,0.0,0.0,0.0,0.0,0.0,0.0,0.0,0.0,0.0,0.0,0.0,0.0,0.0,0.0,-1.3298,-1.3208,-1.3007,-1.2753,-1.1779,-1.1218,0.0,0.0,0.0,0.0,0.0,0.0,0.0,0.0,0.0,0.0,0.0,0.0,0.0,0.0,0.0,0.0,0.0,0.0,0.0,0.0,0.0,0.0,0.0,0.0,0.0,0.0,0.0,0.0,0.0,0.0,0.0,0.0,0.0,0.0,0.0,0.0,0.0,0.0,0.0,0.0,0.0,0.0,0.0,0.0,0.0,0.0,0.0,0.0,0.0,0.0,0.0,0.0,0.0,0.0,0.0,0.0,0.0,0.0,0.0,0.0,0.0,0.0,0.0,0.0,0.0,0.0,0.0,0.0,0.0,0.0,0.0,0.0,0.0,0.0,0.0,0.0,0.0,0.0,0.0,0.0,0.0,0.0,0.0,0.0,0.0,0.0,0.0,0.0,0.0,0.0,0.0,0.0,0.0,0.0,0.0,0.0,0.0,0.0,0.0,0.0,0.0,0.0,0.0,0.0,0.0,0.0,0.0,0.0,0.0,-1.4366,-1.4543,-1.4135,-1.3222,-1.2391,-1.1551,0.0,0.0,0.0,0.0,0.0,0.0,0.0,0.0,0.0,0.0,0.0,0.0,0.0,0.0,0.0,0.0,0.0,0.0,0.0,0.0,0.0,0.0,0.0,0.0,0.0,0.0,0.0,0.0,0.0,0.0,0.0,0.0,0.0,0.0,0.0,0.0,0.0,0.0,0.0,0.0,0.0,0.0,0.0,0.0,0.0,0.0,0.0,0.0,0.0,0.0,0.0,0.0,0.0,0.0,0.0,0.0,0.0,0.0,0.0,0.0,0.0,0.0,0.0,0.0,0.0,0.0,0.0,0.0,0.0,0.0,0.0,0.0,0.0,0.0,0.0,0.0,0.0,0.0,0.0,0.0,0.0,0.0,0.0,0.0,0.0,0.0,0.0,0.0,0.0,0.0,0.0,0.0,0.0,0.0,0.0,0.0,0.0,0.0,0.0,0.0,0.0,0.0,0.0,0.0,0.0,0.0,0.0,0.0,0.0,-1.5133,0.0,-1.5163,-1.4144,-1.3098,-1.2079,0.0,0.0,0.0,0.0,0.0,0.0,0.0,0.0,0.0,0.0,0.0,0.0,0.0,0.0,0.0,0.0,0.0,0.0,0.0,0.0,0.0,0.0,0.0,0.0,0.0,0.0,0.0,0.0,0.0,0.0,0.0,0.0,0.0,0.0,0.0,0.0,0.0,0.0,0.0,0.0,0.0,0.0,0.0,0.0,0.0,0.0,0.0,0.0,0.0,0.0,0.0,0.0,0.0,0.0,0.0,0.0,0.0,0.0,0.0,0.0,0.0,0.0,0.0,0.0,0.0,0.0,0.0,0.0,0.0,0.0,0.0,0.0,0.0,0.0,0.0,0.0,0.0,0.0,0.0,0.0,0.0,0.0,0.0,0.0,0.0,0.0,0.0,0.0,0.0,0.0,0.0,0.0,0.0,0.0,0.0,0.0,0.0,0.0,0.0,0.0,0.0,0.0,0.0,0.0,0.0,0.0,0.0,0.0,-1.4541,-1.5562,-1.5993,-1.5966,-1.5562,-1.395,-1.2841,0.0,0.0,0.0,0.0,0.0,0.0,0.0,0.0,0.0,0.0,0.0,0.0,0.0,0.0,0.0,0.0,0.0,0.0,0.0,0.0,0.0,0.0,0.0,0.0,0.0,0.0,0.0,0.0,0.0,0.0,0.0,0.0,0.0,0.0,0.0,0.0,0.0,0.0,0.0,0.0,0.0,0.0,0.0,0.0,0.0,0.0,0.0,0.0,0.0,0.0,0.0,0.0,0.0,0.0,0.0,0.0,0.0,0.0,0.0,0.0,0.0,0.0,0.0,0.0,0.0,0.0,0.0,0.0,0.0,0.0,0.0,0.0,0.0,0.0,0.0,0.0,0.0,0.0,0.0,0.0,0.0,0.0,0.0,0.0,0.0,0.0,0.0,0.0,0.0,0.0,0.0,0.0,0.0,0.0,0.0,0.0,0.0,0.0,0.0,0.0,0.0,0.0,0.0,0.0,0.0,0.0,0.0,0.0,0.0,-1.5584,-1.6316,-1.6173,-1.5142,-1.4158,-1.3051,0.0,0.0,0.0,0.0,0.0,0.0,0.0,0.0,0.0,0.0,0.0,0.0,0.0,0.0,0.0,0.0,0.0,0.0,0.0,0.0,0.0,0.0,0.0,0.0,0.0,0.0,0.0,0.0,0.0,0.0,0.0,0.0,0.0,0.0,0.0,0.0,0.0,0.0,0.0,0.0,0.0,0.0,0.0,0.0,0.0,0.0,0.0,0.0,0.0,0.0,0.0,0.0,0.0,0.0,0.0,0.0,0.0,0.0,0.0,0.0,0.0,0.0,0.0,0.0,0.0,0.0,0.0,0.0,0.0,0.0,0.0,0.0,0.0,0.0,0.0,0.0,0.0,0.0,0.0,0.0,0.0,0.0,0.0,0.0,0.0,0.0,0.0,0.0,0.0,0.0,0.0,0.0,0.0,0.0,0.0,0.0,0.0,0.0,0.0,0.0,0.0,0.0,0.0,0.0,0.0,0.0,0.0,0.0,0.0,-1.5707,-1.6444,-1.6499,-1.5731,-1.4782,-1.3576,-1.2175,0.0,0.0,0.0,0.0,0.0,0.0,0.0,0.0,0.0,0.0,0.0,0.0,0.0,0.0,0.0,0.0,0.0,0.0,0.0,0.0,0.0,0.0,0.0,0.0,0.0,0.0,0.0,0.0,0.0,0.0,0.0,0.0,0.0,0.0,0.0,0.0,0.0,0.0,0.0,0.0,0.0,0.0,0.0,0.0,0.0,0.0,0.0,0.0,0.0,0.0,0.0,0.0,0.0,0.0,0.0,0.0,0.0,0.0,0.0,0.0,0.0,0.0,0.0,0.0,0.0,0.0,0.0,0.0,0.0,0.0,0.0,0.0,0.0,0.0,0.0,0.0,0.0,0.0,0.0,0.0,0.0,0.0,0.0,0.0,0.0,0.0,0.0,0.0,0.0,0.0,0.0,0.0,0.0,0.0,0.0,0.0,0.0,0.0,0.0,0.0,0.0,0.0,0.0,0.0,0.0,0.0,0.0,0.0,-1.5822,-1.6476,-1.6893,-1.6977,-1.5628,-1.4384,0.0,0.0,0.0,0.0,0.0,0.0,0.0,0.0,0.0,0.0,0.0,0.0,0.0,0.0,0.0,0.0,0.0,0.0,0.0,0.0,0.0,0.0,0.0,0.0,0.0,0.0,0.0,0.0,0.0,0.0,0.0,0.0,0.0,0.0,0.0,0.0,0.0,0.0,0.0,0.0,0.0,0.0,0.0,0.0,0.0,0.0,0.0,0.0,0.0,0.0,0.0,0.0,0.0,0.0,0.0,0.0,0.0,0.0,0.0,0.0,0.0,0.0,0.0,0.0,0.0,0.0,0.0,0.0,0.0,0.0,0.0,0.0,0.0,0.0,0.0,0.0,0.0,0.0,0.0,0.0,0.0,0.0,0.0,0.0,0.0,0.0,0.0,0.0,0.0,0.0,0.0,0.0,0.0,0.0,0.0,0.0,0.0,0.0,0.0,0.0,0.0,0.0,0.0,0.0,0.0,0.0,0.0,0.0,0.0,-1.6044,-1.6721,-1.6888,-1.6414,-1.5406,-1.4226,0.0,0.0,0.0,0.0,0.0,0.0,0.0,0.0,0.0,0.0,0.0,0.0,0.0,0.0,0.0,0.0,0.0,0.0,0.0,0.0,0.0,0.0,0.0,0.0,0.0,0.0,0.0,0.0,0.0,0.0,0.0,0.0,0.0,0.0,0.0,0.0,0.0,0.0,0.0,0.0,0.0,0.0,0.0,0.0,0.0,0.0,0.0,0.0,0.0,0.0,0.0,0.0,0.0,0.0,0.0,0.0,0.0,0.0,0.0,0.0,0.0,0.0,0.0,0.0,0.0,0.0,0.0,0.0,0.0,0.0,0.0,0.0,0.0,0.0,0.0,0.0,0.0,0.0,0.0,0.0,0.0,0.0,0.0,0.0,0.0,0.0,0.0,0.0,0.0,0.0,0.0,0.0,0.0,0.0,0.0,0.0,0.0,0.0,0.0,0.0,0.0,0.0,0.0,0.0,0.0,0.0,0.0,0.0,-1.6265,-1.6269,-1.7013,-1.7186,-1.6744,-1.5708,-1.4505,0.0,0.0,0.0,0.0,0.0,0.0,0.0,0.0,0.0,0.0,0.0,0.0,0.0,0.0,0.0,0.0,0.0,0.0,0.0,0.0,0.0,0.0,0.0,0.0,0.0,0.0,0.0,0.0,0.0,0.0,0.0,0.0,0.0,0.0,0.0,0.0,0.0,0.0,0.0,0.0,0.0,0.0,0.0,0.0,0.0,0.0,0.0,0.0,0.0,0.0,0.0,0.0,0.0,0.0,0.0,0.0,0.0,0.0,0.0,0.0,0.0,0.0,0.0,0.0,0.0,0.0,0.0,0.0,0.0,0.0,0.0,0.0,0.0,0.0,0.0,0.0,0.0,0.0,0.0,0.0,0.0,0.0,0.0,0.0,0.0,0.0,0.0,0.0,0.0,0.0,0.0,0.0,0.0,0.0,0.0,0.0,0.0,0.0,0.0,0.0,0.0,0.0,0.0,0.0,0.0,0.0,0.0,0.0,-1.6421,-1.6561,-1.7325,-1.7659,-1.7516,-1.633,-1.5005,0.0,0.0,0.0,0.0,0.0,0.0,0.0,0.0,0.0,0.0,0.0,0.0,0.0,0.0,0.0,0.0,0.0,0.0,0.0,0.0,0.0,0.0,0.0,0.0,0.0,0.0,0.0,0.0,0.0,0.0,0.0,0.0,0.0,0.0,0.0,0.0,0.0,0.0,0.0,0.0,0.0,0.0,0.0,0.0,0.0,0.0,0.0,0.0,0.0,0.0,0.0,0.0,0.0,0.0,0.0,0.0,0.0,0.0,0.0,0.0,0.0,0.0,0.0,0.0,0.0,0.0,0.0,0.0,0.0,0.0,0.0,0.0,0.0,0.0,0.0,0.0,0.0,0.0,0.0,0.0,0.0,0.0,0.0,0.0,0.0,0.0,0.0,0.0,0.0,0.0,0.0,0.0,0.0,0.0,0.0,0.0,0.0,0.0,0.0,0.0,0.0,0.0,0.0,0.0,0.0,0.0,0.0,0.0,-1.6299,-1.6892,-1.7571,-1.7868,-1.7727,-1.6604,-1.5361,0.0,0.0,0.0,0.0,0.0,0.0,0.0,0.0,0.0,0.0,0.0,0.0,0.0,0.0,0.0,0.0,0.0,0.0,0.0,0.0,0.0,0.0,0.0,0.0,0.0,0.0,0.0,0.0,0.0,0.0,0.0,0.0,0.0,0.0,0.0,0.0,0.0,0.0,0.0,0.0,0.0,0.0,0.0,0.0,0.0,0.0,0.0,0.0,-1.4765,0.0,0.0,0.0,0.0,0.0,0.0,0.0,0.0,0.0,0.0,0.0,0.0,0.0,0.0,0.0,0.0,0.0,0.0,0.0,0.0,0.0,0.0,0.0,0.0,0.0,0.0,0.0,0.0,0.0,0.0,0.0,0.0,0.0,0.0,0.0,0.0,0.0,0.0,0.0,0.0,0.0,0.0,0.0,0.0,0.0,0.0,0.0,0.0,0.0,0.0,0.0,0.0,0.0,0.0,0.0,0.0,0.0,0.0,0.0,-1.6339,-1.7021,-1.774,-1.8062,-1.8008,-1.7011,-1.5755,0.0,0.0,0.0,0.0,0.0,0.0,0.0,0.0,0.0,0.0,0.0,0.0,0.0,0.0,0.0,0.0,0.0,0.0,0.0,0.0,0.0,0.0,0.0,0.0,0.0,0.0,0.0,0.0,0.0,0.0,0.0,0.0,0.0,0.0,0.0,0.0,0.0,0.0,0.0,0.0,0.0,0.0,0.0,0.0,0.0,0.0,0.0,0.0,0.0,0.0,0.0,0.0,0.0,0.0,0.0,0.0,0.0,0.0,0.0,0.0,0.0,0.0,0.0,0.0,0.0,0.0,0.0,0.0,0.0,0.0,0.0,0.0,0.0,0.0,0.0,0.0,0.0,0.0,0.0,0.0,0.0,0.0,0.0,0.0,0.0,0.0,0.0,0.0,0.0,0.0,0.0,0.0,0.0,0.0,0.0,0.0,0.0,0.0,0.0,0.0,0.0,0.0,0.0,0.0,0.0,0.0,0.0,-1.5811,-1.6447,-1.7167,-1.7848,-1.8254,-1.8319,-1.7436,-1.62,-1.4563,0.0,0.0,0.0,0.0,0.0,0.0,0.0,0.0,0.0,0.0,0.0,0.0,0.0,0.0,0.0,0.0,0.0,0.0,0.0,0.0,0.0,0.0,0.0,0.0,0.0,0.0,0.0,0.0,0.0,0.0,0.0,0.0,0.0,0.0,0.0,0.0,0.0,0.0,-1.7895,-1.8945,0.0,0.0,0.0,0.0,0.0,0.0,0.0,0.0,-1.6156,0.0,0.0,0.0,0.0,0.0,0.0,0.0,0.0,0.0,0.0,0.0,0.0,0.0,0.0,0.0,0.0,0.0,0.0,0.0,0.0,0.0,0.0,0.0,0.0,0.0,0.0,0.0,0.0,0.0,0.0,0.0,0.0,0.0,0.0,0.0,0.0,0.0,0.0,0.0,0.0,0.0,0.0,0.0,0.0,0.0,0.0,0.0,0.0,0.0,0.0,0.0,0.0,0.0,0.0,0.0,0.0,-1.5515,-1.587,-1.6485,-1.7422,-1.7994,-1.8352,-1.8445,-1.7659,-1.6481,-1.4971,0.0,0.0,0.0,0.0,0.0,0.0,0.0,0.0,0.0,0.0,0.0,0.0,0.0,0.0,0.0,0.0,0.0,0.0,0.0,0.0,0.0,0.0,0.0,0.0,0.0,0.0,0.0,0.0,0.0,0.0,0.0,0.0,0.0,0.0,0.0,0.0,0.0,0.0,0.0,-1.9867,-2.0356,0.0,0.0,0.0,0.0,0.0,0.0,0.0,0.0,-1.6724,0.0,0.0,0.0,0.0,0.0,0.0,0.0,0.0,0.0,0.0,0.0,0.0,0.0,0.0,0.0,0.0,0.0,0.0,0.0,0.0,0.0,0.0,0.0,0.0,0.0,0.0,0.0,0.0,0.0,0.0,0.0,0.0,0.0,0.0,0.0,0.0,0.0,0.0,0.0,0.0,0.0,0.0,0.0,0.0,0.0,0.0,0.0,0.0,0.0,0.0,0.0,0.0,0.0,0.0,0.0,-1.5687,-1.5916,-1.6441,-1.7374,-1.7874,-1.8201,-1.8307,-1.7551,-1.6516,0.0,0.0,0.0,0.0,0.0,0.0,0.0,0.0,0.0,0.0,0.0,0.0,0.0,0.0,0.0,0.0,0.0,0.0,0.0,0.0,0.0,0.0,0.0,0.0,0.0,0.0,0.0,0.0,0.0,0.0,0.0,0.0,0.0,0.0,0.0,0.0,0.0,0.0,0.0,0.0,-1.9531,-2.0133,-2.0349,0.0,0.0,0.0,0.0,0.0,0.0,-1.7368,-1.7122,0.0,0.0,0.0,0.0,0.0,0.0,0.0,0.0,0.0,0.0,0.0,0.0,0.0,0.0,0.0,0.0,0.0,0.0,0.0,0.0,0.0,0.0,0.0,0.0,0.0,0.0,0.0,0.0,0.0,0.0,0.0,0.0,0.0,0.0,0.0,0.0,0.0,0.0,0.0,0.0,0.0,0.0,0.0,0.0,0.0,0.0,0.0,0.0,0.0,0.0,0.0,0.0,0.0,0.0,0.0,-1.5771,-1.5974,-1.642,-1.7201,-1.7707,-1.8016,-1.8049,-1.7284,-1.6379,0.0,0.0,0.0,0.0,0.0,0.0,0.0,0.0,0.0,0.0,0.0,0.0,0.0,0.0,0.0,0.0,0.0,0.0,0.0,0.0,0.0,0.0,0.0,0.0,0.0,0.0,0.0,0.0,0.0,0.0,0.0,0.0,0.0,0.0,0.0,0.0,0.0,0.0,0.0,0.0,0.0,-1.9763,-2.0096,-1.9709,0.0,0.0,0.0,0.0,-1.7871,-1.7635,0.0,0.0,0.0,0.0,0.0,0.0,0.0,0.0,0.0,0.0,0.0,0.0,0.0,0.0,0.0,0.0,0.0,0.0,0.0,0.0,0.0,0.0,0.0,0.0,0.0,0.0,0.0,0.0,0.0,0.0,0.0,0.0,0.0,0.0,0.0,0.0,0.0,0.0,0.0,0.0,0.0,0.0,0.0,0.0,0.0,0.0,0.0,0.0,0.0,0.0,0.0,0.0,0.0,0.0,0.0,0.0,-1.553,-1.602,-1.6441,-1.6858,-1.755,-1.7794,-1.7578,-1.6862,-1.5957,0.0,0.0,0.0,0.0,0.0,0.0,0.0,0.0,0.0,0.0,0.0,0.0,0.0,0.0,0.0,0.0,0.0,0.0,0.0,0.0,0.0,0.0,0.0,0.0,0.0,0.0,0.0,0.0,0.0,0.0,0.0,0.0,0.0,0.0,0.0,0.0,0.0,0.0,0.0,0.0,0.0,-1.9797,-1.9611,-1.9695,-1.9649,0.0,0.0,-1.9235,-1.8948,-1.8402,0.0,0.0,0.0,0.0,0.0,0.0,0.0,0.0,0.0,0.0,0.0,0.0,0.0,0.0,0.0,0.0,0.0,0.0,0.0,0.0,0.0,0.0,0.0,0.0,0.0,0.0,0.0,0.0,0.0,0.0,0.0,0.0,0.0,0.0,0.0,0.0,0.0,0.0,0.0,0.0,0.0,0.0,0.0,0.0,0.0,0.0,0.0,0.0,0.0,0.0,0.0,0.0,0.0,0.0,0.0,-1.4858,-1.5603,-1.5996,-1.6335,-1.6629,-1.7123,-1.7276,-1.711,-1.6638,-1.5893,0.0,0.0,0.0,0.0,0.0,0.0,0.0,0.0,0.0,0.0,0.0,0.0,0.0,0.0,0.0,0.0,0.0,0.0,0.0,0.0,0.0,0.0,0.0,0.0,0.0,0.0,0.0,0.0,0.0,0.0,0.0,0.0,0.0,0.0,0.0,0.0,0.0,0.0,0.0,0.0,0.0,0.0,-1.8693,-1.8828,0.0,0.0,0.0,-1.9115,-1.8584,0.0,0.0,0.0,0.0,0.0,0.0,0.0,0.0,0.0,0.0,0.0,0.0,0.0,0.0,0.0,0.0,0.0,0.0,0.0,0.0,0.0,0.0,0.0,0.0,0.0,0.0,0.0,0.0,0.0,0.0,0.0,0.0,0.0,0.0,0.0,0.0,0.0,0.0,0.0,0.0,0.0,0.0,0.0,0.0,0.0,0.0,0.0,0.0,0.0,0.0,0.0,0.0,0.0,0.0,0.0,0.0,0.0,-1.5615,-1.602,-1.6315,-1.6559,-1.6977,-1.7095,-1.6933,-1.6523,0.0,0.0,0.0,0.0,0.0,0.0,0.0,0.0,0.0,0.0,0.0,0.0,0.0,0.0,0.0,0.0,0.0,0.0,0.0,0.0,0.0,0.0,0.0,0.0,0.0,0.0,0.0,-1.0808,0.0,0.0,0.0,0.0,0.0,0.0,0.0,0.0,0.0,0.0,0.0,0.0,0.0,0.0,-1.7803,-1.7727,-1.7997,-1.8233,0.0,0.0,-1.8859,-1.8313,-1.8202,-1.7849,0.0,0.0,0.0,0.0,0.0,0.0,0.0,0.0,0.0,0.0,0.0,0.0,0.0,0.0,0.0,0.0,0.0,0.0,0.0,0.0,0.0,0.0,0.0,0.0,0.0,0.0,0.0,0.0,0.0,0.0,0.0,0.0,0.0,0.0,0.0,0.0,0.0,0.0,0.0,0.0,0.0,0.0,0.0,0.0,0.0,0.0,0.0,0.0,0.0,0.0,0.0,0.0,0.0,0.0,0.0,-1.5423,-1.6107,-1.6531,-1.6694,-1.7328,-1.7531,-1.7279,-1.652,-1.5842,0.0,0.0,0.0,0.0,0.0,0.0,0.0,0.0,0.0,0.0,0.0,0.0,0.0,0.0,0.0,0.0,0.0,0.0,0.0,0.0,0.0,0.0,0.0,0.0,0.0,0.0,0.0,0.0,0.0,0.0,0.0,0.0,0.0,0.0,0.0,0.0,0.0,0.0,0.0,0.0,0.0,-1.6815,-1.6889,-1.7419,-1.8,0.0,0.0,-1.8607,-1.8584,-1.8165,-1.764,-1.7059,0.0,0.0,0.0,0.0,0.0,0.0,0.0,0.0,0.0,0.0,0.0,0.0,0.0,0.0,0.0,0.0,0.0,0.0,0.0,0.0,0.0,0.0,0.0,0.0,0.0,0.0,0.0,0.0,0.0,0.0,0.0,0.0,0.0,0.0,0.0,0.0,0.0,0.0,0.0,0.0,0.0,0.0,0.0,0.0,0.0,0.0,0.0,0.0,0.0,0.0,0.0,0.0,0.0,-1.4931,-1.5395,-1.5923,-1.6243,-1.6348,-1.6738,-1.6898,-1.6675,-1.6336,-1.5721,0.0,0.0,0.0,0.0,0.0,0.0,0.0,0.0,0.0,0.0,0.0,0.0,0.0,0.0,0.0,0.0,0.0,0.0,0.0,0.0,0.0,0.0,0.0,0.0,0.0,0.0,0.0,0.0,-0.9912,-0.986,-1.022,0.0,0.0,0.0,0.0,0.0,0.0,0.0,0.0,0.0,0.0,-1.5523,-1.529,-1.5886,0.0,0.0,-1.719,-1.74,-1.7387,-1.707,-1.6604,-1.581,-1.5635,0.0,0.0,0.0,0.0,0.0,0.0,0.0,0.0,0.0,0.0,0.0,0.0,0.0,0.0,0.0,0.0,0.0,0.0,0.0,0.0,0.0,0.0,0.0,0.0,0.0,0.0,0.0,0.0,0.0,0.0,0.0,0.0,0.0,0.0,0.0,0.0,0.0,0.0,0.0,0.0,0.0,0.0,0.0,0.0,0.0,0.0,0.0,0.0,0.0,0.0,0.0,0.0,-1.4932,-1.5221,-1.5753,-1.6018,-1.6019,-1.6376,-1.648,-1.6424,-1.6262,-1.5679,0.0,0.0,0.0,0.0,0.0,0.0,0.0,0.0,0.0,0.0,0.0,0.0,0.0,0.0,0.0,0.0,0.0,0.0,0.0,0.0,0.0,0.0,0.0,0.0,0.0,0.0,0.0,0.0,-0.9717,-0.9676,-1.003,0.0,0.0,0.0,0.0,0.0,0.0,0.0,0.0,0.0,0.0,-1.4075,-1.3878,-1.457,-1.518,-1.5517,-1.6061,-1.6425,-1.6379,-1.6113,-1.5651,-1.4942,0.0,0.0,0.0,0.0,0.0,0.0,0.0,0.0,0.0,0.0,0.0,0.0,0.0,0.0,0.0,0.0,0.0,0.0,0.0,0.0,0.0,0.0,0.0,0.0,0.0,0.0,0.0,0.0,0.0,0.0,-1.4582,0.0,0.0,0.0,0.0,0.0,0.0,0.0,0.0,0.0,0.0,0.0,0.0,0.0,0.0,0.0,0.0,0.0,0.0,0.0,0.0,0.0,0.0,-1.4485,-1.4835,-1.5571,-1.594,-1.5911,-1.6358,-1.6641,-1.6736,-1.6361,-1.5806,-1.5167,0.0,0.0,0.0,0.0,0.0,0.0,0.0,0.0,0.0,0.0,0.0,0.0,0.0,0.0,0.0,0.0,0.0,0.0,0.0,0.0,0.0,0.0,0.0,0.0,0.0,0.0,-0.9587,-0.9409,-0.9363,0.0,0.0,0.0,0.0,0.0,0.0,0.0,0.0,0.0,0.0,-1.2112,-1.2506,-1.2689,-1.3635,-1.4439,-1.5014,-1.5517,-1.5877,-1.5869,-1.5365,-1.4919,0.0,0.0,0.0,0.0,0.0,0.0,0.0,0.0,0.0,0.0,0.0,0.0,0.0,0.0,0.0,0.0,0.0,0.0,0.0,0.0,0.0,0.0,0.0,0.0,0.0,0.0,0.0,-1.4582,-1.3916,0.0,0.0,0.0,0.0,0.0,0.0,0.0,0.0,0.0,0.0,0.0,-1.4206,-1.4523,0.0,0.0,0.0,0.0,0.0,0.0,0.0,0.0,0.0,0.0,0.0,0.0,-1.4589,-1.4786,-1.5047,-1.5228,-1.5421,-1.5439,-1.5604,-1.5884,-1.59,-1.5552,-1.48,0.0,0.0,0.0,0.0,0.0,0.0,0.0,0.0,0.0,0.0,0.0,0.0,0.0,0.0,0.0,0.0,0.0,0.0,0.0,0.0,0.0,0.0,0.0,0.0,0.0,-0.9268,0.0,0.0,0.0,0.0,0.0,0.0,0.0,0.0,0.0,0.0,0.0,-1.0692,-1.0294,-1.0898,-1.1388,-1.1617,-1.2209,-1.2867,0.0,0.0,0.0,0.0,0.0,0.0,0.0,0.0,0.0,0.0,0.0,0.0,0.0,0.0,-1.2937,-1.376,-1.3837,-1.372,-1.3545,0.0,0.0,0.0,0.0,0.0,0.0,0.0,0.0,0.0,0.0,0.0,0.0,0.0,0.0,0.0,0.0,-1.2846,0.0,0.0,0.0,0.0,0.0,0.0,0.0,0.0,-1.3454,-1.3487,-1.3101,-1.3366,-1.3204,0.0,-1.2437,-1.2002,0.0,0.0,0.0,0.0,0.0,0.0,0.0,0.0,-1.4198,-1.4287,-1.433,-1.4472,-1.4651,-1.4644,-1.4833,-1.5186,-1.5303,-1.5097,-1.4526,-1.3341,-1.24,0.0,0.0,0.0,0.0,0.0,0.0,0.0,0.0,0.0,0.0,0.0,0.0,0.0,0.0,0.0,0.0,0.0,0.0,0.0,0.0,0.0,0.0,0.0,-0.8832,0.0,0.0,0.0,0.0,0.0,0.0,0.0,0.0,0.0,-0.8721,-0.9201,-0.9406,-0.9157,-0.9912,-1.0453,-1.0569,0.0,0.0,0.0,0.0,0.0,0.0,0.0,-1.1679,-1.1533,-1.1342,-1.124,-1.1366,-1.1508,-1.1479,-1.13,0.0,0.0,-1.2196,-1.2474,-1.2486,-1.2187,-1.226,-1.2241,-1.2007,-1.1815,-1.1576,0.0,0.0,0.0,0.0,0.0,0.0,0.0,0.0,-1.3634,-1.3416,0.0,-1.2402,0.0,0.0,0.0,0.0,0.0,0.0,0.0,0.0,-1.2194,-1.195,-1.148,-1.1577,-1.1488,-1.128,-1.0931,-1.0689,-1.0541,-1.1319,0.0,0.0,0.0,0.0,0.0,0.0,-1.3283,-1.3302,-1.3537,-1.3652,-1.3692,-1.3958,-1.4329,-1.473,-1.4617,-1.4437,-1.4272,-1.355,-1.2819,-1.2126,-1.1071,0.0,0.0,0.0,0.0,0.0,0.0,0.0,0.0,0.0,0.0,0.0,0.0,0.0,0.0,0.0,0.0,0.0,0.0,0.0,0.0,-0.8823,0.0,0.0,0.0,0.0,0.0,0.0,0.0,0.0,0.0,0.0,-0.7783,-0.7854,-0.7897,-0.8207,0.0,0.0,0.0,0.0,-1.111,-1.0794,-1.117,-1.1509,-1.1514,-1.1236,-1.0907,-1.0684,0.0,0.0,-0.9939,-0.9933,-0.9975,-1.0137,-0.9613,-0.941,-1.0166,-1.0679,-1.0918,-1.0985,-1.1159,-1.1353,-1.16,-1.1193,-1.0864,-1.2361,0.0,0.0,0.0,0.0,-1.2779,-1.2689,-1.2779,-1.2403,-1.1999,-1.1594,-1.1288,0.0,0.0,0.0,0.0,0.0,0.0,-1.0902,-1.0652,-1.1078,-1.098,-1.0466,-1.075,-1.0762,-1.0499,-1.0282,-1.0057,-0.9873,-1.0099,-1.0566,-1.1237,0.0,0.0,0.0,0.0,-1.2867,-1.2876,-1.2826,-1.2835,-1.291,-1.2784,-1.3081,-1.3858,-1.3535,-1.3577,-1.4054,-1.3095,-1.2386,-1.2018,-1.092,0.0,0.0,0.0,0.0,0.0,0.0,0.0,0.0,0.0,0.0,0.0,0.0,0.0,0.0,0.0,0.0,0.0,0.0,0.0,-0.8173,-0.7878,-0.7489,0.0,0.0,0.0,0.0,0.0,0.0,0.0,0.0,0.0,-0.6108,-0.6799,-0.7213,0.0,0.0,-0.8628,-0.8948,-0.9269,-0.955,-0.977,0.0,0.0,0.0,-0.9581,-0.94,-0.9059,-0.8571,-0.8289,-0.8303,-0.8321,-0.8213,-0.808,-0.7822,-0.7738,-0.7738,-0.8555,-0.9262,-0.9353,-0.9451,-0.9616,-0.9961,-0.9915,-0.9926,-1.0592,-1.1541,-1.1489,-1.1635,-1.1929,-1.1674,-1.168,-1.1844,-1.1314,-1.0888,-1.0474,-1.0129,-0.9879,-0.9668,-0.9556,0.0,0.0,0.0,-0.9477,-0.9296,-0.9532,-0.9464,-0.9104,-0.9356,-0.9351,-0.9135,-0.9024,-0.887,-0.876,-0.8845,-0.9316,-1.0169,0.0,0.0,-1.1294,-1.1694,-1.19,-1.1976,-1.2016,-1.2079,-1.2125,-1.2096,-1.2382,-1.2977,-1.2846,-1.3039,-1.352,-1.2776,-1.2147,-1.1885,-1.0812,-0.9997,0.0,0.0,0.0,0.0,0.0,0.0,0.0,0.0,0.0,0.0,0.0,-1.0188,-0.9795,0.0,0.0,0.0,-0.7653,-0.732,-0.7152,-0.6983,0.0,0.0,0.0,0.0,0.0,0.0,0.0,-0.5595,-0.5402,-0.5246,-0.5283,-0.5926,-0.6474,-0.669,-0.7392,-0.799,-0.8349,0.0,-0.8661,-0.8799,-0.865,-0.854,-0.8537,-0.8429,-0.8255,-0.7825,-0.7391,-0.7167,-0.7214,-0.7219,-0.7161,-0.6927,-0.6778,-0.6577,-0.6404,-0.6889,-0.7503,-0.7967,-0.8214,-0.8436,-0.8696,-0.8919,-0.9123,-0.9025,-0.9195,-0.9972,-1.0455,-1.0731,-1.0691,-1.0758,-1.0864,-1.0217,-0.9863,-0.9646,-0.8894,-0.8451,-0.8238,-0.816,0.0,-0.8345,-0.8097,-0.8049,-0.8111,-0.7849,-0.7655,-0.7583,-0.7559,-0.7469,-0.733,-0.7319,-0.7309,-0.7353,-0.757,-0.7921,-0.8408,-0.9287,-0.9789,-0.9874,-1.0338,-1.0663,-1.0805,-1.117,-1.1329,-1.1295,-1.1671,-1.1956,-1.2149,-1.2351,-1.2523,-1.2744,-1.2375,-1.1992,-1.1595,-1.0666,-0.9889,-0.9314,0.0,0.0,0.0,0.0,0.0,0.0,0.0,0.0,0.0,0.0,0.0,0.0,0.0,0.0,0.0,-0.6714,0.0,-0.6269,-0.6231,0.0,0.0,0.0,-0.5595,-0.524,-0.5291,-0.5296,-0.5035,0.0,0.0,-0.5108,0.0,-0.5691,-0.6421,-0.7128,-0.7581,-0.7861,-0.814,-0.8318,-0.7989,-0.7878,-0.7878,-0.7823,-0.766,-0.7307,-0.6897,-0.6526,-0.6386,-0.6464,-0.6488,-0.6495,-0.6485,-0.6189,-0.5959,-0.5959,-0.5725,-0.5712,-0.6799,-0.7328,-0.7655,-0.7751,-0.8062,-0.8315,-0.7596,-0.7624,-0.7877,-0.8417,-0.9103,-0.8741,-0.8625,-0.861,-0.8056,-0.7805,-0.7722,-0.7509,-0.7327,-0.7183,-0.7165,-0.715,-0.7174,-0.703,-0.704,-0.7115,-0.7065,-0.6896,-0.664,-0.6496,-0.6296,-0.6031,-0.576,-0.5761,-0.6118,-0.6378,-0.682,-0.7445,-0.8026,-0.8748,-0.9664,-1.0005,-1.0137,-1.0144,-1.022,-1.0244,-1.0185,-1.0641,-1.0886,-1.0926,-1.0967,-1.1177,-1.1496,-1.1139,-1.0898,-1.0761,-1.0094,-0.9617,-0.9311,-0.8817,0.0,0.0,0.0,0.0,0.0,0.0,0.0,0.0,0.0,-0.885,-0.8114,0.0,-0.7151,0.0,-0.6112,-0.5803,-0.568,-0.5494,0.0,0.0,-0.5271,-0.5171,-0.5092,-0.5124,-0.5128,-0.5075,-0.5137,-0.5188,-0.5156,-0.5194,-0.5437,-0.5934,-0.6508,-0.6852,-0.6912,-0.7265,-0.7487,-0.7376,-0.7154,-0.699,-0.699,-0.6546,-0.6221,-0.6077,-0.5861,-0.5645,-0.5667,-0.5669,-0.5669,-0.5669,-0.5598,-0.5527,-0.5529,-0.545,-0.5506,-0.5771,-0.6041,-0.6417,-0.6862,-0.7065,-0.7265,-0.6427,-0.6625,-0.6628,-0.7009,-0.7629,-0.7808,-0.7822,-0.7732,-0.7283,-0.692,-0.6736,-0.6472,-0.6323,-0.6279,-0.6282,-0.6232,-0.6229,-0.6072,-0.6028,-0.6074,-0.5948,-0.5731,-0.555,-0.5386,-0.5098,-0.4688,-0.4501,-0.452,-0.4743,-0.5142,-0.5716,-0.6476,-0.6962,-0.7625,-0.846,-0.9165,-0.9509,-0.9486,-0.9517,-0.9629,-0.9717,-0.9825,-0.9969,-1.005,-1.0042,-1.0224,-1.0513,-1.0304,-1.0166,-1.0039,-0.9672,-0.9271,-0.889,-0.8452,-0.8174,0.0,0.0,0.0,0.0,0.0,0.0,0.0,0.0,0.0,0.0,0.0,-0.6386,-0.5817,-0.5394,-0.5197,-0.5199,-0.5057,-0.4997,-0.5092,-0.5045,-0.4988,-0.5026,-0.5112,-0.5169,-0.5116,-0.516,-0.519,-0.519,-0.521,-0.5256,-0.5469,-0.59,-0.6292,-0.6451,-0.6679,-0.6824,-0.6768,-0.6659,-0.6437,-0.6325,-0.6044,-0.5768,-0.5656,-0.5491,-0.5382,-0.5382,-0.5382,-0.5382,-0.5382,-0.5382,-0.5382,-0.5382,-0.5382,-0.5382,-0.5437,-0.5491,-0.577,-0.6049,-0.6214,-0.6434,-0.5403,-0.5741,-0.5792,-0.5942,-0.6276,-0.711,-0.7468,-0.7372,-0.6963,-0.6523,-0.6084,-0.5554,-0.536,-0.5434,-0.5386,-0.5384,-0.5386,-0.519,-0.5039,-0.5033,-0.4741,-0.4556,-0.4522,-0.434,-0.4023,-0.3542,-0.3452,-0.3452,-0.3499,-0.3944,-0.4607,-0.5453,-0.5985,-0.6485,-0.6992,-0.8055,-0.8637,-0.8769,-0.9,-0.9269,-0.9463,-0.9298,-0.9271,-0.9349,-0.9297,-0.9356,-0.9534,-0.9529,-0.9442,-0.9269,-0.9119,-0.8737,-0.8171,-0.787,-0.7676,0.0,-0.706,0.0,0.0,0.0,0.0,0.0,0.0,0.0,0.0,-0.5844,-0.5595,-0.5103,-0.4869,-0.4755,-0.4778,-0.4782,-0.4871,-0.501,-0.4981,-0.5024,-0.5116,-0.5206,-0.5207,-0.5207,-0.5261,-0.5207,-0.5207,-0.5128,-0.5128,-0.5219,-0.5424,-0.5763,-0.6082,-0.6272,-0.633,-0.6272,-0.6272,-0.6105,-0.588,-0.5768,-0.5656,-0.5437,-0.5382,-0.5382,-0.5382,-0.5382,-0.5382,-0.5382,-0.5382,-0.5382,-0.5382,-0.5382,-0.5382,-0.5382,-0.5437,-0.5437,-0.5493,-0.5603,-0.5712,-0.4318,-0.4384,-0.464,-0.4839,-0.5133,-0.5518,-0.5922,-0.6289,-0.577,-0.5359,-0.5057,-0.4764,-0.4622,-0.4587,-0.4384,-0.4282,-0.4284,-0.4234,-0.4234,-0.4232,-0.4102,-0.4026,-0.3906,-0.35,-0.32,-0.3005,-0.2645,-0.2557,-0.2693,-0.3183,-0.3673,-0.4249,-0.5137,-0.5765,-0.6136,0.0,0.0,0.0,-0.8559,-0.8878,-0.8872,-0.9118,-0.9021,-0.871,-0.8377,0.0,-0.8177,-0.8012,-0.7966,-0.8054,-0.7975,0.0,0.0,0.0,0.0,0.0,0.0,0.0,0.0,0.0,0.0,0.0,-0.5638,-0.5532,-0.5383,-0.5133,-0.499,-0.4858,-0.481,-0.4768,-0.4782,-0.4782,-0.4871,-0.5012,-0.5037,-0.5118,-0.5154,-0.53,-0.5355,-0.5357,-0.5353,-0.5355,-0.5347,-0.5275,-0.5247,-0.5304,-0.5334,-0.5395,-0.5534,-0.5993,-0.6274,-0.6272,-0.6049,-0.5826,-0.5491,-0.5493,-0.5493,-0.5382,-0.5382,-0.5382,-0.5382,-0.5382,-0.5382,-0.5382,-0.5382,-0.5382,-0.5382,-0.5382,-0.5382,-0.5382,-0.5382,-0.5382,-0.5382,-0.5435,-0.5491,-0.3379,0.0,-0.3732,-0.4034,0.0,-0.4535,-0.4786,-0.5037,-0.5138,-0.4989,-0.4587,-0.4336,-0.4187,-0.4187,-0.4034,-0.3984,-0.3984,-0.3885,-0.3784,-0.378,-0.3461,-0.3318,-0.3236,-0.2815,-0.253,-0.2366,-0.2119,-0.2064,-0.2155,-0.2672,-0.3139,-0.3639,-0.4358,-0.4958,-0.5381,-0.5849,-0.6545,-0.7379,-0.7749,-0.8019,-0.8095,-0.8158,-0.8075,-0.7795,0.0,0.0,0.0,0.0,0.0,0.0,0.0,0.0,0.0,0.0,0.0,-0.6072,-0.5989,-0.5857,-0.5713,-0.5511,-0.5338,-0.5236,-0.5087,-0.4987,-0.5037,-0.4885,-0.4782,-0.4782,-0.4782,-0.4782,-0.4782,-0.4782,-0.489,-0.502,-0.5079,-0.5159,-0.529,-0.5353,-0.5382,-0.5382,-0.5382,-0.5382,-0.5382,-0.5345,-0.5331,-0.5371,-0.5343,-0.5312,-0.5318,-0.5631,-0.5828,-0.5828,-0.5717,-0.5547,-0.5435,-0.5382,-0.5382,-0.5382,-0.5382,-0.5382,-0.5382,-0.5382,-0.5382,-0.5382,-0.5382,-0.5382,-0.5382,-0.5382,-0.5382,-0.5382,-0.5382,-0.5382,-0.5382,-0.5382,-0.5382,-0.2574,-0.2978,-0.3079,-0.3381,-0.3781,-0.3883,-0.3934,-0.4033,0.0,0.0,0.0,-0.4034,-0.3934,-0.3934,-0.3882,-0.3831,-0.3831,-0.3633,-0.3484,-0.343,-0.2931,-0.2706,-0.2595,-0.2327,-0.2055,-0.1813,-0.1784,-0.1768,-0.177,-0.2259,-0.2742,-0.3166,-0.3685,-0.4241,-0.4778,-0.5227,-0.5902,-0.6712,-0.6928,-0.7121,-0.7387,-0.7121,-0.701,-0.696,-0.6658,-0.6505,-0.6461,-0.6461,-0.6472,-0.6496,-0.6496,-0.6362,-0.614,-0.6039,-0.5899,-0.5611,-0.5293,-0.5138,-0.5138,-0.4935,-0.4782,-0.4782,-0.4782,-0.4782,-0.4782,-0.4782,-0.4782,-0.4782,-0.4782,-0.4782,-0.4782,-0.4782,-0.4908,-0.5088,-0.5106,-0.5179,-0.5351,-0.5382,-0.5382,-0.5382,-0.5382,-0.5382,-0.5382,-0.538,-0.5382,-0.5382,-0.5377,-0.5357,-0.5294,-0.5318,-0.5413,-0.5431,-0.5437,-0.5437,-0.5382,-0.5382,-0.5382,-0.5382,-0.5382,-0.5382,-0.5382,-0.5382,-0.5382,-0.5382,-0.5382,-0.5382,-0.5382,-0.5382,-0.5382,-0.5382,-0.5382,-0.5382,-0.5382,-0.5382,-0.5382,-0.2123,-0.2224,-0.2675,-0.2876,-0.2976,-0.3482,-0.3784,-0.3984,-0.4133,-0.4133,-0.4034,-0.3784,-0.3635,-0.3635,-0.3432,-0.3279,-0.333,-0.3282,-0.313,0.0,-0.2819,-0.264,-0.2354,-0.2099,-0.198,-0.1854,-0.1657,-0.1513,-0.1608,-0.2087,-0.2375,-0.2518,-0.3141,-0.3796,-0.4345,-0.4757,-0.5096,-0.5494,-0.6238,-0.6769,-0.6872,-0.6775,-0.6571,-0.6418,-0.5989,-0.5653,-0.5519,-0.5521,-0.5563,-0.5654,-0.5659,-0.5554,-0.5343,-0.5359,-0.5218,-0.4966,-0.4876,-0.4885,-0.4885,-0.4834,-0.4782,-0.4782,-0.4782,-0.4782,-0.4782,-0.4782,-0.4782,-0.4782,-0.4782,-0.4782,-0.4782,-0.4782,-0.4908,-0.5077,-0.5106,-0.5181,-0.5359,-0.5382,-0.5382,-0.5382,-0.5382,-0.5382,-0.5382,-0.5382,-0.5382,-0.5382,-0.5371,-0.5371,-0.5351,-0.5304,-0.5304,-0.5361,-0.5382,-0.5382,-0.5373,-0.538,-0.5373,-0.5382,-0.5371,-0.5363,-0.5371,-0.5371,-0.5373,-0.5382,-0.5375,-0.5375,-0.5375,-0.5382,-0.5373,-0.5371,-0.5373,-0.5382,-0.5382,-0.5382,-0.5382,-0.1869,-0.2022,-0.2423,-0.2675,-0.2826,-0.323,-0.3482,-0.3531,-0.338,-0.3531,-0.3734,-0.3482,-0.3383,-0.3383,-0.3282,-0.318,-0.318,-0.3079,-0.2927,-0.2775,-0.2474,-0.2262,-0.2092,-0.1875,-0.176,-0.1744,-0.1582,-0.1478,-0.1528,-0.1928,-0.223,-0.2375,-0.3132,-0.3705,-0.4132,-0.4466,-0.4688,-0.4987,-0.5542,-0.5939,-0.6132,-0.5936,-0.5765,-0.5716,-0.5368,-0.5103,-0.5007,-0.5005,-0.5076,-0.5122,-0.5122,-0.5094,-0.4983,-0.4987,-0.4935,-0.4784,-0.4782,-0.4782,-0.4782,-0.4782,-0.4782,-0.4782,-0.4782,-0.4782,-0.4782,-0.4782,-0.4782,-0.4782,-0.4782,-0.4782,-0.4782,-0.4782,-0.4908,-0.509,-0.5106,-0.5184,-0.5341,-0.5382,-0.5382,-0.5382,-0.5382,-0.5382,-0.5382,-0.5382,-0.5382,-0.5377,-0.5345,-0.5326,-0.5371,-0.5304,-0.5202,-0.5298,-0.5306,-0.5306,-0.531,-0.5308,-0.5306,-0.5306,-0.5263,-0.5259,-0.5292,-0.5306,-0.5328,-0.5365,-0.5343,-0.5312,-0.5308,-0.5306,-0.5306,-0.5312,-0.5353,-0.5373,-0.5382,-0.5382,-0.5382,-0.1718,-0.192,-0.217,-0.2472,-0.2725,-0.2927,-0.3029,-0.2978,-0.2826,-0.2927,-0.3282,-0.313,-0.3029,-0.3029,-0.3029,-0.3029,-0.2978,-0.2826,-0.2675,-0.2574,-0.2173,-0.1971,-0.1867,-0.1692,-0.1581,-0.1579,-0.1558,-0.1546,-0.1549,-0.1865,-0.2174,-0.2521,-0.3257,-0.3736,-0.3984,-0.4288,-0.4537,-0.4784,-0.5037,-0.5186,-0.5386,-0.5238,-0.5087,-0.5087,-0.4935,-0.4782,-0.4782,-0.4782,-0.4782,-0.4782,-0.4782,-0.4782,-0.4782,-0.4782,-0.4782,-0.4782,-0.4782,-0.4782,-0.4782,-0.4782,-0.4782,-0.4782,-0.4782,-0.4782,-0.4782,-0.4782,-0.4782,-0.4782,-0.4782,-0.4782,-0.4782,-0.4782,-0.4857,-0.5079,-0.5106,-0.5184,-0.5347,-0.5382,-0.5382,-0.5382,-0.5382,-0.5382,-0.5382,-0.5382,-0.5382,-0.5371,-0.5316,-0.531,-0.5357,-0.5304,-0.5194,-0.5194,-0.5207,-0.5229,-0.5275,-0.5284,-0.5286,-0.5219,-0.5154,-0.5204,-0.5178,-0.518,-0.518,-0.5286,-0.5259,-0.5166,-0.516,-0.516,-0.5158,-0.5218,-0.5279,-0.5349,-0.5377,-0.5382,-0.5382,-0.1617,-0.1667,-0.192,-0.2171,-0.2422,-0.2472,-0.2522,-0.2472,-0.2422,-0.2472,-0.2522,-0.2472,-0.2472,-0.2472,-0.2472,-0.2522,-0.2472,-0.2472,-0.2322,-0.2122,-0.2022,-0.1869,-0.1667,-0.1613,-0.1562,-0.1611,-0.1607,-0.1552,-0.1603,-0.186,-0.2266,-0.2768,-0.333,-0.3734,-0.3984,-0.4288,-0.4537,-0.4784,-0.4834,-0.4834,-0.4885,-0.4834,-0.4834,-0.4834,-0.4834,-0.4782,-0.4782,-0.4782,-0.4782,-0.4782,-0.4782,-0.4782,-0.4782,-0.4782,-0.4782,-0.4782,-0.4782,-0.4782,-0.4782,-0.4782,-0.4782,-0.4782,-0.4782,-0.4782,-0.4782,-0.4782,-0.4782,-0.4782,-0.4782,-0.4782,-0.4782,-0.4782,-0.4855,-0.5067,-0.5098,-0.5179,-0.5335,-0.5382,-0.5382,-0.5382,-0.5375,-0.5382,-0.5371,-0.5365,-0.5369,-0.5367,-0.5349,-0.5347,-0.5369,-0.5314,-0.5204,-0.5211,-0.531,-0.5355,-0.5353,-0.5365,-0.5345,-0.5345,-0.5229,-0.5174,-0.5154,-0.5167,-0.513,-0.5169,-0.5137,-0.5122,-0.5122,-0.5122,-0.512,-0.5135,-0.5198,-0.5286,-0.5355,-0.5382,-0.5382,-0.1566,-0.1617,-0.192,-0.2171,-0.2371,-0.2422,-0.2422,-0.2422,-0.2221,-0.2171,-0.2121,-0.2019,-0.2119,-0.2422,-0.2422,-0.2422,-0.2371,-0.2221,-0.2122,-0.1971,-0.1819,-0.1718,-0.1617,-0.1566,-0.1566,-0.1566,-0.1566,-0.1566,-0.1667,-0.202,-0.2423,-0.2775,-0.318,-0.3583,-0.3984,-0.4085,-0.4384,-0.4784,-0.4782,-0.4782,-0.4782,-0.4782,-0.4782,-0.4782,-0.4782,-0.4782,-0.4782,-0.4782,-0.4782,-0.4782,-0.4782,-0.4782,-0.4782,-0.4782,-0.4782,-0.4782,-0.4782,-0.4782,-0.4782,-0.4782,-0.4782,-0.4782,-0.4782,-0.4782,-0.4782,-0.4782,-0.4782,-0.4782,-0.4782,-0.4782,-0.4782,-0.4782,-0.4888,-0.5,-0.5026,-0.51,-0.5277,-0.5245,-0.5316,-0.5365,-0.5333,-0.5302,-0.5292,-0.5253,-0.5249,-0.5284,-0.53,-0.5316,-0.5363,-0.5347,-0.5331,-0.5328,-0.5359,-0.5349,-0.532,-0.53,-0.5302,-0.5277,-0.5175,-0.5094,-0.5151,-0.5088,-0.5043,-0.5096,-0.5069,-0.5043,-0.5028,-0.5028,-0.503,-0.5063,-0.5155,-0.5204,-0.5294,-0.5345,-0.5373,-0.1566,-0.1617,-0.1819,-0.202,-0.217,-0.217,-0.217,-0.217,-0.197,-0.1869,-0.1869,-0.1667,-0.1818,-0.2119,-0.217,-0.217,-0.217,-0.197,-0.1869,-0.1869,-0.1667,-0.1566,-0.1566,-0.1566,-0.1566,-0.1566,-0.1566,-0.1617,-0.1718,-0.217,-0.2522,-0.2826,-0.3079,-0.3482,-0.3934,-0.3984,-0.4284,-0.4734,-0.4782,-0.4782,-0.4782,-0.4782,-0.4782,-0.4782,-0.4782,-0.4782,-0.4782,-0.4782,-0.4782,-0.4782,-0.4782,-0.4782,-0.4782,-0.4782,-0.4782,-0.4782,-0.4782,-0.4782,-0.4782,-0.4782,-0.4782,-0.4782,-0.4782,-0.4782,-0.4782,-0.4782,-0.4782,-0.4782,-0.4782,-0.4782,-0.4782,-0.4782,-0.4873,-0.4957,-0.5023,-0.5039,-0.5184,-0.5152,-0.5233,-0.5288,-0.5241,-0.5152,-0.5144,-0.5157,-0.5145,-0.5194,-0.5154,-0.517,-0.5296,-0.5318,-0.5337,-0.5345,-0.5361,-0.5357,-0.5296,-0.5296,-0.5282,-0.5253,-0.5167,-0.5104,-0.5128,-0.5065,-0.5016,-0.5096,-0.5039,-0.5022,-0.5045,-0.5028,-0.5028,-0.5065,-0.5151,-0.52,-0.5247,-0.5347,-0.5373,-0.1566,-0.1566,-0.1617,-0.1617,-0.1617,-0.1667,-0.1667,-0.1667,-0.1617,-0.1617,-0.1617,-0.1617,-0.1617,-0.1667,-0.1667,-0.1617,-0.1667,-0.1667,-0.1667,-0.1617,-0.1617,-0.1566,-0.1566,-0.1566,-0.1566,-0.1566,-0.1566,-0.1718,-0.197,-0.2271,-0.2522,-0.2826,-0.3079,-0.3481,-0.3934,-0.4034,-0.4284,-0.4734,-0.4782,-0.4782,-0.4782,-0.4782,-0.4782,-0.4782,-0.4782,-0.4782,-0.4782,-0.4782,-0.4782,-0.4782,-0.4782,-0.4782,-0.4782,-0.4782,-0.4782,-0.4782,-0.4782,-0.4782,-0.4782,-0.4782,-0.4782,-0.4782,-0.4782,-0.4782,-0.4782,-0.4782,-0.4782,-0.4782,-0.4782,-0.4782,-0.4782,-0.4782,-0.4867,-0.4947,-0.5019,-0.501,-0.51,-0.5114,-0.5112,-0.513,-0.5126,-0.5108,-0.511,-0.5112,-0.5096,-0.5108,-0.5114,-0.5124,-0.5153,-0.5206,-0.5245,-0.5221,-0.532,-0.5377,-0.5371,-0.5353,-0.5359,-0.5333,-0.5263,-0.5212,-0.5146,-0.5122,-0.5135,-0.5106,-0.5088,-0.5084,-0.5096,-0.511,-0.5128,-0.5103,-0.5136,-0.5207,-0.5243,-0.5355,-0.5382,-0.1566,-0.1566,-0.1566,-0.1566,-0.1566,-0.1566,-0.1566,-0.1566,-0.1566,-0.1566,-0.1566,-0.1566,-0.1566,-0.1566,-0.1566,-0.1566,-0.1566,-0.1566,-0.1566,-0.1566,-0.1566,-0.1566,-0.1566,-0.1566,-0.1566,-0.1566,-0.1566,-0.1819,-0.2221,-0.2522,-0.2775,-0.3029,-0.3332,-0.3633,-0.3984,-0.4187,-0.4437,-0.4734,-0.4782,-0.4782,-0.4782,-0.4782,-0.4782,-0.4782,-0.4782,-0.4782,-0.4782,-0.4782,-0.4782,-0.4782,-0.4782,-0.4782,-0.4782,-0.4782,-0.4782,-0.4782,-0.4782,-0.4782,-0.4782,-0.4782,-0.4782,-0.4782,-0.4782,-0.4782,-0.4782,-0.4782,-0.4782,-0.4782,-0.4782,-0.4782,-0.4782,-0.4782,-0.4798,-0.4825,-0.4885,-0.4922,-0.4996,-0.5022,-0.5041,-0.5081,-0.5061,-0.5,-0.4957,-0.4934,-0.4957,-0.5008,-0.502,-0.5043,-0.5096,-0.5139,-0.5173,-0.5176,-0.5219,-0.5314,-0.538,-0.538,-0.5375,-0.5353,-0.531,-0.5257,-0.5176,-0.5184,-0.5139,-0.5147,-0.5137,-0.5139,-0.5147,-0.5149,-0.5175,-0.5124,-0.516,-0.5219,-0.5231,-0.5347,-0.5375,-0.1566,-0.1566,-0.1566,-0.1566,-0.1566,-0.1566,-0.1566,-0.1566,-0.1566,-0.1566,-0.1566,-0.1566,-0.1566,-0.1566,-0.1566,-0.1566,-0.1566,-0.1566,-0.1566,-0.1566,-0.1566,-0.1566,-0.1566,-0.1566,-0.1566,-0.1617,-0.1667,-0.1969,-0.2371,-0.2675,-0.2978,-0.3332,-0.3536,-0.3786,-0.4085,-0.4288,-0.4537,-0.4734,-0.4782,-0.4782,-0.4782,-0.4782,-0.4782,-0.4782,-0.4782,-0.4782,-0.4782,-0.4782,-0.4782,-0.4782,-0.4782,-0.4782,-0.4782,-0.4782,-0.4782,-0.4782,-0.4782,-0.4782,-0.4782,-0.4782,-0.4782,-0.4782,-0.4782,-0.4782,-0.4782,-0.4782,-0.4782,-0.4782,-0.4782,-0.4782,-0.4782,-0.4782,-0.4782,-0.4782,-0.4782,-0.4857,-0.4916,-0.4926,-0.4955,-0.4988,-0.4961,-0.4902,-0.48,-0.4788,-0.4867,-0.4922,-0.4928,-0.4957,-0.5004,-0.5051,-0.5096,-0.5184,-0.5174,-0.529,-0.5353,-0.538,-0.5382,-0.5363,-0.5355,-0.5304,-0.5269,-0.5214,-0.5188,-0.519,-0.5192,-0.5194,-0.5194,-0.5194,-0.5194,-0.5194,-0.5249,-0.5322,-0.5333,-0.5343,-0.5369,-0.1566,-0.1566,-0.1566,-0.1566,-0.1566,-0.1566,-0.1566,-0.1566,-0.1566,-0.1566,-0.1566,-0.1566,-0.1566,-0.1566,-0.1566,-0.1566,-0.1566,-0.1566,-0.1566,-0.1566,-0.1566,-0.1566,-0.1566,-0.1566,-0.1617,-0.1667,-0.1869,-0.2171,-0.2422,-0.2725,-0.3079,-0.3484,-0.3586,-0.3885,-0.439,-0.4438,-0.4537,-0.4734,-0.4782,-0.4782,-0.4782,-0.4782,-0.4782,-0.4782,-0.4782,-0.4782,-0.4782,-0.4782,-0.4782,-0.4782,-0.4782,-0.4782,-0.4782,-0.4782,-0.4782,-0.4782,-0.4782,-0.4782,-0.4782,-0.4782,-0.4782,-0.4782,-0.4782,-0.4782,-0.4782,-0.4782,-0.4782,-0.4782,-0.4782,-0.4782,-0.4782,-0.4782,-0.4782,-0.4782,-0.4782,-0.4788,-0.4843,-0.4788,-0.4786,-0.4802,-0.48,-0.4788,-0.4784,-0.4782,-0.4794,-0.4798,-0.48,-0.4855,-0.4881,-0.4932,-0.5006,-0.5094,-0.5116,-0.5245,-0.5316,-0.538,-0.5382,-0.538,-0.5377,-0.5355,-0.5347,-0.531,-0.5302,-0.5302,-0.5298,-0.5298,-0.5296,-0.5298,-0.5312,-0.532,-0.5361,-0.5359,-0.5363,-0.5367,-0.5371,-0.1566,-0.1566,-0.1566,-0.1566,-0.1566,-0.1566,-0.1566,-0.1566,-0.1566,-0.1566,-0.1566,-0.1566,-0.1566,-0.1566,-0.1566,-0.1566,-0.1566,-0.1566,-0.1566,-0.1566,-0.1566,-0.1566,-0.1566,-0.1566,-0.1718,-0.1869,-0.2121,-0.2423,-0.2675,-0.2927,-0.3282,-0.3584,-0.3784,-0.4036,-0.4388,-0.4585,-0.4736,-0.4784,-0.4782,-0.4782,-0.4782,-0.4782,-0.4782,-0.4782,-0.4782,-0.4782,-0.4782,-0.4782,-0.4782,-0.4782,-0.4782,-0.4782,-0.4782,-0.4782,-0.4782,-0.4782,-0.4782,-0.4782,-0.4782,-0.4782,-0.4782,-0.4782,-0.4782,-0.4782,-0.4782,-0.4782,-0.4782,-0.4782,-0.4782,-0.4782,-0.4782,-0.4782,-0.4782,-0.4782,-0.4782,-0.4782,-0.4782,-0.4782,-0.4782,-0.4782,-0.4782,-0.4782,-0.4782,-0.4782,-0.4782,-0.4782,-0.4782,-0.4782,-0.479,-0.4863,-0.4912,-0.5,-0.5092,-0.513,-0.5251,-0.531,-0.5337,-0.5357,-0.5371,-0.5382,-0.5382,-0.5382,-0.5382,-0.5382,-0.5382,-0.5382,-0.5382,-0.5382,-0.5382,-0.5382,-0.5375,-0.5375,-0.5382,-0.5382,-0.5382,-0.1566,-0.1566,-0.1566,-0.1566,-0.1566,-0.1566,-0.1566,-0.1566,-0.1566,-0.1566,-0.1566,-0.1566,-0.1566,-0.1566,-0.1566,-0.1566,-0.1566,-0.1566,-0.1566,-0.1566,-0.1566,-0.1566,-0.1566,-0.1566,-0.1718,-0.2021,-0.2271,-0.2522,-0.2826,-0.318,-0.3484,-0.3734,-0.4034,-0.4286,-0.4537,-0.4734,-0.4782,-0.4782,-0.4782,-0.4782,-0.4782,-0.4782,-0.4782,-0.4782,-0.4782,-0.4782,-0.4782,-0.4782,-0.4782,-0.4782,-0.4782,-0.4782,-0.4782,-0.4782,-0.4782,-0.4782,-0.4782,-0.4782,-0.4782,-0.4782,-0.4782,-0.4782,-0.4782,-0.4782,-0.4782,-0.4782,-0.4782,-0.4782,-0.4782,-0.4782,-0.4782,-0.4782,-0.4782,-0.4782,-0.4782,-0.4782,-0.4782,-0.4782,-0.4782,-0.4782,-0.4782,-0.4782,-0.4782,-0.4782,-0.4782,-0.4782,-0.4782,-0.4782,-0.4782,-0.4784,-0.489,-0.4945,-0.5016,-0.5102,-0.5124,-0.5235,-0.5284,-0.532,-0.5355,-0.5371,-0.5382,-0.5382,-0.5382,-0.5382,-0.5382,-0.5382,-0.5382,-0.5382,-0.5382,-0.5382,-0.5382,-0.5382,-0.5382,-0.5382,-0.5382,-0.1566,-0.1566,-0.1566,-0.1566,-0.1566,-0.1566,-0.1566,-0.1566,-0.1566,-0.1566,-0.1566,-0.1566,-0.1566,-0.1566,-0.1566,-0.1566,-0.1566,-0.1566,-0.1566,-0.1566,-0.1566,-0.1566,-0.1566,-0.1566,-0.1768,-0.207,-0.2321,-0.2573,-0.2876,-0.3332,-0.3736,-0.3984,-0.4237,-0.4537,-0.4684,-0.4782,-0.4782,-0.4782,-0.4782,-0.4782,-0.4782,-0.4782,-0.4782,-0.4782,-0.4782,-0.4782,-0.4782,-0.4782,-0.4782,-0.4782,-0.4782,-0.4782,-0.4782,-0.4782,-0.4782,-0.4782,-0.4782,-0.4782,-0.4782,-0.4782,-0.4782,-0.4782,-0.4782,-0.4782,-0.4782,-0.4782,-0.4782,-0.4782,-0.4782,-0.4782,-0.4782,-0.4782,-0.4782,-0.4782,-0.4782,-0.4782,-0.4782,-0.4782,-0.4782,-0.4782,-0.4782,-0.4782,-0.4782,-0.4782,-0.4782,-0.4782,-0.4782,-0.4782,-0.4782,-0.4794,-0.4877,-0.4922,-0.4967,-0.5022,-0.51,-0.5157,-0.5204,-0.5239,-0.5294,-0.5345,-0.5375,-0.5382,-0.5382,-0.5382,-0.5382,-0.5382,-0.5382,-0.5382,-0.5382,-0.5382,-0.5382,-0.5382,-0.5382,-0.5382,-0.5382,-0.1566,-0.1566,-0.1566,-0.1566,-0.1566,-0.1566,-0.1566,-0.1566,-0.1566,-0.1566,-0.1566,-0.1566,-0.1566,-0.1566,-0.1566,-0.1566,-0.1566,-0.1566,-0.1566,-0.1566,-0.1566,-0.1566,-0.1566,-0.1617,-0.1818,-0.2221,-0.2371,-0.2675,-0.3079,-0.3433,-0.3736,-0.4034,-0.4286,-0.4537,-0.4734,-0.4782,-0.4782,-0.4782,-0.4782,-0.4782,-0.4782,-0.4782,-0.4782,-0.4782,-0.4782,-0.4782,-0.4782,-0.4782,-0.4782,-0.4782,-0.4782,-0.4782,-0.4782,-0.4782,-0.4782,-0.4782,-0.4782,-0.4782,-0.4782,-0.4782,-0.4782,-0.4782,-0.4782,-0.4782,-0.4782,-0.4782,-0.4782,-0.4782,-0.4782,-0.4782,-0.4782,-0.4782,-0.4782,-0.4782,-0.4782,-0.4782,-0.4782,-0.4782,-0.4782,-0.4782,-0.4782,-0.4782,-0.4782,-0.4782,-0.4782,-0.4782,-0.4782,-0.4782,-0.4782,-0.4784,-0.4859,-0.4879,-0.4916,-0.4963,-0.5018,-0.5075,-0.5122,-0.5151,-0.5216,-0.531,-0.5347,-0.5382,-0.5382,-0.5382,-0.5382,-0.5382,-0.5382,-0.5382,-0.5382,-0.5382,-0.5382,-0.5382,-0.5382,-0.5382,-0.5437,-0.1566,-0.1566,-0.1566,-0.1566,-0.1566,-0.1566,-0.1566,-0.1566,-0.1566,-0.1566,-0.1566,-0.1566,-0.1566,-0.1566,-0.1566,-0.1566,-0.1566,-0.1566,-0.1566,-0.1566,-0.1566,-0.1566,-0.1566,-0.1617,-0.1869,-0.2371,-0.2422,-0.2725,-0.318,-0.3583,-0.3835,-0.4034,-0.4384,-0.4638,-0.4784,-0.4782,-0.4782,-0.4782,-0.4782,-0.4782,-0.4782,-0.4782,-0.4782,-0.4782,-0.4782,-0.4782,-0.4782,-0.4782,-0.4782,-0.4782,-0.4782,-0.4782,-0.4782,-0.4782,-0.4782,-0.4782,-0.4782,-0.4782,-0.4782,-0.4782,-0.4782,-0.4782,-0.4782,-0.4782,-0.4782,-0.4782,-0.4782,-0.4782,-0.4782,-0.4782,-0.4782,-0.4782,-0.4782,-0.4782,-0.4782,-0.4782,-0.4782,-0.4782,-0.4782,-0.4782,-0.4782,-0.4782,-0.4782,-0.4782,-0.4782,-0.4782,-0.4782,-0.4782,-0.4782,-0.4782,-0.4786,-0.4857,-0.4867,-0.4902,-0.492,-0.4965,-0.5043,-0.5075,-0.5169,-0.5261,-0.5322,-0.5369,-0.5373,-0.5373,-0.5377,-0.538,-0.5371,-0.5371,-0.5382,-0.5382,-0.5382,-0.5382,-0.5382,-0.5384,-0.5437,-0.1566,-0.1566,-0.1566,-0.1566,-0.1566,-0.1566,-0.1566,-0.1566,-0.1566,-0.1566,-0.1566,-0.1566,-0.1566,-0.1566,-0.1566,-0.1566,-0.1566,-0.1566,-0.1566,-0.1566,-0.1566,-0.1566,-0.1566,-0.1566,-0.1869,-0.2271,-0.2371,-0.2675,-0.3128,-0.3632,-0.3934,-0.4083,-0.4485,-0.4736,-0.4784,-0.4782,-0.4782,-0.4782,-0.4782,-0.4782,-0.4782,-0.4782,-0.4782,-0.4782,-0.4782,-0.4782,-0.4782,-0.4782,-0.4782,-0.4782,-0.4782,-0.4782,-0.4782,-0.4782,-0.4782,-0.4782,-0.4782,-0.4782,-0.4782,-0.4782,-0.4782,-0.4782,-0.4782,-0.4782,-0.4782,-0.4782,-0.4782,-0.4782,-0.4782,-0.4782,-0.4782,-0.4782,-0.4782,-0.4782,-0.4782,-0.4782,-0.4782,-0.4782,-0.4782,-0.4782,-0.4782,-0.4782,-0.4782,-0.4782,-0.4782,-0.4782,-0.4782,-0.4782,-0.4782,-0.4782,-0.4782,-0.4788,-0.479,-0.4788,-0.4794,-0.48,-0.4937,-0.501,-0.5128,-0.5224,-0.5298,-0.5339,-0.5351,-0.5349,-0.5304,-0.5308,-0.5341,-0.5349,-0.5359,-0.5382,-0.5382,-0.5382,-0.5382,-0.5382,-0.5437,-0.1566,-0.1566,-0.1566,-0.1566,-0.1566,-0.1566,-0.1566,-0.1566,-0.1566,-0.1566,-0.1566,-0.1566,-0.1566,-0.1566,-0.1566,-0.1566,-0.1566,-0.1566,-0.1566,-0.1566,-0.1566,-0.1566,-0.1566,-0.1566,-0.1768,-0.207,-0.2321,-0.2573,-0.2977,-0.3432,-0.3784,-0.4034,-0.4336,-0.4585,-0.4784,-0.4782,-0.4782,-0.4782,-0.4782,-0.4782,-0.4782,-0.4782,-0.4782,-0.4782,-0.4782,-0.4782,-0.4782,-0.4782,-0.4782,-0.4782,-0.4782,-0.4782,-0.4782,-0.4782,-0.4782,-0.4782,-0.4782,-0.4782,-0.4786,-0.4792,-0.4784,-0.4792,-0.4796,-0.4782,-0.4782,-0.4782,-0.4782,-0.4782,-0.4782,-0.4782,-0.4782,-0.4782,-0.4782,-0.4782,-0.4782,-0.4782,-0.4782,-0.4782,-0.4782,-0.4782,-0.4782,-0.4782,-0.4782,-0.4782,-0.4782,-0.4782,-0.4782,-0.4782,-0.4782,-0.4782,-0.4782,-0.4782,-0.4782,-0.4782,-0.4782,-0.4792,-0.4902,-0.4983,-0.5094,-0.5169,-0.5243,-0.5273,-0.5273,-0.5245,-0.52,-0.5228,-0.5286,-0.5294,-0.5298,-0.5339,-0.5382,-0.5382,-0.5382,-0.5382,-0.5549,-0.1566,-0.1566,-0.1566,-0.1566,-0.1566,-0.1566,-0.1566,-0.1566,-0.1566,-0.1566,-0.1566,-0.1566,-0.1566,-0.1566,-0.1566,-0.1566,-0.1566,-0.1566,-0.1566,-0.1566,-0.1566,-0.1566,-0.1566,-0.1617,-0.1768,-0.2022,-0.2271,-0.2522,-0.2876,-0.3331,-0.3736,-0.3984,-0.4237,-0.4537,-0.4734,-0.4782,-0.4782,-0.4782,-0.4782,-0.4782,-0.4782,-0.4782,-0.4782,-0.4782,-0.4782,-0.4782,-0.4782,-0.4782,-0.4782,-0.4782,-0.4782,-0.4782,-0.4782,-0.4782,-0.4782,-0.4782,-0.4782,-0.4811,-0.4883,-0.49,-0.4902,-0.4898,-0.4898,-0.4869,-0.4798,-0.4782,-0.4782,-0.4782,-0.4782,-0.4782,-0.4782,-0.4782,-0.4782,-0.4782,-0.4782,-0.4782,-0.4782,-0.4782,-0.4782,-0.4782,-0.4782,-0.4782,-0.4782,-0.4782,-0.4782,-0.4782,-0.4782,-0.4782,-0.4782,-0.4782,-0.4782,-0.4782,-0.4782,-0.4782,-0.4782,-0.4802,-0.4841,-0.4973,-0.5067,-0.512,-0.5167,-0.5179,-0.5179,-0.5149,-0.5126,-0.513,-0.5178,-0.518,-0.5263,-0.5339,-0.538,-0.5382,-0.5382,-0.5382,-0.5661,-0.1566,-0.1566,-0.1566,-0.1566,-0.1566,-0.1566,-0.1566,-0.1566,-0.1566,-0.1566,-0.1566,-0.1566,-0.1566,-0.1566,-0.1566,-0.1566,-0.1566,-0.1566,-0.1566,-0.1566,-0.1566,-0.1566,-0.1566,-0.1617,-0.1718,-0.1971,-0.2271,-0.2522,-0.2826,-0.323,-0.3583,-0.3935,-0.4187,-0.4437,-0.4636,-0.4784,-0.4782,-0.4782,-0.4782,-0.4782,-0.4782,-0.4782,-0.4782,-0.4782,-0.4782,-0.4782,-0.4782,-0.4782,-0.4782,-0.4782,-0.4782,-0.4782,-0.4782,-0.4782,-0.4796,-0.4802,-0.4817,-0.491,-0.4975,-0.4992,-0.4992,-0.4994,-0.4992,-0.4947,-0.4888,-0.4813,-0.4802,-0.4788,-0.4782,-0.4782,-0.4782,-0.4782,-0.4782,-0.4782,-0.4782,-0.4782,-0.4782,-0.4782,-0.4782,-0.4782,-0.4782,-0.4782,-0.4782,-0.4782,-0.4782,-0.4782,-0.4782,-0.4782,-0.4782,-0.4782,-0.4782,-0.4782,-0.4782,-0.4782,-0.4782,-0.479,-0.4833,-0.4949,-0.5041,-0.5061,-0.5088,-0.5086,-0.5086,-0.5079,-0.5081,-0.5063,-0.5099,-0.5175,-0.5228,-0.5331,-0.5377,-0.5382,-0.5382,-0.5382,-0.5717,-0.1566,-0.1566,-0.1566,-0.1566,-0.1566,-0.1566,-0.1566,-0.1566,-0.1566,-0.1566,-0.1566,-0.1566,-0.1566,-0.1566,-0.1566,-0.1566,-0.1566,-0.1566,-0.1566,-0.1566,-0.1566,-0.1566,-0.1566,-0.1566,-0.1617,-0.1768,-0.212,-0.2422,-0.2573,-0.2977,-0.3432,-0.3685,-0.3935,-0.4185,-0.4487,-0.4686,-0.4734,-0.4734,-0.4784,-0.4782,-0.4782,-0.4782,-0.4782,-0.4782,-0.4782,-0.479,-0.479,-0.4788,-0.4782,-0.4782,-0.4784,-0.4788,-0.4802,-0.4802,-0.4883,-0.4922,-0.4947,-0.4988,-0.5067,-0.5084,-0.5086,-0.5086,-0.5084,-0.5041,-0.4975,-0.4893,-0.4816,-0.476,-0.474,-0.4782,-0.4782,-0.4744,-0.4788,-0.4786,-0.4752,-0.4754,-0.4752,-0.4756,-0.4704,-0.4704,-0.4746,-0.4782,-0.4782,-0.4782,-0.4782,-0.4782,-0.4782,-0.4782,-0.4782,-0.4782,-0.4782,-0.4782,-0.4782,-0.4782,-0.4782,-0.479,-0.4865,-0.4922,-0.4983,-0.4988,-0.5004,-0.4998,-0.4992,-0.4988,-0.4969,-0.4965,-0.5014,-0.509,-0.5179,-0.5269,-0.5324,-0.5375,-0.5382,-0.5437,-0.5661,-0.1566,-0.1566,-0.1566,-0.1566,-0.1566,-0.1566,-0.1566,-0.1566,-0.1566,-0.1566,-0.1566,-0.1566,-0.1566,-0.1566,-0.1566,-0.1566,-0.1566,-0.1566,-0.1566,-0.1566,-0.1566,-0.1566,-0.1566,-0.1566,-0.1566,-0.1718,-0.1969,-0.227,-0.2422,-0.2775,-0.318,-0.3536,-0.3736,-0.3935,-0.4185,-0.4437,-0.4587,-0.4585,-0.4684,-0.4782,-0.4782,-0.4782,-0.4782,-0.4782,-0.479,-0.4808,-0.4902,-0.4906,-0.4932,-0.4967,-0.4977,-0.4975,-0.492,-0.4924,-0.4973,-0.4986,-0.5018,-0.5081,-0.5105,-0.5124,-0.507,-0.4962,-0.4909,-0.4813,-0.465,-0.4564,-0.4527,-0.4462,-0.4396,-0.4383,-0.4383,-0.442,-0.4444,-0.4455,-0.4479,-0.4503,-0.4508,-0.4507,-0.4483,-0.4497,-0.462,-0.4704,-0.4782,-0.4782,-0.4782,-0.4782,-0.4784,-0.4734,-0.4734,-0.4734,-0.4734,-0.4782,-0.4782,-0.4782,-0.4782,-0.4788,-0.4792,-0.4896,-0.4932,-0.4937,-0.4937,-0.4939,-0.492,-0.4904,-0.4877,-0.4819,-0.4937,-0.5032,-0.512,-0.515,-0.5209,-0.5316,-0.5361,-0.5493,-0.5714,-0.1566,-0.1566,-0.1566,-0.1566,-0.1566,-0.1566,-0.1566,-0.1566,-0.1566,-0.1566,-0.1566,-0.1566,-0.1566,-0.1566,-0.1566,-0.1566,-0.1566,-0.1566,-0.1566,-0.1566,-0.1566,-0.1566,-0.1566,-0.1566,-0.1566,-0.1617,-0.1768,-0.207,-0.2422,-0.2675,-0.3079,-0.3383,-0.3536,-0.3685,-0.3934,-0.4185,-0.4288,-0.4386,-0.4587,-0.4734,-0.4784,-0.4782,-0.4782,-0.479,-0.4853,-0.49,-0.5004,-0.499,-0.5026,-0.5069,-0.5092,-0.5098,-0.5108,-0.5124,-0.5102,-0.5055,-0.51,-0.5124,-0.5134,-0.5107,-0.4941,-0.4613,-0.4613,-0.4405,-0.4071,-0.387,-0.3885,-0.3836,-0.3875,-0.3844,-0.3864,-0.3904,-0.3938,-0.3969,-0.3954,-0.3989,-0.3976,-0.3965,-0.3941,-0.411,-0.4362,-0.4423,-0.4409,-0.4533,-0.4433,-0.4433,-0.4433,-0.4433,-0.4433,-0.4636,-0.4636,-0.4734,-0.4782,-0.4782,-0.4782,-0.4782,-0.4786,-0.4804,-0.4885,-0.4896,-0.4894,-0.4894,-0.4871,-0.4859,-0.48,-0.4806,-0.4918,-0.5019,-0.5043,-0.5118,-0.5142,-0.5204,-0.5304,-0.5404,-0.5588,-0.1566,-0.1566,-0.1566,-0.1566,-0.1566,-0.1566,-0.1566,-0.1566,-0.1566,-0.1566,-0.1566,-0.1566,-0.1566,-0.1566,-0.1566,-0.1566,-0.1566,-0.1566,-0.1566,-0.1566,-0.1566,-0.1566,-0.1566,-0.1566,-0.1566,-0.1617,-0.1667,-0.1969,-0.2322,-0.2624,-0.2927,-0.323,-0.3433,-0.3636,-0.3685,-0.3935,-0.4034,-0.4083,-0.4336,-0.4587,-0.4736,-0.4784,-0.4782,-0.4802,-0.4904,-0.4959,-0.4996,-0.5049,-0.5055,-0.5067,-0.5067,-0.5059,-0.5118,-0.5134,-0.5164,-0.5162,-0.5176,-0.5101,-0.5002,-0.4903,-0.4623,-0.4233,-0.4071,-0.3707,-0.3323,-0.3033,-0.2987,-0.2959,-0.3114,-0.3205,-0.3234,-0.3311,-0.3343,-0.3329,-0.3312,-0.3318,-0.3368,-0.3239,-0.322,-0.3248,-0.342,-0.3668,-0.3778,-0.3954,-0.4083,-0.4083,-0.4083,-0.4085,-0.4133,-0.4284,-0.4384,-0.4433,-0.4583,-0.4583,-0.4684,-0.4684,-0.4734,-0.4734,-0.4796,-0.4863,-0.4863,-0.4861,-0.48,-0.4788,-0.4782,-0.4784,-0.4871,-0.4918,-0.4971,-0.5037,-0.5114,-0.5132,-0.5194,-0.5345,-0.5429,-0.1313,-0.1566,-0.1566,-0.1566,-0.1566,-0.1566,-0.1566,-0.1566,-0.1566,-0.1566,-0.1566,-0.1566,-0.1566,-0.1566,-0.1566,-0.1566,-0.1566,-0.1566,-0.1566,-0.1566,-0.1566,-0.1566,-0.1566,-0.1566,-0.1566,-0.1566,-0.1617,-0.1819,-0.2121,-0.2323,-0.2526,-0.2927,-0.3079,-0.323,-0.3383,-0.3635,-0.3736,-0.3885,-0.4189,-0.4438,-0.4587,-0.4736,-0.4782,-0.4788,-0.4924,-0.499,-0.5002,-0.4973,-0.4994,-0.4969,-0.4877,-0.4766,-0.4771,-0.4746,-0.4709,-0.449,-0.449,-0.4618,-0.4812,-0.4538,-0.4091,-0.3586,-0.3306,-0.2957,-0.2485,-0.2224,-0.2124,-0.2159,-0.2227,-0.232,-0.2336,-0.2354,-0.2389,-0.2419,-0.2498,-0.251,-0.2513,-0.2465,-0.2413,-0.2394,-0.2427,-0.2702,-0.2969,-0.3202,-0.3331,-0.3455,-0.3451,-0.3497,-0.3589,-0.3781,-0.3882,-0.3981,-0.4182,-0.4334,-0.4437,-0.4537,-0.4636,-0.4686,-0.4784,-0.4796,-0.479,-0.4786,-0.4782,-0.4782,-0.4782,-0.4786,-0.4839,-0.4865,-0.4912,-0.4971,-0.5035,-0.5098,-0.5103,-0.5171,-0.5293,-0.096,-0.1414,-0.1516,-0.1566,-0.1566,-0.1566,-0.1566,-0.1566,-0.1566,-0.1566,-0.1566,-0.1566,-0.1566,-0.1566,-0.1566,-0.1566,-0.1566,-0.1566,-0.1566,-0.1566,-0.1566,-0.1566,-0.1566,-0.1566,-0.1566,-0.1566,-0.1566,-0.1718,-0.1819,-0.197,-0.2222,-0.2675,-0.2725,-0.2876,-0.3079,-0.3281,-0.3433,-0.3687,-0.4086,-0.4288,-0.4438,-0.4686,-0.4784,-0.4811,-0.4924,-0.5014,-0.4945,-0.4864,-0.4837,-0.4623,-0.4522,-0.4347,-0.4298,-0.4131,-0.4023,-0.3795,-0.3675,-0.3661,-0.3841,-0.3682,-0.3304,-0.2801,-0.2185,-0.1679,-0.1285,-0.1214,-0.1144,-0.1072,-0.1266,-0.1311,-0.1316,-0.1438,-0.1565,-0.1589,-0.1609,-0.1564,-0.1569,-0.156,-0.1611,-0.1659,-0.1646,-0.1579,-0.1931,-0.2277,-0.2561,-0.2728,-0.2812,-0.2857,-0.2951,-0.3099,-0.3238,-0.334,-0.353,-0.3781,-0.4083,-0.4234,-0.4384,-0.4535,-0.4636,-0.4686,-0.4686,-0.4734,-0.4782,-0.4782,-0.4782,-0.4784,-0.4786,-0.4792,-0.4802,-0.491,-0.4963,-0.5008,-0.5051,-0.5065,-0.5149,-0.0606,-0.0909,-0.1414,-0.1566,-0.1566,-0.1566,-0.1566,-0.1566,-0.1566,-0.1566,-0.1566,-0.1566,-0.1566,-0.1566,-0.1566,-0.1566,-0.1566,-0.1566,-0.1566,-0.1566,-0.1566,-0.1566,-0.1566,-0.1566,-0.1566,-0.1566,-0.1566,-0.1617,-0.1667,-0.1718,-0.1969,-0.2321,-0.2372,-0.2574,-0.2775,-0.2927,-0.323,-0.3484,-0.3885,-0.4137,-0.4336,-0.4585,-0.4736,-0.4802,-0.4924,-0.491,-0.4731,-0.4653,-0.4459,-0.4086,-0.3924,-0.3755,-0.3474,-0.3362,-0.3137,-0.2953,-0.2599,-0.2474,-0.2472,-0.2653,-0.229,-0.1512,-0.0785,-0.0336,-0.0112,0.0221,0.0328,0.0109,-0.0268,-0.0429,-0.054,-0.071,-0.0767,-0.0776,-0.0726,-0.0727,-0.0729,-0.0785,-0.0839,-0.0895,-0.0891,-0.0718,-0.0715,-0.1085,-0.1652,-0.1836,-0.1932,-0.1981,-0.2071,-0.2218,-0.2453,-0.2594,-0.278,-0.3077,-0.3528,-0.3679,-0.3729,-0.4033,-0.4234,-0.4386,-0.4489,-0.4587,-0.4686,-0.4782,-0.4782,-0.4782,-0.4784,-0.4788,-0.4796,-0.4859,-0.4894,-0.4941,-0.4963,-0.4975,-0.5037,-0.0151,-0.0606,-0.1162,-0.1465,-0.1566,-0.1566,-0.1566,-0.1566,-0.1566,-0.1566,-0.1566,-0.1566,-0.1566,-0.1566,-0.1566,-0.1566,-0.1566,-0.1566,-0.1566,-0.1566,-0.1566,-0.1566,-0.1566,-0.1566,-0.1566,-0.1566,-0.1566,-0.1566,-0.1617,-0.1566,-0.1667,-0.1869,-0.207,-0.2322,-0.2473,-0.2725,-0.3029,-0.3331,-0.3633,-0.3885,-0.4135,-0.4234,-0.4485,-0.479,-0.4515,-0.4598,-0.4572,-0.4167,-0.3854,-0.3457,-0.3136,-0.2859,-0.2578,-0.2354,-0.2231,-0.1992,-0.1589,-0.1251,-0.1079,-0.141,-0.1418,-0.0608,0.0111,0.0617,0.0729,0.0724,0.0717,0.0603,0.0544,0.0327,0.0327,0.0273,0.0275,0.0223,0.0112,0.0112,0.0056,-0.0056,-0.0056,-0.0112,0.0056,0.0279,0.0278,0.0222,-0.0381,-0.0963,-0.1014,-0.1117,-0.1215,-0.131,-0.1507,-0.1699,-0.1893,-0.2238,-0.2693,-0.2887,-0.3079,-0.3439,-0.3797,-0.4062,-0.4226,-0.439,-0.4539,-0.4636,-0.4798,-0.4813,-0.4813,-0.4792,-0.4796,-0.4869,-0.4869,-0.4823,-0.4885,-0.4914,-0.5002,0.0151,-0.0455,-0.1061,-0.1415,-0.1566,-0.1566,-0.1566,-0.1566,-0.1566,-0.1566,-0.1566,-0.1566,-0.1566,-0.1566,-0.1566,-0.1566,-0.1566,-0.1566,-0.1566,-0.1566,-0.1566,-0.1566,-0.1566,-0.1566,-0.1566,-0.1566,-0.1566,-0.1566,-0.1566,-0.1566,-0.1617,-0.1667,-0.1768,-0.202,-0.2272,-0.2624,-0.2877,-0.313,-0.3433,-0.3685,-0.3885,-0.4085,-0.4234,-0.464,-0.444,-0.4348,-0.4316,-0.3911,-0.3326,-0.2877,-0.2401,-0.1962,-0.1627,-0.1343,-0.1167,-0.0879,-0.0543,-0.0162,-0.0053,-0.0107,-0.0323,0.0329,0.0667,0.1007,0.1121,0.1177,0.1225,0.1161,0.1102,0.1046,0.0991,0.0828,0.072,0.056,0.0617,0.0561,0.0617,0.0561,0.0617,0.0673,0.0785,0.0785,0.0728,0.0614,0.0388,-0.0055,-0.0055,-0.0109,-0.0161,-0.032,-0.0476,-0.0681,-0.0883,-0.1343,-0.1797,-0.201,-0.2276,-0.2955,-0.3318,-0.3824,-0.4023,-0.4247,-0.4555,-0.4852,-0.4957,-0.4922,-0.4879,-0.4905,-0.4926,-0.4888,-0.4908,-0.4891,-0.4965,-0.501,-0.5051,0.0303,-0.0505,-0.1263,-0.1617,-0.1617,-0.1617,-0.1617,-0.1617,-0.1566,-0.1566,-0.1566,-0.1566,-0.1566,-0.1566,-0.1566,-0.1566,-0.1566,-0.1566,-0.1566,-0.1566,-0.1566,-0.1566,-0.1566,-0.1566,-0.1566,-0.1566,-0.1566,-0.1566,-0.1566,-0.1566,-0.1566,-0.162,-0.1672,-0.1826,-0.2074,-0.2528,-0.2779,-0.288,-0.3347,-0.3553,-0.3748,-0.4001,-0.4203,-0.4392,-0.43,-0.4199,-0.4117,-0.3644,-0.3007,-0.2346,-0.1935,-0.1499,-0.1001,-0.0445,-0.0221,-0.0109,0.043,0.0741,0.0783,0.0805,0.0923,0.1037,0.1217,0.1401,0.1627,0.1738,0.1682,0.1559,0.1451,0.1286,0.1231,0.112,0.1064,0.1009,0.1065,0.1065,0.1065,0.1121,0.1121,0.1177,0.1009,0.0897,0.0897,0.0897,0.0953,0.0838,0.0896,0.0833,0.0658,0.0487,0.0268,0.0107,-0.0158,-0.0525,-0.0995,-0.1161,-0.1537,-0.2229,-0.291,-0.3418,-0.3992,-0.4404,-0.4732,-0.5027,-0.5055,-0.5012,-0.5051,-0.5098,-0.5057,-0.5022,-0.5039,-0.5067,-0.5084,-0.5096,-0.5124,0.0404,-0.0202,-0.1162,-0.1718,-0.1869,-0.1869,-0.1768,-0.1617,-0.1566,-0.1566,-0.1566,-0.1566,-0.1566,-0.1566,-0.1566,-0.1566,-0.1566,-0.1566,-0.1566,-0.1566,-0.1566,-0.1566,-0.1566,-0.1566,-0.1566,-0.1566,-0.1566,-0.1566,-0.1566,-0.1566,-0.1566,-0.1619,-0.1638,-0.18,-0.2117,-0.2489,-0.2722,-0.2985,-0.3297,-0.3545,-0.3654,-0.3747,-0.3933,-0.4347,-0.4092,-0.397,-0.4032,-0.3446,-0.2749,-0.2038,-0.1575,-0.1035,-0.049,0.0054,0.027,0.0372,0.084,0.1203,0.1305,0.1379,0.1341,0.141,0.1489,0.1625,0.1795,0.1795,0.1795,0.1795,0.1683,0.157,0.157,0.1569,0.1514,0.1514,0.157,0.157,0.157,0.157,0.157,0.157,0.1514,0.1458,0.1402,0.129,0.129,0.1234,0.1177,0.1065,0.0888,0.0823,0.0651,0.0594,0.0376,0.0107,-0.0213,-0.0591,-0.1237,-0.204,-0.2671,-0.3185,-0.3773,-0.4495,-0.4809,-0.5081,-0.5065,-0.5108,-0.5145,-0.5173,-0.513,-0.5124,-0.5171,-0.5151,-0.5141,-0.5149,-0.5169,0.0606,-0.0202,-0.1111,-0.1667,-0.1971,-0.2122,-0.1969,-0.1768,-0.1718,-0.1718,-0.1617,-0.1566,-0.1566,-0.1566,-0.1566,-0.1566,-0.1566,-0.1566,-0.1566,-0.1566,-0.1566,-0.1566,-0.1566,-0.1566,-0.1566,-0.1566,-0.1566,-0.1566,-0.1566,-0.1566,-0.1624,-0.164,-0.1714,-0.1892,-0.2166,-0.2446,-0.271,-0.2973,-0.3287,-0.3438,-0.3508,-0.3587,-0.371,-0.3929,-0.391,-0.3807,-0.3744,-0.3311,-0.2659,-0.1949,-0.1326,-0.0799,-0.0266,0.016,0.0475,0.0731,0.1194,0.1609,0.1772,0.1704,0.1616,0.1513,0.1714,0.1791,0.1795,0.1795,0.1795,0.1795,0.1795,0.1795,0.1795,0.1795,0.1795,0.1795,0.1795,0.1739,0.1739,0.1739,0.1739,0.1795,0.1795,0.1795,0.1795,0.1795,0.1683,0.157,0.1458,0.129,0.1121,0.111,0.1045,0.0932,0.0712,0.0382,0.0055,-0.0273,-0.0982,-0.1846,-0.2489,-0.3075,-0.3909,-0.4651,-0.4893,-0.5146,-0.5166,-0.5235,-0.523,-0.5245,-0.5263,-0.5267,-0.5259,-0.5235,-0.5204,-0.5216,-0.5239,0.0807,-0.0404,-0.096,-0.1516,-0.197,-0.2322,-0.2271,-0.2021,-0.197,-0.1869,-0.1617,-0.1617,-0.1566,-0.1566,-0.1566,-0.1566,-0.1566,-0.1566,-0.1566,-0.1566,-0.1566,-0.1566,-0.1566,-0.1566,-0.1566,-0.1566,-0.1566,-0.1566,-0.1566,-0.1566,-0.163,-0.171,-0.1683,-0.1921,-0.2151,-0.2484,-0.2744,-0.302,-0.329,-0.344,-0.3466,-0.3568,-0.3589,-0.3758,-0.3772,-0.3696,-0.3613,-0.3281,-0.2786,-0.2238,-0.1733,-0.1164,-0.0532,0.0106,0.0632,0.1199,0.1812,0.2023,0.2041,0.1879,0.1799,0.1698,0.1777,0.1791,0.1795,0.1795,0.1795,0.1795,0.1795,0.1795,0.1795,0.1795,0.1795,0.1795,0.1795,0.1795,0.1795,0.1795,0.1795,0.1795,0.1795,0.1795,0.1795,0.1795,0.1795,0.1739,0.1627,0.1627,0.1514,0.1458,0.1336,0.1114,0.0946,0.067,0.0279,-0.0166,-0.0941,-0.1874,-0.249,-0.3153,-0.3952,-0.4729,-0.5036,-0.5249,-0.5351,-0.5357,-0.5318,-0.5324,-0.5353,-0.5351,-0.5322,-0.532,-0.529,-0.5312,-0.5335,0.0859,0.0101,-0.0808,-0.1515,-0.2069,-0.2675,-0.2725,-0.227,-0.2071,-0.192,-0.1869,-0.1667,-0.1566,-0.1566,-0.1566,-0.1566,-0.1566,-0.1566,-0.1566,-0.1566,-0.1566,-0.1566,-0.1566,-0.1566,-0.1566,-0.1566,-0.1566,-0.1566,-0.1566,-0.1566,-0.1633,-0.1662,-0.1687,-0.1878,-0.2176,-0.2476,-0.275,-0.3081,-0.3352,-0.3447,-0.3412,-0.3468,-0.3479,-0.3427,-0.3576,-0.3497,-0.3293,-0.3249,-0.2804,-0.2349,-0.1843,-0.1284,-0.077,0.0,0.0715,0.1687,0.2111,0.2346,0.2169,0.2107,0.2033,0.1886,0.1846,0.1792,0.1795,0.1795,0.1795,0.1795,0.1795,0.1795,0.1795,0.1795,0.1795,0.1795,0.1795,0.1795,0.1795,0.1795,0.1795,0.1795,0.1795,0.1795,0.1795,0.1795,0.1795,0.1795,0.1795,0.1795,0.1739,0.1627,0.1458,0.1234,0.0841,0.0448,0.0168,-0.0279,-0.1063,-0.1848,-0.2578,-0.3305,-0.4137,-0.4806,-0.5152,-0.5326,-0.5382,-0.5382,-0.5373,-0.5382,-0.5382,-0.5382,-0.5363,-0.5373,-0.5382,-0.5382,-0.5382,0.0909,0.0303,-0.0505,-0.1313,-0.2068,-0.2725,-0.2876,-0.2624,-0.2322,-0.2122,-0.197,-0.1718,-0.1566,-0.1566,-0.1566,-0.1566,-0.1566,-0.1566,-0.1566,-0.1566,-0.1566,-0.1566,-0.1566,-0.1566,-0.1566,-0.1566,-0.1566,-0.1566,-0.1566,-0.162,-0.1632,-0.1713,-0.1735,-0.1916,-0.2161,-0.2354,-0.2599,-0.2941,-0.3281,-0.3448,-0.3413,-0.3312,-0.315,-0.2988,-0.3141,-0.3057,-0.2827,-0.2826,-0.2725,-0.2271,-0.1768,-0.1364,-0.0657,0.0202,0.1162,0.2082,0.2489,0.2576,0.2506,0.2455,0.2216,0.2068,0.1963,0.1907,0.1851,0.1795,0.1795,0.1795,0.1795,0.1795,0.1795,0.1795,0.1795,0.1795,0.1795,0.1795,0.1795,0.1795,0.1795,0.1795,0.1795,0.1795,0.1795,0.1795,0.1795,0.1795,0.1795,0.1795,0.1683,0.1514,0.1346,0.1121,0.0617,0.0168,-0.0168,-0.0561,-0.1346,-0.2187,-0.3026,-0.3754,-0.4426,-0.4875,-0.527,-0.5382,-0.5382,-0.5382,-0.5382,-0.5382,-0.5382,-0.5382,-0.5382,-0.5382,-0.5382,-0.5382,-0.5382,0.096,0.0404,-0.0151,-0.1009,-0.1967,-0.2472,-0.2826,-0.3029,-0.2472,-0.217,-0.197,-0.1718,-0.1516,-0.1415,-0.1465,-0.1516,-0.1516,-0.1566,-0.1566,-0.1566,-0.1566,-0.1566,-0.1566,-0.1566,-0.1566,-0.1566,-0.1566,-0.1566,-0.1566,-0.1619,-0.163,-0.171,-0.1717,-0.1838,-0.2075,-0.2219,-0.2405,-0.2642,-0.305,-0.3284,-0.3118,-0.2976,-0.2766,-0.2289,-0.2404,-0.2469,-0.2129,-0.217,-0.2424,-0.202,-0.1566,-0.1162,-0.0252,0.0757,0.1715,0.2351,0.2771,0.2866,0.2856,0.2751,0.2563,0.2354,0.2244,0.2075,0.1963,0.1851,0.1795,0.1795,0.1795,0.1795,0.1795,0.1795,0.1795,0.1795,0.1795,0.1795,0.1795,0.1795,0.1795,0.1795,0.1795,0.1795,0.1795,0.1795,0.1795,0.1795,0.1795,0.1795,0.1627,0.1458,0.1234,0.0953,0.0392,-0.0112,-0.0504,-0.0953,-0.1627,-0.2467,-0.3307,-0.3923,-0.4424,-0.4875,-0.5382,-0.5382,-0.5382,-0.5382,-0.5382,-0.5382,-0.5382,-0.5382,-0.5382,-0.5382,-0.5382,-0.5382,-0.5382,0.1313,0.0909,0.0,-0.0808,-0.1414,-0.1967,-0.2118,-0.1967,-0.1869,-0.1869,-0.1918,-0.1515,-0.1162,-0.1061,-0.1212,-0.1263,-0.1364,-0.1516,-0.1566,-0.1617,-0.1617,-0.1667,-0.1617,-0.1617,-0.1617,-0.1566,-0.1566,-0.1617,-0.1617,-0.1618,-0.1619,-0.163,-0.1645,-0.1769,-0.1882,-0.202,-0.2208,-0.2335,-0.2519,-0.2769,-0.2677,-0.2425,-0.217,-0.1706,-0.1571,-0.134,-0.1068,-0.106,-0.1312,-0.1261,-0.0909,-0.0353,0.0404,0.1362,0.2033,0.2476,0.2995,0.3152,0.3148,0.3037,0.2853,0.258,0.2412,0.2244,0.2075,0.1907,0.1795,0.1795,0.1795,0.1795,0.1795,0.1795,0.1795,0.1795,0.1795,0.1795,0.1795,0.1795,0.1795,0.1795,0.1795,0.1795,0.1795,0.1795,0.1795,0.1795,0.1795,0.1739,0.157,0.1402,0.1177,0.0841,0.0112,-0.0392,-0.0785,-0.1346,-0.2019,-0.2691,-0.3419,-0.3977,-0.448,-0.4931,-0.5382,-0.5382,-0.5382,-0.5382,-0.5382,-0.5382,-0.5382,-0.5382,-0.5382,-0.5382,-0.5382,-0.5382,-0.5382,0.1313,0.1061,0.0202,-0.0455,-0.0909,-0.1413,-0.1614,-0.1563,-0.1464,-0.1364,-0.1262,-0.096,-0.0758,-0.0606,-0.0808,-0.1061,-0.1212,-0.1465,-0.1667,-0.1718,-0.1768,-0.1768,-0.1768,-0.1667,-0.1617,-0.1566,-0.1617,-0.1617,-0.1718,-0.1617,-0.1618,-0.1619,-0.1637,-0.1644,-0.1699,-0.1879,-0.1958,-0.1976,-0.2046,-0.1965,-0.1997,-0.1765,-0.1314,-0.0862,-0.0424,-0.0156,0.0051,0.0101,-0.0202,-0.0303,-0.005,0.0404,0.106,0.1766,0.228,0.2673,0.3038,0.3374,0.326,0.3256,0.3192,0.2915,0.2581,0.2468,0.2132,0.1963,0.1795,0.1795,0.1795,0.1795,0.1795,0.1795,0.1795,0.1795,0.1795,0.1795,0.1795,0.1795,0.1795,0.1795,0.1795,0.1795,0.1795,0.1795,0.1795,0.1795,0.1795,0.1795,0.1627,0.1402,0.1121,0.0729,0.0056,-0.0504,-0.0841,-0.157,-0.2412,-0.3029,-0.3587,-0.4258,-0.4819,-0.5156,-0.5382,-0.5382,-0.5382,-0.5382,-0.5382,-0.5382,-0.5382,-0.5382,-0.5382,-0.5382,-0.5386,-0.5394,-0.54,0.1263,0.1111,0.0455,0.0,-0.0303,-0.0758,-0.106,-0.1211,-0.106,-0.0707,-0.0303,-0.0252,-0.0252,-0.0303,-0.0404,-0.0758,-0.1111,-0.1465,-0.1718,-0.192,-0.1971,-0.2021,-0.192,-0.1819,-0.1718,-0.1617,-0.1617,-0.1718,-0.1819,-0.1667,-0.1566,-0.1566,-0.1566,-0.1567,-0.1574,-0.1589,-0.1611,-0.1414,-0.1269,-0.102,-0.0928,-0.0942,-0.0386,0.0163,0.0646,0.09,0.1197,0.1182,0.0916,0.0813,0.0866,0.122,0.1622,0.2178,0.2435,0.2822,0.3149,0.336,0.3403,0.3478,0.3346,0.3195,0.2917,0.2636,0.23,0.2075,0.1907,0.1795,0.1795,0.1795,0.1795,0.1795,0.1795,0.1795,0.1795,0.1795,0.1795,0.1795,0.1795,0.1795,0.1795,0.1795,0.1795,0.1795,0.1795,0.1795,0.1795,0.1795,0.1739,0.1458,0.1177,0.0729,0.0112,-0.0392,-0.0841,-0.1627,-0.2524,-0.3139,-0.3698,-0.454,-0.5156,-0.5326,-0.5382,-0.5382,-0.5382,-0.5382,-0.5382,-0.5382,-0.5382,-0.5382,-0.5382,-0.539,-0.5426,-0.5433,-0.5431,0.1414,0.1162,0.101,0.0808,0.0556,0.0202,0.0202,0.0303,0.0101,0.0303,0.0455,0.0505,0.0455,0.0202,-0.0252,-0.0606,-0.096,-0.1364,-0.1718,-0.1971,-0.2122,-0.2171,-0.2171,-0.197,-0.1768,-0.1718,-0.1667,-0.1617,-0.1718,-0.1617,-0.1566,-0.1516,-0.1516,-0.1465,-0.1264,-0.1222,-0.1075,-0.0826,-0.0521,-0.0264,0.0271,0.0383,0.0493,0.1037,0.1635,0.1937,0.2234,0.2273,0.211,0.1943,0.1821,0.2015,0.2257,0.2549,0.2752,0.2927,0.3205,0.3364,0.3471,0.354,0.3465,0.3419,0.3141,0.2859,0.2523,0.2244,0.2075,0.1795,0.1795,0.1795,0.1795,0.1795,0.1795,0.1795,0.1795,0.1795,0.1795,0.1795,0.1795,0.1795,0.1795,0.1795,0.1795,0.1795,0.1795,0.1795,0.1795,0.1795,0.1795,0.1514,0.1234,0.0729,0.0224,-0.0336,-0.0841,-0.1627,-0.2468,-0.3138,-0.3866,-0.4707,-0.5212,-0.5326,-0.5382,-0.5382,-0.5382,-0.5382,-0.5382,-0.5382,-0.5382,-0.5382,-0.5382,-0.5396,-0.5443,-0.5488,-0.55]},{"header":{"parameterUnit":"m.s-1","parameterCategory":1,"la1":31.0,"la2":29.5877,"lo1":-88.7671,"lo2":-86.6584,"dy":0.0162,"dx":0.0185,"nx":115,"ny":88,"refTime":"2023-10-23T12:00:00:Z","depth":0,"parameterNumber":3,"parameterNumberName":"V-component_of_WINDS"},"data":[0.0,0.0,0.0,0.0,0.0,0.0,0.0,0.0,0.0,0.0,0.0,0.0,0.0,0.0,0.0,0.0,0.0,0.0,0.0,0.0,0.0,0.0,0.0,0.0,0.0,0.0,0.0,0.0,0.0,0.0,0.0,0.0,0.0,0.0,0.0,0.0,0.0,0.0,0.0,0.0,0.0,0.0,0.0,0.0,0.0,0.0,0.0,0.0,0.0,0.0,0.0,0.0,0.0,0.0,0.0,0.0,0.0,0.0,0.0,0.0,0.0,0.0,0.0,0.0,0.0,0.0,0.0,0.0,0.0,0.0,0.0,0.0,0.0,0.0,0.0,0.0,0.0,0.0,0.0,0.0,0.0,0.0,0.0,0.0,0.0,0.0,0.0,0.0,0.0,0.0,0.0,0.0,0.0,0.0,0.0,0.0,0.0,0.0,0.0,0.0,0.0,0.0,0.0,0.0,0.0,0.0,0.0,0.0,0.0,0.0,0.0,0.0,0.0,0.0,0.0,0.0,0.0,0.0,0.0,0.0,0.0,0.0,0.0,0.0,0.0,0.0,0.0,0.0,0.0,0.0,0.0,0.0,0.0,0.0,0.0,0.0,0.0,0.0,0.0,0.0,0.0,0.0,0.0,0.0,0.0,0.0,0.0,0.0,0.0,0.0,0.0,0.0,0.0,0.0,0.0,0.0,0.0,0.0,0.0,0.0,0.0,0.0,0.0,0.0,0.0,0.0,0.0,0.0,0.0,0.0,0.0,0.0,0.0,0.0,0.0,0.0,0.0,0.0,0.0,0.0,0.0,0.0,0.0,0.0,0.0,0.0,0.0,0.0,0.0,0.0,0.0,0.0,0.0,0.0,0.0,0.0,0.0,0.0,0.0,0.0,0.0,0.0,0.0,0.0,0.0,0.0,0.0,0.0,0.0,0.0,0.0,0.0,0.0,0.0,0.0,0.0,0.0,0.0,0.0,0.0,0.0,0.0,0.0,0.0,0.0,0.0,0.0,0.0,0.0,0.0,0.0,0.0,0.0,0.0,0.0,0.0,0.0,0.0,0.0,0.0,0.0,0.0,0.0,0.0,0.0,0.0,0.0,0.0,0.0,0.0,0.0,0.0,0.0,0.0,0.0,0.0,0.0,0.0,0.0,0.0,0.0,0.0,0.0,0.0,0.0,0.0,0.0,0.0,0.0,0.0,0.0,0.0,0.0,0.0,0.0,0.0,0.0,0.0,0.0,0.0,0.0,0.0,0.0,0.0,0.0,0.0,0.0,0.0,0.0,0.0,0.0,0.0,0.0,0.0,0.0,0.0,0.0,0.0,0.0,0.0,0.0,0.0,0.0,0.0,0.0,0.0,0.0,0.0,0.0,0.0,0.0,0.0,0.0,0.0,0.0,0.0,0.0,0.0,0.0,0.0,0.0,0.0,0.0,0.0,0.0,0.0,0.0,0.0,0.0,0.0,0.0,0.0,0.0,0.0,0.0,0.0,0.0,0.0,0.0,0.0,0.0,0.0,0.0,0.0,0.0,0.0,0.0,0.0,0.0,0.0,0.0,0.0,0.0,0.0,0.0,0.0,0.0,0.0,0.0,0.0,0.0,0.0,0.0,0.0,0.0,0.0,0.0,0.0,0.0,0.0,0.0,0.0,0.0,0.0,0.0,0.0,0.0,0.0,0.0,0.0,0.0,0.0,0.0,0.0,0.0,0.0,0.0,0.0,0.0,0.0,0.0,0.0,0.0,0.0,0.0,0.0,0.0,0.0,0.0,0.0,0.0,0.0,0.0,0.0,0.0,0.0,0.0,0.0,0.0,0.0,0.0,0.0,0.0,0.0,0.0,0.0,0.0,0.0,0.0,0.0,0.0,0.0,0.0,0.0,0.0,0.0,0.0,0.0,0.0,0.0,0.0,0.0,0.0,0.0,0.0,0.0,0.0,0.0,0.0,0.0,0.0,0.0,0.0,0.0,0.0,0.0,0.0,0.0,0.0,0.0,0.0,0.0,0.0,0.0,0.0,0.0,0.0,0.0,0.0,0.0,0.0,0.0,0.0,0.0,0.0,0.0,0.0,0.0,0.0,0.0,0.0,0.0,0.0,0.0,0.0,0.0,0.0,0.0,0.0,0.0,0.0,0.0,0.0,0.0,0.0,0.0,0.0,0.0,0.0,0.0,0.0,0.0,0.0,0.0,0.0,0.0,0.0,0.0,0.0,0.0,0.0,0.0,0.0,0.0,0.0,0.0,0.0,0.0,0.0,0.0,0.0,0.0,0.0,0.0,0.0,0.0,0.0,0.0,0.0,0.0,0.0,0.0,0.0,0.0,0.0,0.0,0.0,0.0,0.0,0.0,0.0,0.0,0.0,0.0,0.0,0.0,0.0,0.0,0.0,0.0,0.0,0.0,0.0,0.0,0.0,0.0,0.0,0.0,0.0,0.0,0.0,0.0,0.0,0.0,0.0,0.0,0.0,0.0,0.0,0.0,0.0,0.0,0.0,0.0,0.0,0.0,0.0,0.0,0.0,0.0,0.0,0.0,0.0,0.0,0.0,0.0,0.0,0.0,0.0,0.0,0.0,0.0,0.0,0.0,0.0,0.0,0.0,0.0,0.0,0.0,0.0,0.0,0.0,0.0,0.0,0.0,0.0,0.0,0.0,0.0,0.0,0.0,0.0,0.0,0.0,0.0,0.0,0.0,0.0,0.0,0.0,0.0,0.0,0.0,0.0,0.0,0.0,0.0,0.0,0.0,0.0,0.0,0.0,0.0,0.0,0.0,0.0,0.0,0.0,0.0,0.0,0.0,0.0,0.0,0.0,0.0,0.0,0.0,0.0,0.0,0.0,0.0,0.0,0.0,0.0,0.0,0.0,0.0,0.0,0.0,0.0,0.0,0.0,0.0,0.0,0.0,0.0,0.0,0.0,0.0,0.0,0.0,0.0,0.0,0.0,0.0,0.0,0.0,0.0,0.0,0.0,0.0,0.0,0.0,0.0,0.0,0.0,0.0,0.0,0.0,0.0,0.0,0.0,0.0,0.0,0.0,0.0,0.0,0.0,0.0,0.0,0.0,0.0,0.0,0.0,0.0,0.0,0.0,0.0,0.0,0.0,0.0,0.0,0.0,0.0,0.0,0.0,0.0,0.0,0.0,0.0,0.0,0.0,0.0,0.0,0.0,0.0,0.0,0.0,0.0,0.0,0.0,0.0,0.0,0.0,0.0,0.0,0.0,0.0,0.0,0.0,0.0,0.0,0.0,0.0,0.0,0.0,0.0,0.0,0.0,0.0,0.0,0.0,0.0,0.0,0.0,0.0,0.0,0.0,0.0,0.0,0.0,0.0,0.0,0.0,0.0,0.0,0.0,0.0,0.0,0.0,0.0,0.0,0.0,0.0,0.0,0.0,0.0,0.0,0.0,0.0,0.0,0.0,0.0,0.0,0.0,0.0,0.0,0.0,0.0,0.0,0.0,0.0,0.0,0.0,0.0,0.0,0.0,0.0,0.0,0.0,0.0,0.0,0.0,0.0,0.0,0.0,0.0,0.0,0.0,0.0,0.0,0.0,0.0,0.0,0.0,0.0,0.0,0.0,0.0,0.0,0.0,0.0,0.0,0.0,0.0,0.0,0.0,0.0,0.0,0.0,0.0,0.0,0.0,0.0,0.0,0.0,0.0,0.0,0.0,0.0,0.0,0.0,0.0,0.0,0.0,0.0,0.0,0.0,0.0,0.0,0.0,0.0,0.0,0.0,0.0,0.0,0.0,0.0,0.0,0.0,0.0,0.0,0.0,0.0,0.0,0.0,0.0,0.0,0.0,0.0,0.0,0.0,0.0,0.0,0.0,0.0,0.0,0.0,0.0,0.0,0.0,0.0,0.0,0.0,0.0,0.0,0.0,0.0,0.0,0.0,0.0,0.0,0.0,0.0,0.0,0.0,0.0,0.0,0.0,0.0,0.0,0.0,0.0,0.0,0.0,0.0,0.0,0.0,0.0,0.0,0.0,0.0,0.0,0.0,0.0,0.0,0.0,0.0,0.0,0.0,0.0,0.0,0.0,0.0,0.0,0.0,0.0,0.0,0.0,0.0,0.0,0.0,0.0,0.0,0.0,0.0,0.0,0.0,0.0,0.0,0.0,0.0,0.0,0.0,0.0,0.0,0.0,0.0,0.0,0.0,0.0,0.0,0.0,0.0,0.0,0.0,0.0,0.0,0.0,0.0,0.0,0.0,0.0,0.0,0.0,0.0,0.0,0.0,0.0,0.0,0.0,0.0,0.0,0.0,0.0,2.3718,0.0,0.0,0.0,0.0,0.0,0.0,0.0,0.0,0.0,0.0,0.0,0.0,0.0,0.0,0.0,0.0,0.0,0.0,0.0,0.0,0.0,0.0,0.0,0.0,0.0,0.0,0.0,0.0,0.0,0.0,0.0,0.0,0.0,0.0,0.0,0.0,0.0,0.0,0.0,0.0,0.0,0.0,0.0,0.0,0.0,0.0,0.0,0.0,0.0,0.0,0.0,0.0,0.0,0.0,0.0,0.0,0.0,0.0,0.0,0.0,0.0,0.0,0.0,0.0,0.0,0.0,0.0,0.0,0.0,0.0,0.0,0.0,0.0,0.0,0.0,0.0,0.0,0.0,0.0,0.0,0.0,0.0,0.0,0.0,0.0,0.0,0.0,0.0,0.0,0.0,0.0,0.0,0.0,0.0,0.0,0.0,0.0,0.0,0.0,0.0,0.0,0.0,0.0,0.0,0.0,0.0,0.0,0.0,0.0,0.0,2.3807,2.3804,2.3732,2.3711,2.3743,0.0,0.0,0.0,0.0,0.0,0.0,0.0,0.0,0.0,0.0,0.0,0.0,0.0,0.0,0.0,0.0,0.0,0.0,0.0,0.0,0.0,0.0,0.0,0.0,0.0,0.0,0.0,0.0,0.0,0.0,0.0,0.0,0.0,0.0,0.0,0.0,0.0,0.0,0.0,0.0,0.0,0.0,0.0,0.0,0.0,0.0,0.0,0.0,0.0,0.0,0.0,0.0,0.0,0.0,0.0,0.0,0.0,0.0,0.0,0.0,0.0,0.0,0.0,0.0,0.0,0.0,0.0,0.0,0.0,0.0,0.0,0.0,0.0,0.0,0.0,0.0,0.0,0.0,0.0,0.0,0.0,0.0,0.0,0.0,0.0,0.0,0.0,0.0,0.0,0.0,0.0,0.0,0.0,0.0,0.0,0.0,0.0,0.0,0.0,0.0,0.0,0.0,0.0,0.0,0.0,0.0,0.0,0.0,0.0,0.0,0.0,0.0,2.4172,2.4161,2.405,0.0,0.0,0.0,0.0,0.0,0.0,0.0,0.0,0.0,0.0,0.0,0.0,0.0,0.0,0.0,0.0,0.0,0.0,0.0,0.0,0.0,0.0,0.0,0.0,0.0,0.0,0.0,0.0,0.0,0.0,0.0,0.0,0.0,0.0,0.0,0.0,0.0,0.0,0.0,0.0,0.0,0.0,0.0,0.0,0.0,0.0,0.0,0.0,0.0,0.0,0.0,0.0,0.0,0.0,0.0,0.0,0.0,0.0,0.0,0.0,0.0,0.0,0.0,0.0,0.0,0.0,0.0,0.0,0.0,0.0,0.0,0.0,0.0,0.0,0.0,0.0,0.0,0.0,0.0,0.0,0.0,0.0,0.0,0.0,0.0,0.0,0.0,0.0,0.0,0.0,0.0,0.0,0.0,0.0,0.0,0.0,0.0,0.0,0.0,0.0,0.0,0.0,0.0,0.0,0.0,0.0,0.0,0.0,0.0,0.0,2.4763,2.4895,2.5463,0.0,2.4746,0.0,0.0,0.0,0.0,0.0,0.0,0.0,0.0,0.0,0.0,0.0,0.0,0.0,0.0,0.0,0.0,0.0,0.0,0.0,0.0,0.0,0.0,0.0,0.0,0.0,0.0,0.0,0.0,0.0,0.0,0.0,0.0,0.0,0.0,0.0,0.0,0.0,0.0,0.0,0.0,0.0,0.0,0.0,0.0,0.0,0.0,0.0,0.0,0.0,0.0,0.0,0.0,0.0,0.0,0.0,0.0,0.0,0.0,0.0,0.0,0.0,0.0,0.0,0.0,0.0,0.0,0.0,0.0,0.0,0.0,0.0,0.0,0.0,0.0,0.0,0.0,0.0,0.0,0.0,0.0,0.0,0.0,0.0,0.0,0.0,0.0,0.0,0.0,0.0,0.0,0.0,0.0,0.0,0.0,0.0,0.0,0.0,0.0,0.0,0.0,0.0,0.0,0.0,0.0,0.0,0.0,0.0,0.0,0.0,0.0,2.4896,2.547,2.5392,2.5182,0.0,0.0,0.0,0.0,0.0,0.0,0.0,0.0,0.0,0.0,0.0,0.0,0.0,0.0,0.0,0.0,0.0,0.0,0.0,0.0,0.0,0.0,0.0,0.0,0.0,0.0,0.0,0.0,0.0,0.0,0.0,0.0,0.0,0.0,0.0,0.0,0.0,0.0,0.0,0.0,0.0,0.0,0.0,0.0,0.0,0.0,0.0,0.0,0.0,0.0,0.0,0.0,0.0,0.0,0.0,0.0,0.0,0.0,0.0,0.0,0.0,0.0,0.0,0.0,0.0,0.0,0.0,0.0,0.0,0.0,0.0,0.0,0.0,0.0,0.0,0.0,0.0,0.0,0.0,0.0,0.0,0.0,0.0,0.0,0.0,0.0,0.0,0.0,0.0,0.0,0.0,0.0,0.0,0.0,0.0,0.0,0.0,0.0,0.0,0.0,0.0,0.0,0.0,0.0,0.0,0.0,0.0,0.0,0.0,0.0,2.4419,2.5208,2.6307,2.5625,2.5182,2.52,0.0,0.0,0.0,0.0,0.0,0.0,0.0,0.0,0.0,0.0,0.0,0.0,0.0,0.0,0.0,0.0,0.0,0.0,0.0,0.0,0.0,0.0,0.0,0.0,0.0,0.0,0.0,0.0,0.0,0.0,0.0,0.0,0.0,0.0,0.0,0.0,0.0,0.0,0.0,0.0,0.0,0.0,0.0,0.0,0.0,0.0,0.0,0.0,0.0,0.0,0.0,0.0,0.0,0.0,0.0,0.0,0.0,0.0,0.0,0.0,0.0,0.0,0.0,0.0,0.0,0.0,0.0,0.0,0.0,0.0,0.0,0.0,0.0,0.0,0.0,0.0,0.0,0.0,0.0,0.0,0.0,0.0,0.0,0.0,0.0,0.0,0.0,0.0,0.0,0.0,0.0,0.0,0.0,0.0,0.0,0.0,0.0,0.0,0.0,0.0,0.0,0.0,0.0,0.0,0.0,0.0,0.0,0.0,2.3444,2.4454,2.5946,2.7822,2.6611,2.5876,0.0,0.0,0.0,0.0,0.0,0.0,0.0,0.0,0.0,0.0,0.0,0.0,0.0,0.0,0.0,0.0,0.0,0.0,0.0,0.0,0.0,0.0,0.0,0.0,0.0,0.0,0.0,0.0,0.0,0.0,0.0,0.0,0.0,0.0,0.0,0.0,0.0,0.0,0.0,0.0,0.0,0.0,0.0,0.0,0.0,0.0,0.0,0.0,0.0,0.0,0.0,0.0,0.0,0.0,0.0,0.0,0.0,0.0,0.0,0.0,0.0,0.0,0.0,0.0,0.0,0.0,0.0,0.0,0.0,0.0,0.0,0.0,0.0,0.0,0.0,0.0,0.0,0.0,0.0,0.0,0.0,0.0,0.0,0.0,0.0,0.0,0.0,0.0,0.0,0.0,0.0,0.0,0.0,0.0,0.0,0.0,0.0,0.0,0.0,0.0,0.0,0.0,0.0,0.0,0.0,0.0,0.0,0.0,0.0,2.3792,2.5252,2.6306,2.6886,2.6051,2.5493,0.0,0.0,0.0,0.0,0.0,0.0,0.0,0.0,0.0,0.0,0.0,0.0,0.0,0.0,0.0,0.0,0.0,0.0,0.0,0.0,0.0,0.0,0.0,0.0,0.0,0.0,0.0,0.0,0.0,0.0,0.0,0.0,0.0,0.0,0.0,0.0,0.0,0.0,0.0,0.0,0.0,0.0,0.0,0.0,0.0,0.0,0.0,0.0,0.0,0.0,0.0,0.0,0.0,0.0,0.0,0.0,0.0,0.0,0.0,0.0,0.0,0.0,0.0,0.0,0.0,0.0,0.0,0.0,0.0,0.0,0.0,0.0,0.0,0.0,0.0,0.0,0.0,0.0,0.0,0.0,0.0,0.0,0.0,0.0,0.0,0.0,0.0,0.0,0.0,0.0,0.0,0.0,0.0,0.0,0.0,0.0,0.0,0.0,0.0,0.0,0.0,0.0,0.0,0.0,0.0,0.0,0.0,0.0,0.0,2.3869,0.0,2.6067,2.6323,2.5637,2.5183,0.0,0.0,0.0,0.0,0.0,0.0,0.0,0.0,0.0,0.0,0.0,0.0,0.0,0.0,0.0,0.0,0.0,0.0,0.0,0.0,0.0,0.0,0.0,0.0,0.0,0.0,0.0,0.0,0.0,0.0,0.0,0.0,0.0,0.0,0.0,0.0,0.0,0.0,0.0,0.0,0.0,0.0,0.0,0.0,0.0,0.0,0.0,0.0,0.0,0.0,0.0,0.0,0.0,0.0,0.0,0.0,0.0,0.0,0.0,0.0,0.0,0.0,0.0,0.0,0.0,0.0,0.0,0.0,0.0,0.0,0.0,0.0,0.0,0.0,0.0,0.0,0.0,0.0,0.0,0.0,0.0,0.0,0.0,0.0,0.0,0.0,0.0,0.0,0.0,0.0,0.0,0.0,0.0,0.0,0.0,0.0,0.0,0.0,0.0,0.0,0.0,0.0,0.0,0.0,0.0,0.0,0.0,0.0,2.3157,2.3568,2.422,2.5121,2.6354,2.5362,2.5,0.0,0.0,0.0,0.0,0.0,0.0,0.0,0.0,0.0,0.0,0.0,0.0,0.0,0.0,0.0,0.0,0.0,0.0,0.0,0.0,0.0,0.0,0.0,0.0,0.0,0.0,0.0,0.0,0.0,0.0,0.0,0.0,0.0,0.0,0.0,0.0,0.0,0.0,0.0,0.0,0.0,0.0,0.0,0.0,0.0,0.0,0.0,0.0,0.0,0.0,0.0,0.0,0.0,0.0,0.0,0.0,0.0,0.0,0.0,0.0,0.0,0.0,0.0,0.0,0.0,0.0,0.0,0.0,0.0,0.0,0.0,0.0,0.0,0.0,0.0,0.0,0.0,0.0,0.0,0.0,0.0,0.0,0.0,0.0,0.0,0.0,0.0,0.0,0.0,0.0,0.0,0.0,0.0,0.0,0.0,0.0,0.0,0.0,0.0,0.0,0.0,0.0,0.0,0.0,0.0,0.0,0.0,0.0,0.0,2.2516,2.298,2.3367,2.3654,2.3621,2.3605,0.0,0.0,0.0,0.0,0.0,0.0,0.0,0.0,0.0,0.0,0.0,0.0,0.0,0.0,0.0,0.0,0.0,0.0,0.0,0.0,0.0,0.0,0.0,0.0,0.0,0.0,0.0,0.0,0.0,0.0,0.0,0.0,0.0,0.0,0.0,0.0,0.0,0.0,0.0,0.0,0.0,0.0,0.0,0.0,0.0,0.0,0.0,0.0,0.0,0.0,0.0,0.0,0.0,0.0,0.0,0.0,0.0,0.0,0.0,0.0,0.0,0.0,0.0,0.0,0.0,0.0,0.0,0.0,0.0,0.0,0.0,0.0,0.0,0.0,0.0,0.0,0.0,0.0,0.0,0.0,0.0,0.0,0.0,0.0,0.0,0.0,0.0,0.0,0.0,0.0,0.0,0.0,0.0,0.0,0.0,0.0,0.0,0.0,0.0,0.0,0.0,0.0,0.0,0.0,0.0,0.0,0.0,0.0,0.0,2.1373,2.1822,2.2196,2.2413,2.2654,2.2876,2.3079,0.0,0.0,0.0,0.0,0.0,0.0,0.0,0.0,0.0,0.0,0.0,0.0,0.0,0.0,0.0,0.0,0.0,0.0,0.0,0.0,0.0,0.0,0.0,0.0,0.0,0.0,0.0,0.0,0.0,0.0,0.0,0.0,0.0,0.0,0.0,0.0,0.0,0.0,0.0,0.0,0.0,0.0,0.0,0.0,0.0,0.0,0.0,0.0,0.0,0.0,0.0,0.0,0.0,0.0,0.0,0.0,0.0,0.0,0.0,0.0,0.0,0.0,0.0,0.0,0.0,0.0,0.0,0.0,0.0,0.0,0.0,0.0,0.0,0.0,0.0,0.0,0.0,0.0,0.0,0.0,0.0,0.0,0.0,0.0,0.0,0.0,0.0,0.0,0.0,0.0,0.0,0.0,0.0,0.0,0.0,0.0,0.0,0.0,0.0,0.0,0.0,0.0,0.0,0.0,0.0,0.0,0.0,0.0,2.0206,2.076,2.1477,2.2325,2.2319,2.2632,0.0,0.0,0.0,0.0,0.0,0.0,0.0,0.0,0.0,0.0,0.0,0.0,0.0,0.0,0.0,0.0,0.0,0.0,0.0,0.0,0.0,0.0,0.0,0.0,0.0,0.0,0.0,0.0,0.0,0.0,0.0,0.0,0.0,0.0,0.0,0.0,0.0,0.0,0.0,0.0,0.0,0.0,0.0,0.0,0.0,0.0,0.0,0.0,0.0,0.0,0.0,0.0,0.0,0.0,0.0,0.0,0.0,0.0,0.0,0.0,0.0,0.0,0.0,0.0,0.0,0.0,0.0,0.0,0.0,0.0,0.0,0.0,0.0,0.0,0.0,0.0,0.0,0.0,0.0,0.0,0.0,0.0,0.0,0.0,0.0,0.0,0.0,0.0,0.0,0.0,0.0,0.0,0.0,0.0,0.0,0.0,0.0,0.0,0.0,0.0,0.0,0.0,0.0,0.0,0.0,0.0,0.0,0.0,0.0,2.008,1.9752,1.9994,2.0635,2.1012,2.1595,0.0,0.0,0.0,0.0,0.0,0.0,0.0,0.0,0.0,0.0,0.0,0.0,0.0,0.0,0.0,0.0,0.0,0.0,0.0,0.0,0.0,0.0,0.0,0.0,0.0,0.0,0.0,0.0,0.0,0.0,0.0,0.0,0.0,0.0,0.0,0.0,0.0,0.0,0.0,0.0,0.0,0.0,0.0,0.0,0.0,0.0,0.0,0.0,0.0,0.0,0.0,0.0,0.0,0.0,0.0,0.0,0.0,0.0,0.0,0.0,0.0,0.0,0.0,0.0,0.0,0.0,0.0,0.0,0.0,0.0,0.0,0.0,0.0,0.0,0.0,0.0,0.0,0.0,0.0,0.0,0.0,0.0,0.0,0.0,0.0,0.0,0.0,0.0,0.0,0.0,0.0,0.0,0.0,0.0,0.0,0.0,0.0,0.0,0.0,0.0,0.0,0.0,0.0,0.0,0.0,0.0,0.0,0.0,2.198,1.9823,1.9188,1.9087,1.9475,2.0196,2.1006,0.0,0.0,0.0,0.0,0.0,0.0,0.0,0.0,0.0,0.0,0.0,0.0,0.0,0.0,0.0,0.0,0.0,0.0,0.0,0.0,0.0,0.0,0.0,0.0,0.0,0.0,0.0,0.0,0.0,0.0,0.0,0.0,0.0,0.0,0.0,0.0,0.0,0.0,0.0,0.0,0.0,0.0,0.0,0.0,0.0,0.0,0.0,0.0,0.0,0.0,0.0,0.0,0.0,0.0,0.0,0.0,0.0,0.0,0.0,0.0,0.0,0.0,0.0,0.0,0.0,0.0,0.0,0.0,0.0,0.0,0.0,0.0,0.0,0.0,0.0,0.0,0.0,0.0,0.0,0.0,0.0,0.0,0.0,0.0,0.0,0.0,0.0,0.0,0.0,0.0,0.0,0.0,0.0,0.0,0.0,0.0,0.0,0.0,0.0,0.0,0.0,0.0,0.0,0.0,0.0,0.0,0.0,0.0,2.1742,1.9606,1.8907,1.8649,1.8784,1.9722,2.0652,0.0,0.0,0.0,0.0,0.0,0.0,0.0,0.0,0.0,0.0,0.0,0.0,0.0,0.0,0.0,0.0,0.0,0.0,0.0,0.0,0.0,0.0,0.0,0.0,0.0,0.0,0.0,0.0,0.0,0.0,0.0,0.0,0.0,0.0,0.0,0.0,0.0,0.0,0.0,0.0,0.0,0.0,0.0,0.0,0.0,0.0,0.0,0.0,0.0,0.0,0.0,0.0,0.0,0.0,0.0,0.0,0.0,0.0,0.0,0.0,0.0,0.0,0.0,0.0,0.0,0.0,0.0,0.0,0.0,0.0,0.0,0.0,0.0,0.0,0.0,0.0,0.0,0.0,0.0,0.0,0.0,0.0,0.0,0.0,0.0,0.0,0.0,0.0,0.0,0.0,0.0,0.0,0.0,0.0,0.0,0.0,0.0,0.0,0.0,0.0,0.0,0.0,0.0,0.0,0.0,0.0,0.0,0.0,2.1098,1.9347,1.8679,1.8422,1.8558,1.9441,2.0339,0.0,0.0,0.0,0.0,0.0,0.0,0.0,0.0,0.0,0.0,0.0,0.0,0.0,0.0,0.0,0.0,0.0,0.0,0.0,0.0,0.0,0.0,0.0,0.0,0.0,0.0,0.0,0.0,0.0,0.0,0.0,0.0,0.0,0.0,0.0,0.0,0.0,0.0,0.0,0.0,0.0,0.0,0.0,0.0,0.0,0.0,0.0,0.0,3.3555,0.0,0.0,0.0,0.0,0.0,0.0,0.0,0.0,0.0,0.0,0.0,0.0,0.0,0.0,0.0,0.0,0.0,0.0,0.0,0.0,0.0,0.0,0.0,0.0,0.0,0.0,0.0,0.0,0.0,0.0,0.0,0.0,0.0,0.0,0.0,0.0,0.0,0.0,0.0,0.0,0.0,0.0,0.0,0.0,0.0,0.0,0.0,0.0,0.0,0.0,0.0,0.0,0.0,0.0,0.0,0.0,0.0,0.0,0.0,2.0819,1.9155,1.8572,1.826,1.8285,1.9059,1.9986,0.0,0.0,0.0,0.0,0.0,0.0,0.0,0.0,0.0,0.0,0.0,0.0,0.0,0.0,0.0,0.0,0.0,0.0,0.0,0.0,0.0,0.0,0.0,0.0,0.0,0.0,0.0,0.0,0.0,0.0,0.0,0.0,0.0,0.0,0.0,0.0,0.0,0.0,0.0,0.0,0.0,0.0,0.0,0.0,0.0,0.0,0.0,0.0,0.0,0.0,0.0,0.0,0.0,0.0,0.0,0.0,0.0,0.0,0.0,0.0,0.0,0.0,0.0,0.0,0.0,0.0,0.0,0.0,0.0,0.0,0.0,0.0,0.0,0.0,0.0,0.0,0.0,0.0,0.0,0.0,0.0,0.0,0.0,0.0,0.0,0.0,0.0,0.0,0.0,0.0,0.0,0.0,0.0,0.0,0.0,0.0,0.0,0.0,0.0,0.0,0.0,0.0,0.0,0.0,0.0,0.0,0.0,2.2166,2.0584,1.9024,1.8442,1.8095,1.8002,1.8698,1.9652,2.0895,0.0,0.0,0.0,0.0,0.0,0.0,0.0,0.0,0.0,0.0,0.0,0.0,0.0,0.0,0.0,0.0,0.0,0.0,0.0,0.0,0.0,0.0,0.0,0.0,0.0,0.0,0.0,0.0,0.0,0.0,0.0,0.0,0.0,0.0,0.0,0.0,0.0,0.0,3.139,3.2566,0.0,0.0,0.0,0.0,0.0,0.0,0.0,0.0,3.535,0.0,0.0,0.0,0.0,0.0,0.0,0.0,0.0,0.0,0.0,0.0,0.0,0.0,0.0,0.0,0.0,0.0,0.0,0.0,0.0,0.0,0.0,0.0,0.0,0.0,0.0,0.0,0.0,0.0,0.0,0.0,0.0,0.0,0.0,0.0,0.0,0.0,0.0,0.0,0.0,0.0,0.0,0.0,0.0,0.0,0.0,0.0,0.0,0.0,0.0,0.0,0.0,0.0,0.0,0.0,0.0,2.3552,2.1447,1.9822,1.8765,1.8271,1.7996,1.7929,1.8568,1.9468,2.0653,0.0,0.0,0.0,0.0,0.0,0.0,0.0,0.0,0.0,0.0,0.0,0.0,0.0,0.0,0.0,0.0,0.0,0.0,0.0,0.0,0.0,0.0,0.0,0.0,0.0,0.0,0.0,0.0,0.0,0.0,0.0,0.0,0.0,0.0,0.0,0.0,0.0,0.0,0.0,3.3064,3.4046,0.0,0.0,0.0,0.0,0.0,0.0,0.0,0.0,3.7344,0.0,0.0,0.0,0.0,0.0,0.0,0.0,0.0,0.0,0.0,0.0,0.0,0.0,0.0,0.0,0.0,0.0,0.0,0.0,0.0,0.0,0.0,0.0,0.0,0.0,0.0,0.0,0.0,0.0,0.0,0.0,0.0,0.0,0.0,0.0,0.0,0.0,0.0,0.0,0.0,0.0,0.0,0.0,0.0,0.0,0.0,0.0,0.0,0.0,0.0,0.0,0.0,0.0,0.0,0.0,2.3367,2.1217,1.9681,1.8836,1.8389,1.8121,1.8069,1.8698,1.9771,0.0,0.0,0.0,0.0,0.0,0.0,0.0,0.0,0.0,0.0,0.0,0.0,0.0,0.0,0.0,0.0,0.0,0.0,0.0,0.0,0.0,0.0,0.0,0.0,0.0,0.0,0.0,0.0,0.0,0.0,0.0,0.0,0.0,0.0,0.0,0.0,0.0,0.0,0.0,0.0,3.3829,3.4609,3.498,0.0,0.0,0.0,0.0,0.0,0.0,3.6617,3.7679,0.0,0.0,0.0,0.0,0.0,0.0,0.0,0.0,0.0,0.0,0.0,0.0,0.0,0.0,0.0,0.0,0.0,0.0,0.0,0.0,0.0,0.0,0.0,0.0,0.0,0.0,0.0,0.0,0.0,0.0,0.0,0.0,0.0,0.0,0.0,0.0,0.0,0.0,0.0,0.0,0.0,0.0,0.0,0.0,0.0,0.0,0.0,0.0,0.0,0.0,0.0,0.0,0.0,0.0,0.0,2.3381,2.1198,1.9699,1.902,1.8577,1.8333,1.8327,1.8945,2.0137,0.0,0.0,0.0,0.0,0.0,0.0,0.0,0.0,0.0,0.0,0.0,0.0,0.0,0.0,0.0,0.0,0.0,0.0,0.0,0.0,0.0,0.0,0.0,0.0,0.0,0.0,0.0,0.0,0.0,0.0,0.0,0.0,0.0,0.0,0.0,0.0,0.0,0.0,0.0,0.0,0.0,3.5471,3.6068,3.5925,0.0,0.0,0.0,0.0,3.6439,3.7182,0.0,0.0,0.0,0.0,0.0,0.0,0.0,0.0,0.0,0.0,0.0,0.0,0.0,0.0,0.0,0.0,0.0,0.0,0.0,0.0,0.0,0.0,0.0,0.0,0.0,0.0,0.0,0.0,0.0,0.0,0.0,0.0,0.0,0.0,0.0,0.0,0.0,0.0,0.0,0.0,0.0,0.0,0.0,0.0,0.0,0.0,0.0,0.0,0.0,0.0,0.0,0.0,0.0,0.0,0.0,0.0,2.3519,2.1115,1.9681,1.935,1.8779,1.8548,1.8726,1.927,2.0424,0.0,0.0,0.0,0.0,0.0,0.0,0.0,0.0,0.0,0.0,0.0,0.0,0.0,0.0,0.0,0.0,0.0,0.0,0.0,0.0,0.0,0.0,0.0,0.0,0.0,0.0,0.0,0.0,0.0,0.0,0.0,0.0,0.0,0.0,0.0,0.0,0.0,0.0,0.0,0.0,0.0,3.7232,3.7374,3.8035,3.8564,0.0,0.0,3.8685,3.8848,3.9239,0.0,0.0,0.0,0.0,0.0,0.0,0.0,0.0,0.0,0.0,0.0,0.0,0.0,0.0,0.0,0.0,0.0,0.0,0.0,0.0,0.0,0.0,0.0,0.0,0.0,0.0,0.0,0.0,0.0,0.0,0.0,0.0,0.0,0.0,0.0,0.0,0.0,0.0,0.0,0.0,0.0,0.0,0.0,0.0,0.0,0.0,0.0,0.0,0.0,0.0,0.0,0.0,0.0,0.0,0.0,2.4545,2.3517,2.1766,2.0398,1.9599,1.9143,1.8978,1.9128,2.005,2.1381,0.0,0.0,0.0,0.0,0.0,0.0,0.0,0.0,0.0,0.0,0.0,0.0,0.0,0.0,0.0,0.0,0.0,0.0,0.0,0.0,0.0,0.0,0.0,0.0,0.0,0.0,0.0,0.0,0.0,0.0,0.0,0.0,0.0,0.0,0.0,0.0,0.0,0.0,0.0,0.0,0.0,0.0,3.8755,3.9145,0.0,0.0,0.0,3.9852,3.9628,0.0,0.0,0.0,0.0,0.0,0.0,0.0,0.0,0.0,0.0,0.0,0.0,0.0,0.0,0.0,0.0,0.0,0.0,0.0,0.0,0.0,0.0,0.0,0.0,0.0,0.0,0.0,0.0,0.0,0.0,0.0,0.0,0.0,0.0,0.0,0.0,0.0,0.0,0.0,0.0,0.0,0.0,0.0,0.0,0.0,0.0,0.0,0.0,0.0,0.0,0.0,0.0,0.0,0.0,0.0,0.0,0.0,2.393,2.2616,2.1455,2.0494,2.0098,1.9972,2.0135,2.1196,0.0,0.0,0.0,0.0,0.0,0.0,0.0,0.0,0.0,0.0,0.0,0.0,0.0,0.0,0.0,0.0,0.0,0.0,0.0,0.0,0.0,0.0,0.0,0.0,0.0,0.0,0.0,3.2776,0.0,0.0,0.0,0.0,0.0,0.0,0.0,0.0,0.0,0.0,0.0,0.0,0.0,0.0,3.9407,4.0168,4.054,4.0713,0.0,0.0,4.1502,4.0891,4.1368,4.167,0.0,0.0,0.0,0.0,0.0,0.0,0.0,0.0,0.0,0.0,0.0,0.0,0.0,0.0,0.0,0.0,0.0,0.0,0.0,0.0,0.0,0.0,0.0,0.0,0.0,0.0,0.0,0.0,0.0,0.0,0.0,0.0,0.0,0.0,0.0,0.0,0.0,0.0,0.0,0.0,0.0,0.0,0.0,0.0,0.0,0.0,0.0,0.0,0.0,0.0,0.0,0.0,0.0,0.0,0.0,2.5046,2.3602,2.2754,2.2561,2.2079,2.1892,2.2117,2.2738,2.371,0.0,0.0,0.0,0.0,0.0,0.0,0.0,0.0,0.0,0.0,0.0,0.0,0.0,0.0,0.0,0.0,0.0,0.0,0.0,0.0,0.0,0.0,0.0,0.0,0.0,0.0,0.0,0.0,0.0,0.0,0.0,0.0,0.0,0.0,0.0,0.0,0.0,0.0,0.0,0.0,0.0,4.1488,4.1542,4.2844,4.3725,0.0,0.0,4.4509,4.365,4.372,4.3661,4.3031,0.0,0.0,0.0,0.0,0.0,0.0,0.0,0.0,0.0,0.0,0.0,0.0,0.0,0.0,0.0,0.0,0.0,0.0,0.0,0.0,0.0,0.0,0.0,0.0,0.0,0.0,0.0,0.0,0.0,0.0,0.0,0.0,0.0,0.0,0.0,0.0,0.0,0.0,0.0,0.0,0.0,0.0,0.0,0.0,0.0,0.0,0.0,0.0,0.0,0.0,0.0,0.0,0.0,2.7006,2.6135,2.4755,2.3745,2.3078,2.2723,2.2629,2.2794,2.3658,2.4559,0.0,0.0,0.0,0.0,0.0,0.0,0.0,0.0,0.0,0.0,0.0,0.0,0.0,0.0,0.0,0.0,0.0,0.0,0.0,0.0,0.0,0.0,0.0,0.0,0.0,0.0,0.0,0.0,3.5741,3.5857,3.6851,0.0,0.0,0.0,0.0,0.0,0.0,0.0,0.0,0.0,0.0,4.2362,4.3028,4.3498,0.0,0.0,4.5075,4.5476,4.5147,4.5205,4.4857,4.3734,4.3548,0.0,0.0,0.0,0.0,0.0,0.0,0.0,0.0,0.0,0.0,0.0,0.0,0.0,0.0,0.0,0.0,0.0,0.0,0.0,0.0,0.0,0.0,0.0,0.0,0.0,0.0,0.0,0.0,0.0,0.0,0.0,0.0,0.0,0.0,0.0,0.0,0.0,0.0,0.0,0.0,0.0,0.0,0.0,0.0,0.0,0.0,0.0,0.0,0.0,0.0,0.0,0.0,2.8382,2.7248,2.6217,2.5204,2.4202,2.3939,2.3867,2.3953,2.4744,2.5462,0.0,0.0,0.0,0.0,0.0,0.0,0.0,0.0,0.0,0.0,0.0,0.0,0.0,0.0,0.0,0.0,0.0,0.0,0.0,0.0,0.0,0.0,0.0,0.0,0.0,0.0,0.0,0.0,3.6906,3.7079,3.8783,0.0,0.0,0.0,0.0,0.0,0.0,0.0,0.0,0.0,0.0,4.3318,4.4016,4.4347,4.472,4.5224,4.6152,4.6708,4.6413,4.6465,4.6107,4.4821,0.0,0.0,0.0,0.0,0.0,0.0,0.0,0.0,0.0,0.0,0.0,0.0,0.0,0.0,0.0,0.0,0.0,0.0,0.0,0.0,0.0,0.0,0.0,0.0,0.0,0.0,0.0,0.0,0.0,0.0,2.9982,0.0,0.0,0.0,0.0,0.0,0.0,0.0,0.0,0.0,0.0,0.0,0.0,0.0,0.0,0.0,0.0,0.0,0.0,0.0,0.0,0.0,0.0,2.9616,2.8499,2.7947,2.7264,2.635,2.6052,2.5872,2.5834,2.6119,2.6436,2.6808,0.0,0.0,0.0,0.0,0.0,0.0,0.0,0.0,0.0,0.0,0.0,0.0,0.0,0.0,0.0,0.0,0.0,0.0,0.0,0.0,0.0,0.0,0.0,0.0,0.0,0.0,3.8633,3.7912,3.8085,0.0,0.0,0.0,0.0,0.0,0.0,0.0,0.0,0.0,0.0,4.4049,4.4527,4.4435,4.5664,4.6501,4.638,4.7757,4.8503,4.76,4.7642,4.7497,0.0,0.0,0.0,0.0,0.0,0.0,0.0,0.0,0.0,0.0,0.0,0.0,0.0,0.0,0.0,0.0,0.0,0.0,0.0,0.0,0.0,0.0,0.0,0.0,0.0,0.0,0.0,3.2183,3.1347,0.0,0.0,0.0,0.0,0.0,0.0,0.0,0.0,0.0,0.0,0.0,3.4832,3.5609,0.0,0.0,0.0,0.0,0.0,0.0,0.0,0.0,0.0,0.0,0.0,0.0,3.0845,3.0317,2.8983,2.8047,2.7606,2.6945,2.6556,2.6435,2.7061,2.7913,2.8891,0.0,0.0,0.0,0.0,0.0,0.0,0.0,0.0,0.0,0.0,0.0,0.0,0.0,0.0,0.0,0.0,0.0,0.0,0.0,0.0,0.0,0.0,0.0,0.0,0.0,3.8791,0.0,0.0,0.0,0.0,0.0,0.0,0.0,0.0,0.0,0.0,0.0,4.4535,4.4589,4.4747,4.5048,4.5534,4.5965,4.6596,0.0,0.0,0.0,0.0,0.0,0.0,0.0,0.0,0.0,0.0,0.0,0.0,0.0,0.0,5.1646,5.0907,5.032,4.9683,4.884,0.0,0.0,0.0,0.0,0.0,0.0,0.0,0.0,0.0,0.0,0.0,0.0,0.0,0.0,0.0,0.0,3.3249,0.0,0.0,0.0,0.0,0.0,0.0,0.0,0.0,3.6714,3.7055,3.6613,3.7099,3.7157,0.0,3.6638,3.6001,0.0,0.0,0.0,0.0,0.0,0.0,0.0,0.0,3.246,3.1994,3.047,2.9427,2.8988,2.8356,2.797,2.7825,2.8406,2.9155,3.0031,3.032,3.0885,0.0,0.0,0.0,0.0,0.0,0.0,0.0,0.0,0.0,0.0,0.0,0.0,0.0,0.0,0.0,0.0,0.0,0.0,0.0,0.0,0.0,0.0,0.0,3.9433,0.0,0.0,0.0,0.0,0.0,0.0,0.0,0.0,0.0,4.4605,4.5226,4.5722,4.5773,4.5895,4.6195,4.671,0.0,0.0,0.0,0.0,0.0,0.0,0.0,4.936,4.9955,5.038,5.0963,5.2075,5.2723,5.3429,5.4325,0.0,0.0,5.309,5.2463,5.1757,5.1006,5.0104,4.9324,4.8838,4.8282,4.7758,0.0,0.0,0.0,0.0,0.0,0.0,0.0,0.0,3.6105,3.6124,0.0,3.5514,0.0,0.0,0.0,0.0,0.0,0.0,0.0,0.0,4.004,3.9705,3.8297,3.8165,3.8172,3.8234,3.7502,3.7125,3.7065,3.6037,0.0,0.0,0.0,0.0,0.0,0.0,3.4379,3.3448,3.2382,3.1398,3.0484,3.0277,3.0125,2.9953,3.0052,3.0182,3.0347,3.1443,3.2232,3.2541,3.3697,0.0,0.0,0.0,0.0,0.0,0.0,0.0,0.0,0.0,0.0,0.0,0.0,0.0,0.0,0.0,0.0,0.0,0.0,0.0,0.0,4.0215,0.0,0.0,0.0,0.0,0.0,0.0,0.0,0.0,0.0,0.0,4.559,4.6311,4.6878,4.6845,0.0,0.0,0.0,0.0,4.885,4.8941,4.9617,5.0101,5.012,5.0163,5.0236,5.0264,0.0,0.0,5.3955,5.4254,5.4485,5.5369,5.4867,5.4407,5.4191,5.3993,5.3666,5.2815,5.194,5.1478,5.1263,4.9973,4.9005,3.876,0.0,0.0,0.0,0.0,3.8192,3.8201,3.8192,3.8316,3.8055,3.7629,3.8109,0.0,0.0,0.0,0.0,0.0,0.0,4.0512,4.0639,4.0808,4.0976,4.1211,4.0472,4.0165,4.0235,3.9403,3.8715,3.8177,3.7856,3.7464,3.7044,0.0,0.0,0.0,0.0,3.5473,3.4554,3.3633,3.2688,3.1753,3.1151,3.1006,3.1308,3.0853,3.1133,3.2225,3.231,3.2693,3.3474,3.4115,0.0,0.0,0.0,0.0,0.0,0.0,0.0,0.0,0.0,0.0,0.0,0.0,0.0,0.0,0.0,0.0,0.0,0.0,0.0,4.1089,4.1247,4.1676,0.0,0.0,0.0,0.0,0.0,0.0,0.0,0.0,0.0,4.679,4.6892,4.7206,0.0,0.0,4.8318,4.8875,4.9113,4.9418,4.9972,0.0,0.0,0.0,5.0466,5.0718,5.1375,5.2271,5.3087,5.3559,5.3675,5.3751,5.4067,5.3947,5.3782,5.3782,5.3638,5.3204,5.2374,5.194,5.1572,5.0949,5.0421,4.9901,4.0412,4.0416,3.974,3.9595,3.9793,3.9889,4.0071,4.0308,4.0115,3.9767,3.9433,4.0067,4.0371,4.0463,4.1392,0.0,0.0,0.0,4.2311,4.2371,4.2339,4.2254,4.2153,4.1557,4.1118,4.0786,4.0291,3.9805,3.9309,3.929,3.9181,3.8968,0.0,0.0,3.8128,3.7516,3.6898,3.6318,3.5399,3.4468,3.354,3.2677,3.2361,3.2631,3.22,3.2375,3.3255,3.3067,3.3261,3.3915,3.4293,3.458,0.0,0.0,0.0,0.0,0.0,0.0,0.0,0.0,0.0,0.0,0.0,3.9044,3.9104,0.0,0.0,0.0,3.9599,4.0734,4.2171,4.2298,0.0,0.0,0.0,0.0,0.0,0.0,0.0,4.6402,4.6956,4.7425,4.7755,4.7404,4.7569,4.8762,4.9095,4.9397,4.9892,0.0,5.0077,5.0548,5.0673,5.0692,5.0673,5.071,5.1036,5.1973,5.2589,5.3093,5.3441,5.348,5.3488,5.3518,5.3281,5.309,5.3111,5.2775,5.2553,5.2524,5.2229,5.1798,5.1279,5.0904,5.0451,4.201,4.2573,4.0751,4.0428,4.1123,4.1153,4.16,4.2198,4.1555,4.1279,4.1371,4.1619,4.1771,4.1893,4.2724,0.0,4.4219,4.4226,4.4235,4.4303,4.4231,4.3412,4.1937,4.1802,4.1303,4.0534,4.0476,4.0419,4.0411,4.0351,4.0283,4.0204,3.9248,3.8723,3.8702,3.858,3.8451,3.831,3.7411,3.6485,3.5553,3.4629,3.4118,3.4071,3.3935,3.3831,3.3748,3.3885,3.3981,3.4036,3.4482,3.4773,3.4912,0.0,0.0,0.0,0.0,0.0,0.0,0.0,0.0,0.0,0.0,0.0,0.0,0.0,0.0,0.0,4.1511,0.0,4.3239,4.3304,0.0,0.0,0.0,4.5162,4.5991,4.689,4.74,4.7409,0.0,0.0,4.8599,0.0,4.8082,4.9606,5.0318,5.0726,5.0703,5.0678,5.0729,5.0801,5.0819,5.0819,5.0827,5.0872,5.118,5.1946,5.2211,5.2484,5.3124,5.3318,5.3376,5.3298,5.2783,5.2298,5.2298,5.1754,5.1638,5.2983,5.2558,5.1998,5.1865,5.1264,5.0709,4.2808,4.2962,4.2499,4.2315,4.2373,4.2489,4.2632,4.2795,4.2684,4.2631,4.2706,4.3418,4.4083,4.472,4.492,4.514,4.5295,4.4704,4.4762,4.5245,4.3987,4.3539,4.3777,4.2514,4.1814,4.1596,4.0984,4.0668,4.0636,4.0556,4.0484,4.0414,4.0123,3.9872,3.968,3.9575,3.9199,3.8531,3.8309,3.7736,3.6881,3.6508,3.6313,3.6302,3.5595,3.5181,3.5119,3.5193,3.4962,3.4391,3.5791,3.6367,3.5841,3.6549,0.0,0.0,0.0,0.0,0.0,0.0,0.0,0.0,0.0,4.2087,4.2235,0.0,4.2449,0.0,4.2808,4.3344,4.4266,4.4348,0.0,0.0,4.6263,4.6746,4.6971,4.7753,4.8283,4.8289,4.8871,4.9357,4.9576,4.9415,4.9644,5.061,5.0284,4.9942,4.9973,5.0496,5.0858,5.0874,5.0906,5.0948,5.0948,5.1007,5.1127,5.1341,5.1444,5.1547,5.1741,5.1761,5.1761,5.1761,5.1631,5.1501,5.152,5.1313,5.1307,5.1651,5.1522,5.1339,5.1261,5.1076,5.089,4.3986,4.4332,4.4351,4.4253,4.4111,4.3722,4.3799,4.4132,4.3813,4.3694,4.3762,4.4295,4.4987,4.5763,4.5782,4.5789,4.5769,4.5357,4.5402,4.5751,4.4428,4.3905,4.4007,4.2709,4.1898,4.1553,4.1102,4.0864,4.0839,4.0771,4.0674,4.06,4.0519,4.04,4.0233,4.0099,3.9798,3.9321,3.8892,3.8441,3.7915,3.7484,3.7203,3.7181,3.6677,3.6404,3.6362,3.6382,3.6197,3.5746,3.6736,3.7182,3.6853,3.7737,3.8457,0.0,0.0,0.0,0.0,0.0,0.0,0.0,0.0,0.0,0.0,0.0,4.338,4.3815,4.3928,4.4325,4.519,4.5265,4.5626,4.6499,4.7015,4.7453,4.7822,4.8638,4.9182,4.9188,4.9615,4.9906,4.9906,4.9571,4.9487,4.9936,4.9847,4.9898,5.0271,5.0734,5.0971,5.0978,5.1012,5.1041,5.1055,5.1069,5.1121,5.1133,5.1171,5.1202,5.1202,5.1202,5.1202,5.1202,5.1202,5.1202,5.1202,5.1202,5.1202,5.1196,5.1171,5.114,5.1108,5.1069,5.1022,4.5225,4.5932,4.5925,4.5906,4.5743,4.489,4.493,4.5579,4.4913,4.4643,4.4705,4.4833,4.5289,4.591,4.5935,4.5916,4.5935,4.5997,4.6014,4.5956,4.5103,4.4278,4.3476,4.2631,4.1779,4.1,4.1007,4.1007,4.1023,4.0963,4.0835,4.073,4.0655,4.0658,4.0693,4.0496,4.0416,4.0387,3.9575,3.9172,3.9226,3.8362,3.7886,3.7847,3.7638,3.7523,3.7539,3.752,3.7522,3.7524,3.7802,3.8033,3.8238,3.9118,3.9953,0.0,4.1632,0.0,0.0,0.0,0.0,0.0,0.0,0.0,0.0,4.3653,4.3981,4.4788,4.4913,4.5239,4.5944,4.5982,4.6346,4.7176,4.7395,4.7803,4.8677,4.9532,5.0062,5.0062,5.0056,5.0062,5.0062,4.9304,4.8794,4.9138,4.9528,5.0099,5.0907,5.1081,5.1094,5.1081,5.1081,5.1101,5.1108,5.1121,5.1133,5.1196,5.1202,5.1202,5.1202,5.1202,5.1202,5.1202,5.1202,5.1202,5.1202,5.1202,5.1202,5.1202,5.1196,5.1196,5.119,5.1159,5.1127,4.5891,4.6061,4.6075,4.6035,4.5944,4.5762,4.5751,4.584,4.5751,4.5702,4.5717,4.5808,4.5901,4.6061,4.6061,4.6051,4.6071,4.6075,4.6075,4.6056,4.5185,4.4349,4.3556,4.2689,4.1831,4.1042,4.1048,4.1073,4.1084,4.1009,4.0949,4.0854,4.0732,4.1023,4.168,0.0,0.0,0.0,4.115,4.1323,4.1963,4.113,4.0692,4.0759,3.9412,0.0,3.8676,3.8731,3.872,3.8722,4.0093,0.0,0.0,0.0,0.0,0.0,0.0,0.0,0.0,0.0,0.0,0.0,4.5511,4.5465,4.5483,4.5492,4.5567,4.5739,4.5763,4.5846,4.5982,4.5982,4.6346,4.7195,4.792,4.8696,4.9557,5.0425,5.095,5.0969,5.093,5.095,5.0872,5.0192,4.992,5.0464,5.0225,5.0278,5.1048,5.1115,5.1101,5.1081,5.1108,5.1134,5.1171,5.119,5.119,5.1202,5.1202,5.1202,5.1202,5.1202,5.1202,5.1202,5.1202,5.1202,5.1202,5.1202,5.1202,5.1202,5.1202,5.1202,5.1202,5.1177,5.1171,4.6146,0.0,4.6138,4.6113,0.0,4.6047,4.6021,4.5994,4.5983,4.6019,4.6061,4.6085,4.6119,4.6119,4.6113,4.6117,4.6117,4.6145,4.6154,4.6095,4.5239,4.4642,4.4198,4.2955,4.2111,4.1671,4.1293,4.11,4.1115,4.1457,4.162,4.1599,4.1903,4.2288,4.267,4.2628,4.2526,4.239,4.2324,4.2492,4.2895,4.2466,4.2283,4.2315,0.0,0.0,0.0,0.0,0.0,0.0,0.0,0.0,0.0,0.0,0.0,4.3898,4.4738,4.5247,4.5305,4.5704,4.596,4.5953,4.5989,4.6,4.5994,4.5991,4.5982,4.5982,4.5982,4.5982,4.5982,4.5982,4.6521,4.7764,4.8327,4.9085,5.0328,5.093,5.1202,5.1202,5.1202,5.1202,5.1202,5.0853,5.0717,5.1105,5.0833,5.0542,5.06,5.09,5.1153,5.1153,5.1166,5.1165,5.1177,5.1202,5.1202,5.1202,5.1202,5.1202,5.1202,5.1202,5.1202,5.1202,5.1202,5.1202,5.1202,5.1202,5.1202,5.1202,5.1202,5.1202,5.1202,5.1202,5.1202,4.6217,4.6213,4.6206,4.6185,4.6115,4.6126,4.6122,4.6093,0.0,0.0,0.0,4.6113,4.6122,4.6122,4.6106,4.6111,4.6111,4.6166,4.6197,4.6162,4.5472,4.5055,4.4827,4.3492,4.2783,4.2598,4.1915,4.1544,4.1583,4.2225,4.2548,4.2597,4.3202,4.3544,4.3626,4.3751,4.3724,4.3607,4.3435,4.3424,4.3558,4.3424,4.3343,4.3331,4.326,4.3204,4.3231,4.3231,4.3308,4.3463,4.3463,4.3542,4.3692,4.4376,4.4809,4.4885,4.5572,4.5983,4.5983,4.5986,4.5982,4.5982,4.5982,4.5982,4.5982,4.5982,4.5982,4.5982,4.5982,4.5982,4.5982,4.5982,4.6696,4.8405,4.858,4.9279,5.0911,5.1202,5.1202,5.1202,5.1202,5.1202,5.1202,5.1183,5.1202,5.1202,5.1163,5.0969,5.0367,5.06,5.0963,5.1138,5.1196,5.1196,5.1202,5.1202,5.1202,5.1202,5.1202,5.1202,5.1202,5.1202,5.1202,5.1202,5.1202,5.1202,5.1202,5.1202,5.1202,5.1202,5.1202,5.1202,5.1202,5.1202,5.1202,4.6299,4.6294,4.6212,4.62,4.6174,4.6177,4.6154,4.6117,4.6084,4.6084,4.6113,4.6154,4.6185,4.6185,4.6181,4.6173,4.6169,4.6212,4.6203,0.0,4.6086,4.5607,4.4919,4.4716,4.4233,4.3554,4.3386,4.3333,4.3349,4.3446,4.3509,4.3501,4.3559,4.3938,4.4613,4.5258,4.5615,4.5568,4.4743,4.4626,4.5302,4.4665,4.43,4.4264,4.3653,4.3304,4.3381,4.34,4.3729,4.4446,4.4485,4.4833,4.5567,4.5702,4.5797,4.5806,4.5914,4.5991,4.5991,4.5997,4.5982,4.5982,4.5982,4.5982,4.5982,4.5982,4.5982,4.5982,4.5982,4.5982,4.5982,4.5982,4.6696,4.8308,4.858,4.9299,5.0989,5.1202,5.1202,5.1202,5.1202,5.1202,5.1202,5.1202,5.1202,5.1202,5.1105,5.1105,5.0911,5.0464,5.0464,5.1008,5.1202,5.1202,5.1125,5.1183,5.1125,5.1202,5.1105,5.1027,5.1105,5.1105,5.1125,5.1202,5.1144,5.1144,5.1144,5.1202,5.1125,5.1105,5.1125,5.1202,5.1202,5.1202,5.1202,4.629,4.6303,4.6226,4.6212,4.6203,4.6196,4.6177,4.6154,4.6165,4.6154,4.6158,4.6177,4.6204,4.6204,4.6212,4.6199,4.6199,4.6206,4.6196,4.6206,4.6242,4.6038,4.5636,4.5215,4.479,4.438,4.3917,4.3705,4.3743,4.4157,4.4397,4.439,4.4793,4.518,4.5516,4.5857,4.6051,4.6,4.5543,4.5493,4.5802,4.5473,4.5318,4.5325,4.4934,4.4788,4.4819,4.4799,4.4988,4.5395,4.5395,4.5595,4.5961,4.6,4.5986,4.6002,4.5982,4.5982,4.5982,4.5982,4.5982,4.5982,4.5982,4.5982,4.5982,4.5982,4.5982,4.5982,4.5982,4.5982,4.5982,4.5982,4.6696,4.8425,4.858,4.9318,5.0814,5.1202,5.1202,5.1202,5.1202,5.1202,5.1202,5.1202,5.1202,5.1163,5.0853,5.0678,5.1105,5.0464,5.0023,5.0406,5.0484,5.0484,5.0522,5.0503,5.0484,5.0484,5.0076,5.0037,5.0348,5.0484,5.0697,5.1047,5.0833,5.0542,5.0503,5.0484,5.0484,5.0542,5.093,5.1125,5.1202,5.1202,5.1202,4.6296,4.6288,4.6238,4.6203,4.6209,4.6196,4.6209,4.6213,4.6203,4.6196,4.6212,4.6203,4.6209,4.6209,4.6209,4.6209,4.6213,4.6203,4.6212,4.6217,4.6297,4.6306,4.6232,4.5594,4.5285,4.5226,4.4602,4.427,4.4367,4.4961,4.526,4.5262,4.5861,4.6177,4.6117,4.611,4.6066,4.6002,4.5994,4.5958,4.5935,4.5972,4.5989,4.5989,4.5986,4.5982,4.5982,4.5982,4.5982,4.5982,4.5982,4.5982,4.5982,4.5982,4.5982,4.5982,4.5982,4.5982,4.5982,4.5982,4.5982,4.5982,4.5982,4.5982,4.5982,4.5982,4.5982,4.5982,4.5982,4.5982,4.5982,4.5982,4.6701,4.8327,4.858,4.9318,5.0872,5.1202,5.1202,5.1202,5.1202,5.1202,5.1202,5.1202,5.1202,5.1105,5.0581,5.0522,5.0969,5.0464,4.9945,4.9945,5.0062,5.0276,5.0192,5.027,5.0289,5.0178,4.9557,4.9512,4.979,4.9809,4.9809,5.0289,5.0037,4.9673,4.9615,4.9615,4.9596,4.9648,5.0231,5.0891,5.1163,5.1202,5.1202,4.63,4.6298,4.6288,4.6258,4.6206,4.6203,4.6201,4.6203,4.6206,4.6203,4.6201,4.6203,4.6203,4.6203,4.6203,4.6201,4.6203,4.6203,4.6231,4.6279,4.6303,4.629,4.6298,4.6202,4.6184,4.6144,4.6007,4.5892,4.5909,4.6056,4.6116,4.6089,4.6169,4.6158,4.6117,4.611,4.6066,4.6002,4.5997,4.5997,4.5991,4.5997,4.5997,4.5997,4.5997,4.5982,4.5982,4.5982,4.5982,4.5982,4.5982,4.5982,4.5982,4.5982,4.5982,4.5982,4.5982,4.5982,4.5982,4.5982,4.5982,4.5982,4.5982,4.5982,4.5982,4.5982,4.5982,4.5982,4.5982,4.5982,4.5982,4.5982,4.6682,4.8211,4.8502,4.9279,5.0755,5.1202,5.1202,5.1202,5.1144,5.1202,5.1105,5.1047,5.1086,5.1066,5.0891,5.0872,5.1086,5.0561,5.0042,5.0101,5.0522,5.095,5.093,5.1047,5.0853,5.0853,5.0276,4.9751,4.9557,4.9163,4.8813,4.9182,4.8871,4.8735,4.8735,4.8735,4.8716,4.8852,4.9454,5.0289,5.095,5.1202,5.1202,4.6302,4.63,4.6288,4.6258,4.6209,4.6206,4.6206,4.6206,4.6236,4.6258,4.626,4.6245,4.6221,4.6206,4.6206,4.6206,4.6209,4.6236,4.6279,4.6306,4.6292,4.6296,4.63,4.6302,4.6302,4.6302,4.6302,4.6302,4.6298,4.6264,4.6226,4.6206,4.6199,4.617,4.6117,4.6108,4.6061,4.6002,4.5982,4.5982,4.5982,4.5982,4.5982,4.5982,4.5982,4.5982,4.5982,4.5982,4.5982,4.5982,4.5982,4.5982,4.5982,4.5982,4.5982,4.5982,4.5982,4.5982,4.5982,4.5982,4.5982,4.5982,4.5982,4.5982,4.5982,4.5982,4.5982,4.5982,4.5982,4.5982,4.5982,4.5982,4.6502,4.757,4.7822,4.8522,5.0212,5.0431,5.0581,5.1047,5.0736,5.0445,5.0348,4.9978,4.994,5.027,5.0425,5.0581,5.1027,5.0872,5.0717,5.0697,5.0989,5.0891,5.0619,5.0425,5.0445,5.0212,4.924,4.8463,4.9007,4.8405,4.7978,4.8483,4.823,4.7978,4.7842,4.7842,4.7861,4.8172,4.9046,5.0042,5.0367,5.0853,5.1125,4.6302,4.63,4.6292,4.6264,4.6238,4.6238,4.6219,4.6238,4.6286,4.629,4.629,4.6298,4.6273,4.6221,4.6219,4.6219,4.6238,4.6286,4.629,4.629,4.6298,4.6302,4.6302,4.6302,4.6302,4.6302,4.6302,4.63,4.6296,4.6238,4.6201,4.6203,4.6206,4.6177,4.6122,4.6117,4.6071,4.6007,4.5982,4.5982,4.5982,4.5982,4.5982,4.5982,4.5982,4.5982,4.5982,4.5982,4.5982,4.5982,4.5982,4.5982,4.5982,4.5982,4.5982,4.5982,4.5982,4.5982,4.5982,4.5982,4.5982,4.5982,4.5982,4.5982,4.5982,4.5982,4.5982,4.5982,4.5982,4.5982,4.5982,4.5982,4.6366,4.7162,4.7293,4.7939,4.9318,4.9537,4.9784,5.0309,4.9862,4.9537,4.946,4.9066,4.8949,4.9415,4.9557,4.9712,5.0386,5.06,5.0775,5.0853,5.1008,5.0969,5.0386,5.0386,5.025,4.9978,4.9163,4.8561,4.8794,4.8191,4.7725,4.8483,4.7939,4.7784,4.7997,4.7842,4.7842,4.8191,4.9007,5.0004,5.045,5.0872,5.1125,4.6302,4.6302,4.63,4.63,4.63,4.6298,4.6298,4.6298,4.63,4.63,4.63,4.63,4.63,4.6298,4.6278,4.63,4.6298,4.6298,4.6298,4.63,4.63,4.6302,4.6302,4.6302,4.6302,4.6302,4.6302,4.6296,4.6286,4.6233,4.6201,4.6203,4.6206,4.6158,4.6122,4.6113,4.6071,4.6007,4.5982,4.5982,4.5982,4.5982,4.5982,4.5982,4.5982,4.5982,4.5982,4.5982,4.5982,4.5982,4.5982,4.5982,4.5982,4.5982,4.5982,4.5982,4.5982,4.5982,4.5982,4.5982,4.5982,4.5982,4.5982,4.5982,4.5982,4.5982,4.5982,4.5982,4.5982,4.5982,4.5982,4.5982,4.6307,4.7065,4.7254,4.7667,4.8522,4.8658,4.8638,4.8813,4.8774,4.8599,4.8619,4.8638,4.8483,4.8599,4.8658,4.8755,4.9027,4.9532,4.9901,5.0198,5.0619,5.1163,5.1105,5.093,5.0989,5.0736,5.0076,4.959,4.9479,4.9246,4.8852,4.858,4.8405,4.8366,4.8483,4.8619,4.8794,4.9071,4.9382,5.0062,5.0412,5.095,5.1202,4.6302,4.6302,4.6302,4.6302,4.6302,4.6302,4.6302,4.6302,4.6302,4.6302,4.6302,4.6302,4.6302,4.6302,4.6302,4.6302,4.6302,4.6302,4.6302,4.6302,4.6302,4.6302,4.6302,4.6302,4.6302,4.6302,4.6302,4.6292,4.6236,4.6201,4.6206,4.6209,4.6208,4.6166,4.6117,4.6119,4.6076,4.6007,4.5982,4.5982,4.5982,4.5982,4.5982,4.5982,4.5982,4.5982,4.5982,4.5982,4.5982,4.5982,4.5982,4.5982,4.5982,4.5982,4.5982,4.5982,4.5982,4.5982,4.5982,4.5982,4.5982,4.5982,4.5982,4.5982,4.5982,4.5982,4.5982,4.5982,4.5982,4.5982,4.5982,4.5982,4.6138,4.639,4.6482,4.6832,4.7531,4.7784,4.7958,4.8347,4.8153,4.757,4.7162,4.6948,4.7162,4.7648,4.7764,4.7978,4.8483,4.8891,4.9221,4.9771,5.0178,5.0561,5.1183,5.1183,5.1144,5.093,5.0522,5.0017,4.9771,4.9318,4.8891,4.8968,4.8871,4.8891,4.8968,4.8988,4.924,4.9265,4.9615,5.0178,5.0295,5.0872,5.1144,4.6302,4.6302,4.6302,4.6302,4.6302,4.6302,4.6302,4.6302,4.6302,4.6302,4.6302,4.6302,4.6302,4.6302,4.6302,4.6302,4.6302,4.6302,4.6302,4.6302,4.6302,4.6302,4.6302,4.6302,4.6302,4.63,4.6298,4.6267,4.6209,4.6212,4.6213,4.6208,4.6212,4.6173,4.6108,4.611,4.6066,4.6007,4.5982,4.5982,4.5982,4.5982,4.5982,4.5982,4.5982,4.5982,4.5982,4.5982,4.5982,4.5982,4.5982,4.5982,4.5982,4.5982,4.5982,4.5982,4.5982,4.5982,4.5982,4.5982,4.5982,4.5982,4.5982,4.5982,4.5982,4.5982,4.5982,4.5982,4.5982,4.5982,4.5982,4.5982,4.5982,4.5982,4.5982,4.621,4.6773,4.6871,4.7143,4.7453,4.7201,4.6638,4.6157,4.6041,4.6307,4.6832,4.689,4.7162,4.7609,4.8055,4.8483,4.9318,4.9751,5.0328,5.093,5.1183,5.1202,5.1027,5.095,5.0464,5.0134,4.9609,4.9357,4.9376,4.9396,4.9415,4.9415,4.9415,4.9415,4.9415,4.994,5.0639,5.0736,5.0833,5.1086,4.6302,4.6302,4.6302,4.6302,4.6302,4.6302,4.6302,4.6302,4.6302,4.6302,4.6302,4.6302,4.6302,4.6302,4.6302,4.6302,4.6302,4.6302,4.6302,4.6302,4.6302,4.6302,4.6302,4.6302,4.63,4.6298,4.629,4.6258,4.6206,4.6209,4.6206,4.6197,4.6209,4.6145,4.612,4.6095,4.6066,4.6007,4.5982,4.5982,4.5982,4.5982,4.5982,4.5982,4.5982,4.5982,4.5982,4.5982,4.5982,4.5982,4.5982,4.5982,4.5982,4.5982,4.5982,4.5982,4.5982,4.5982,4.5982,4.5982,4.5982,4.5982,4.5982,4.5982,4.5982,4.5982,4.5982,4.5982,4.5982,4.5982,4.5982,4.5982,4.5982,4.5982,4.5982,4.6041,4.6074,4.6041,4.6021,4.6177,4.6157,4.6041,4.6002,4.5982,4.6099,4.6138,4.6157,4.6191,4.6443,4.6929,4.7628,4.8463,4.9188,4.9901,5.0581,5.1183,5.1202,5.1183,5.1163,5.095,5.0872,5.0522,5.0445,5.0445,5.0406,5.0406,5.0386,5.0406,5.0542,5.0619,5.1008,5.0989,5.1027,5.1066,5.1105,4.6302,4.6302,4.6302,4.6302,4.6302,4.6302,4.6302,4.6302,4.6302,4.6302,4.6302,4.6302,4.6302,4.6302,4.6302,4.6302,4.6302,4.6302,4.6302,4.6302,4.6302,4.6302,4.6302,4.6302,4.6296,4.629,4.626,4.6226,4.6212,4.6196,4.6212,4.6189,4.6154,4.6132,4.61,4.6042,4.6026,4.6002,4.5982,4.5982,4.5982,4.5982,4.5982,4.5982,4.5982,4.5982,4.5982,4.5982,4.5982,4.5982,4.5982,4.5982,4.5982,4.5982,4.5982,4.5982,4.5982,4.5982,4.5982,4.5982,4.5982,4.5982,4.5982,4.5982,4.5982,4.5982,4.5982,4.5982,4.5982,4.5982,4.5982,4.5982,4.5982,4.5982,4.5982,4.5982,4.5982,4.5982,4.5982,4.5982,4.5982,4.5982,4.5982,4.5982,4.5982,4.5982,4.5982,4.5982,4.606,4.6268,4.6735,4.757,4.8444,4.9324,4.9959,5.0522,5.0775,5.0969,5.1105,5.1202,5.1202,5.1202,5.1202,5.1202,5.1202,5.1202,5.1202,5.1202,5.1202,5.1202,5.1144,5.1144,5.1202,5.1202,5.1202,4.6302,4.6302,4.6302,4.6302,4.6302,4.6302,4.6302,4.6302,4.6302,4.6302,4.6302,4.6302,4.6302,4.6302,4.6302,4.6302,4.6302,4.6302,4.6302,4.6302,4.6302,4.6302,4.6302,4.6302,4.6296,4.6284,4.6233,4.6201,4.6203,4.6199,4.6197,4.6158,4.6113,4.609,4.6066,4.6007,4.5982,4.5982,4.5982,4.5982,4.5982,4.5982,4.5982,4.5982,4.5982,4.5982,4.5982,4.5982,4.5982,4.5982,4.5982,4.5982,4.5982,4.5982,4.5982,4.5982,4.5982,4.5982,4.5982,4.5982,4.5982,4.5982,4.5982,4.5982,4.5982,4.5982,4.5982,4.5982,4.5982,4.5982,4.5982,4.5982,4.5982,4.5982,4.5982,4.5982,4.5982,4.5982,4.5982,4.5982,4.5982,4.5982,4.5982,4.5982,4.5982,4.5982,4.5982,4.5982,4.5982,4.6002,4.6521,4.7045,4.7725,4.8541,4.9265,4.9804,5.027,5.0619,5.095,5.1105,5.1202,5.1202,5.1202,5.1202,5.1202,5.1202,5.1202,5.1202,5.1202,5.1202,5.1202,5.1202,5.1202,5.1202,5.1202,4.6302,4.6302,4.6302,4.6302,4.6302,4.6302,4.6302,4.6302,4.6302,4.6302,4.6302,4.6302,4.6302,4.6302,4.6302,4.6302,4.6302,4.6302,4.6302,4.6302,4.6302,4.6302,4.6302,4.6302,4.6294,4.6262,4.6211,4.6198,4.62,4.6208,4.6177,4.6117,4.6114,4.6066,4.6012,4.5982,4.5982,4.5982,4.5982,4.5982,4.5982,4.5982,4.5982,4.5982,4.5982,4.5982,4.5982,4.5982,4.5982,4.5982,4.5982,4.5982,4.5982,4.5982,4.5982,4.5982,4.5982,4.5982,4.5982,4.5982,4.5982,4.5982,4.5982,4.5982,4.5982,4.5982,4.5982,4.5982,4.5982,4.5982,4.5982,4.5982,4.5982,4.5982,4.5982,4.5982,4.5982,4.5982,4.5982,4.5982,4.5982,4.5982,4.5982,4.5982,4.5982,4.5982,4.5982,4.5982,4.5982,4.6099,4.6404,4.6832,4.7259,4.7784,4.8522,4.9066,4.9512,4.9843,5.0367,5.0853,5.1144,5.1202,5.1202,5.1202,5.1202,5.1202,5.1202,5.1202,5.1202,5.1202,5.1202,5.1202,5.1202,5.1202,5.1202,4.6302,4.6302,4.6302,4.6302,4.6302,4.6302,4.6302,4.6302,4.6302,4.6302,4.6302,4.6302,4.6302,4.6302,4.6302,4.6302,4.6302,4.6302,4.6302,4.6302,4.6302,4.6302,4.6302,4.63,4.6273,4.6236,4.6209,4.6212,4.6206,4.6201,4.6177,4.6113,4.609,4.6066,4.6007,4.5982,4.5982,4.5982,4.5982,4.5982,4.5982,4.5982,4.5982,4.5982,4.5982,4.5982,4.5982,4.5982,4.5982,4.5982,4.5982,4.5982,4.5982,4.5982,4.5982,4.5982,4.5982,4.5982,4.5982,4.5982,4.5982,4.5982,4.5982,4.5982,4.5982,4.5982,4.5982,4.5982,4.5982,4.5982,4.5982,4.5982,4.5982,4.5982,4.5982,4.5982,4.5982,4.5982,4.5982,4.5982,4.5982,4.5982,4.5982,4.5982,4.5982,4.5982,4.5982,4.5982,4.5982,4.6002,4.623,4.6424,4.6773,4.722,4.7745,4.8289,4.8735,4.9007,4.9629,5.0522,5.0872,5.1202,5.1202,5.1202,5.1202,5.1202,5.1202,5.1202,5.1202,5.1202,5.1202,5.1202,5.1202,5.1202,5.1196,4.6302,4.6302,4.6302,4.6302,4.6302,4.6302,4.6302,4.6302,4.6302,4.6302,4.6302,4.6302,4.6302,4.6302,4.6302,4.6302,4.6302,4.6302,4.6302,4.6302,4.6302,4.6302,4.6302,4.63,4.6271,4.6209,4.6206,4.6209,4.6199,4.617,4.6149,4.6113,4.6061,4.6056,4.6002,4.5982,4.5982,4.5982,4.5982,4.5982,4.5982,4.5982,4.5982,4.5982,4.5982,4.5982,4.5982,4.5982,4.5982,4.5982,4.5982,4.5982,4.5982,4.5982,4.5982,4.5982,4.5982,4.5982,4.5982,4.5982,4.5982,4.5982,4.5982,4.5982,4.5982,4.5982,4.5982,4.5982,4.5982,4.5982,4.5982,4.5982,4.5982,4.5982,4.5982,4.5982,4.5982,4.5982,4.5982,4.5982,4.5982,4.5982,4.5982,4.5982,4.5982,4.5982,4.5982,4.5982,4.5982,4.5982,4.6021,4.621,4.6307,4.6638,4.6812,4.724,4.7978,4.8289,4.9182,5.0056,5.0639,5.1086,5.1125,5.1125,5.1163,5.1183,5.1105,5.1105,5.1202,5.1202,5.1202,5.1202,5.1202,5.1222,5.1196,4.6302,4.6302,4.6302,4.6302,4.6302,4.6302,4.6302,4.6302,4.6302,4.6302,4.6302,4.6302,4.6302,4.6302,4.6302,4.6302,4.6302,4.6302,4.6302,4.6302,4.6302,4.6302,4.6302,4.6302,4.6271,4.6233,4.6209,4.6212,4.6183,4.6146,4.6122,4.6089,4.6052,4.6026,4.6002,4.5982,4.5982,4.5982,4.5982,4.5982,4.5982,4.5982,4.5982,4.5982,4.5982,4.5982,4.5982,4.5982,4.5982,4.5982,4.5982,4.5982,4.5982,4.5982,4.5982,4.5982,4.5982,4.5982,4.5982,4.5982,4.5982,4.5982,4.5982,4.5982,4.5982,4.5982,4.5982,4.5982,4.5982,4.5982,4.5982,4.5982,4.5982,4.5982,4.5982,4.5982,4.5982,4.5982,4.5982,4.5982,4.5982,4.5982,4.5982,4.5982,4.5982,4.5982,4.5982,4.5982,4.5982,4.5982,4.5982,4.6041,4.606,4.6041,4.6099,4.6157,4.6968,4.7667,4.8794,4.9707,5.0406,5.0794,5.0911,5.0891,5.0464,5.0503,5.0814,5.0891,5.0989,5.1202,5.1202,5.1202,5.1202,5.1202,5.1196,4.6302,4.6302,4.6302,4.6302,4.6302,4.6302,4.6302,4.6302,4.6302,4.6302,4.6302,4.6302,4.6302,4.6302,4.6302,4.6302,4.6302,4.6302,4.6302,4.6302,4.6302,4.6302,4.6302,4.6302,4.6294,4.6262,4.6211,4.6198,4.6193,4.6181,4.6154,4.6113,4.6085,4.6042,4.6002,4.5982,4.5982,4.5982,4.5982,4.5982,4.5982,4.5982,4.5982,4.5982,4.5982,4.5982,4.5982,4.5982,4.5982,4.5982,4.5982,4.5982,4.5982,4.5982,4.5982,4.5982,4.5982,4.5982,4.6021,4.6079,4.6002,4.6079,4.6118,4.5982,4.5982,4.5982,4.5982,4.5982,4.5982,4.5982,4.5982,4.5982,4.5982,4.5982,4.5982,4.5982,4.5982,4.5982,4.5982,4.5982,4.5982,4.5982,4.5982,4.5982,4.5982,4.5982,4.5982,4.5982,4.5982,4.5982,4.5982,4.5982,4.5982,4.5982,4.5982,4.6079,4.6638,4.7414,4.8463,4.9182,4.9881,5.0173,5.0173,4.9901,4.9473,4.9745,5.0289,5.0367,5.0406,5.0794,5.1202,5.1202,5.1202,5.1202,5.1184,4.6302,4.6302,4.6302,4.6302,4.6302,4.6302,4.6302,4.6302,4.6302,4.6302,4.6302,4.6302,4.6302,4.6302,4.6302,4.6302,4.6302,4.6302,4.6302,4.6302,4.6302,4.6302,4.6302,4.63,4.6294,4.6303,4.6233,4.6201,4.62,4.6189,4.6177,4.6117,4.6114,4.6066,4.6007,4.5982,4.5982,4.5982,4.5982,4.5982,4.5982,4.5982,4.5982,4.5982,4.5982,4.5982,4.5982,4.5982,4.5982,4.5982,4.5982,4.5982,4.5982,4.5982,4.5982,4.5982,4.5982,4.6254,4.6463,4.6618,4.6638,4.6599,4.6599,4.6327,4.6138,4.5982,4.5982,4.5982,4.5982,4.5982,4.5982,4.5982,4.5982,4.5982,4.5982,4.5982,4.5982,4.5982,4.5982,4.5982,4.5982,4.5982,4.5982,4.5982,4.5982,4.5982,4.5982,4.5982,4.5982,4.5982,4.5982,4.5982,4.5982,4.5982,4.5982,4.6177,4.6546,4.7317,4.8211,4.8716,4.9163,4.9279,4.9279,4.8988,4.8774,4.9324,4.979,4.9809,5.0076,5.0794,5.1183,5.1202,5.1202,5.1202,5.1172,4.6302,4.6302,4.6302,4.6302,4.6302,4.6302,4.6302,4.6302,4.6302,4.6302,4.6302,4.6302,4.6302,4.6302,4.6302,4.6302,4.6302,4.6302,4.6302,4.6302,4.6302,4.6302,4.6302,4.63,4.6296,4.6306,4.6233,4.6201,4.6203,4.6196,4.617,4.6141,4.6119,4.6076,4.6037,4.6002,4.5982,4.5982,4.5982,4.5982,4.5982,4.5982,4.5982,4.5982,4.5982,4.5982,4.5982,4.5982,4.5982,4.5982,4.5982,4.5982,4.5982,4.5982,4.6118,4.6177,4.6313,4.6715,4.7337,4.7492,4.7492,4.7512,4.7492,4.7065,4.6502,4.6274,4.6177,4.6041,4.5982,4.5982,4.5982,4.5982,4.5982,4.5982,4.5982,4.5982,4.5982,4.5982,4.5982,4.5982,4.5982,4.5982,4.5982,4.5982,4.5982,4.5982,4.5982,4.5982,4.5982,4.5982,4.5982,4.5982,4.5982,4.5982,4.5982,4.606,4.6468,4.7084,4.7958,4.8153,4.8405,4.8386,4.8386,4.8327,4.8347,4.8683,4.9032,4.924,4.9745,5.0717,5.1163,5.1202,5.1202,5.1202,5.1166,4.6302,4.6302,4.6302,4.6302,4.6302,4.6302,4.6302,4.6302,4.6302,4.6302,4.6302,4.6302,4.6302,4.6302,4.6302,4.6302,4.6302,4.6302,4.6302,4.6302,4.6302,4.6302,4.6302,4.6302,4.63,4.6275,4.624,4.6206,4.6198,4.6193,4.6181,4.6181,4.6141,4.6099,4.6071,4.6032,4.6007,4.6007,4.6002,4.5982,4.5982,4.5982,4.5982,4.5982,4.5982,4.606,4.606,4.6041,4.5982,4.5982,4.6002,4.6041,4.6177,4.6177,4.6463,4.6832,4.7065,4.7453,4.8211,4.8366,4.8386,4.8386,4.8366,4.7958,4.7337,4.7051,4.6804,4.626,4.6065,4.5982,4.5982,4.6104,4.6041,4.6021,4.6182,4.6201,4.6182,4.6221,4.6206,4.6206,4.6124,4.5982,4.5982,4.5982,4.5982,4.5982,4.5982,4.5982,4.5982,4.5982,4.5982,4.5982,4.5982,4.5982,4.5982,4.606,4.6288,4.6832,4.7414,4.7453,4.7609,4.755,4.7492,4.7453,4.7279,4.724,4.7706,4.8425,4.9279,5.0134,5.0658,5.1144,5.1202,5.1196,5.1172,4.6302,4.6302,4.6302,4.6302,4.6302,4.6302,4.6302,4.6302,4.6302,4.6302,4.6302,4.6302,4.6302,4.6302,4.6302,4.6302,4.6302,4.6302,4.6302,4.6302,4.6302,4.6302,4.6302,4.6302,4.6302,4.6296,4.6267,4.6214,4.6206,4.6206,4.6199,4.6212,4.6177,4.6141,4.6099,4.6076,4.6061,4.6042,4.6012,4.5982,4.5982,4.5982,4.5982,4.5982,4.606,4.6235,4.6638,4.6676,4.6929,4.7259,4.7356,4.7337,4.7303,4.7342,4.7317,4.7434,4.7745,4.8347,4.9091,4.9265,4.9271,4.9282,4.9287,4.8865,4.8292,4.7947,4.7558,4.6878,4.6178,4.6042,4.6042,4.6431,4.6683,4.68,4.7053,4.7306,4.7364,4.7344,4.7092,4.6698,4.6391,4.6206,4.5982,4.5982,4.5982,4.5982,4.6002,4.6007,4.6007,4.6007,4.6007,4.5982,4.5982,4.5982,4.5982,4.6041,4.6079,4.6579,4.6929,4.6968,4.6968,4.6987,4.6812,4.6657,4.6404,4.6332,4.6968,4.7881,4.8716,4.9518,5.0081,5.0581,5.1008,5.119,5.1146,4.6302,4.6302,4.6302,4.6302,4.6302,4.6302,4.6302,4.6302,4.6302,4.6302,4.6302,4.6302,4.6302,4.6302,4.6302,4.6302,4.6302,4.6302,4.6302,4.6302,4.6302,4.6302,4.6302,4.6302,4.6302,4.63,4.6294,4.6262,4.6206,4.6212,4.6206,4.6204,4.6212,4.6181,4.6122,4.6099,4.611,4.6081,4.6061,4.6007,4.6002,4.5982,4.5982,4.606,4.6171,4.6618,4.7118,4.7473,4.7822,4.823,4.8444,4.8502,4.8599,4.8755,4.8541,4.8094,4.8522,4.9265,4.9893,5.017,5.0167,5.0199,5.0199,4.9727,4.8991,4.8498,4.8027,4.7423,4.6636,4.6266,4.65,4.6986,4.7395,4.7765,4.8217,4.8645,4.8489,4.8353,4.8061,4.7577,4.6907,4.647,4.6314,4.6027,4.6037,4.6037,4.6037,4.6037,4.6037,4.6037,4.6037,4.6007,4.5982,4.5982,4.5982,4.5982,4.6021,4.6196,4.6482,4.6579,4.656,4.656,4.6346,4.623,4.6157,4.6215,4.6793,4.7254,4.7978,4.8696,4.944,5.0042,5.0464,5.0886,5.1023,4.6302,4.6302,4.6302,4.6302,4.6302,4.6302,4.6302,4.6302,4.6302,4.6302,4.6302,4.6302,4.6302,4.6302,4.6302,4.6302,4.6302,4.6302,4.6302,4.6302,4.6302,4.6302,4.6302,4.6302,4.6302,4.63,4.6298,4.6267,4.6231,4.6215,4.6196,4.6196,4.6201,4.6205,4.6181,4.6141,4.6113,4.6089,4.6085,4.6061,4.6026,4.6002,4.5982,4.6177,4.6657,4.7181,4.7531,4.8036,4.8605,4.8721,4.8721,4.8644,4.8696,4.9363,4.9654,4.9635,4.9771,5.0112,5.0789,5.0917,5.0923,5.0938,5.101,5.0626,4.987,4.8714,4.7973,4.7525,4.6732,4.6569,4.6979,4.7345,4.7813,4.8362,4.8892,4.8989,4.8927,4.9425,4.9133,4.8739,4.816,4.726,4.6703,4.6355,4.6089,4.6089,4.6089,4.6108,4.6084,4.6071,4.6061,4.6037,4.6022,4.6022,4.6012,4.6012,4.6007,4.6007,4.6118,4.6268,4.6268,4.6249,4.6157,4.6041,4.5982,4.6002,4.6346,4.6793,4.7298,4.792,4.8658,4.9343,4.9945,5.0322,5.0588,4.629,4.6302,4.6302,4.6302,4.6302,4.6302,4.6302,4.6302,4.6302,4.6302,4.6302,4.6302,4.6302,4.6302,4.6302,4.6302,4.6302,4.6302,4.6302,4.6302,4.6302,4.6302,4.6302,4.6302,4.6302,4.6302,4.63,4.6292,4.626,4.625,4.6259,4.6196,4.6206,4.6196,4.6204,4.6185,4.6177,4.6145,4.6138,4.6095,4.6061,4.6026,4.5982,4.6041,4.6851,4.7473,4.81,4.8849,4.9593,4.989,5.0075,5.0067,5.0125,5.0441,5.0641,5.068,5.068,5.0865,5.1141,5.1225,5.1263,5.1281,5.13,5.1086,5.0583,4.9696,4.8645,4.8252,4.7448,4.7228,4.756,4.7911,4.8633,4.9237,4.9742,4.9976,5.0034,5.0174,5.0235,4.9845,4.9393,4.8518,4.7681,4.7274,4.6893,4.6493,4.6434,4.6372,4.6248,4.6115,4.6106,4.6078,4.606,4.6066,4.6076,4.6066,4.6037,4.6032,4.6002,4.6118,4.606,4.6021,4.5982,4.5982,4.5982,4.6021,4.6035,4.6288,4.6735,4.7298,4.79,4.8502,4.9071,4.9202,4.9326,4.6299,4.6287,4.6303,4.6302,4.6302,4.6302,4.6302,4.6302,4.6302,4.6302,4.6302,4.6302,4.6302,4.6302,4.6302,4.6302,4.6302,4.6302,4.6302,4.6302,4.6302,4.6302,4.6302,4.6302,4.6302,4.6302,4.6302,4.6296,4.6292,4.6286,4.6255,4.6212,4.6209,4.62,4.6206,4.6192,4.6201,4.6201,4.6128,4.611,4.6095,4.6032,4.6002,4.6254,4.6851,4.7706,4.8577,4.939,5.0236,5.0923,5.105,5.0967,5.105,5.1064,5.1111,5.107,5.0961,5.0766,5.0929,5.1059,5.1261,5.131,5.1321,5.1301,5.1214,5.0591,4.9928,4.9148,4.8362,4.8048,4.8244,4.8826,4.9467,5.0209,5.0853,5.1187,5.1343,5.107,5.0912,5.0676,5.0266,4.9897,4.9142,4.8501,4.7861,4.7128,4.681,4.6709,4.6586,4.6498,4.6313,4.6305,4.6135,4.6115,4.6089,4.6075,4.6061,4.6047,4.6037,4.6032,4.6032,4.6007,4.5982,4.5982,4.5982,4.6002,4.6021,4.6079,4.6177,4.6715,4.722,4.7648,4.8055,4.8191,4.8477,4.6305,4.63,4.6287,4.6302,4.6302,4.6302,4.6302,4.6302,4.6302,4.6302,4.6302,4.6302,4.6302,4.6302,4.6302,4.6302,4.6302,4.6302,4.6302,4.6302,4.6302,4.6302,4.6302,4.6302,4.6302,4.6302,4.6302,4.63,4.6298,4.6296,4.6247,4.6211,4.6228,4.6217,4.6206,4.6196,4.6196,4.6197,4.6145,4.6123,4.6085,4.6042,4.6026,4.6177,4.6851,4.7717,4.8579,4.9449,5.033,5.1204,5.1295,5.1288,5.1289,5.1296,5.1291,5.1028,5.0656,5.0369,5.031,5.0614,5.1179,5.1325,5.1381,5.1366,5.1347,5.0624,5.0096,4.9883,4.912,4.9139,4.9489,5.0034,5.0228,5.0795,5.1206,5.1284,5.1401,5.1381,5.1243,5.1281,5.1027,5.06,5.0385,4.9715,4.882,4.807,4.7852,4.7752,4.7435,4.7253,4.6811,4.6588,4.6284,4.6167,4.6115,4.6103,4.6099,4.6093,4.6075,4.6081,4.609,4.6061,4.6032,4.5982,4.5982,4.5982,4.6002,4.6041,4.6118,4.623,4.656,4.7007,4.722,4.7337,4.792,4.6289,4.6305,4.6294,4.6305,4.6302,4.6302,4.6302,4.6302,4.6302,4.6302,4.6302,4.6302,4.6302,4.6302,4.6302,4.6302,4.6302,4.6302,4.6302,4.6302,4.6302,4.6302,4.6302,4.6302,4.6302,4.6302,4.6302,4.6302,4.63,4.6302,4.6298,4.6271,4.6243,4.6231,4.6223,4.6209,4.6209,4.6189,4.6166,4.6145,4.6104,4.6075,4.6052,4.606,4.6892,4.7748,4.8594,4.9493,5.038,5.1035,5.1271,5.1346,5.1341,5.1352,5.1104,5.0703,5.0229,4.9847,4.9461,4.9706,4.998,5.068,5.1035,5.1402,5.1401,5.103,5.0581,5.0211,4.988,4.9921,4.996,5.0116,5.0351,5.1074,5.1386,5.1386,5.1387,5.1387,5.1387,5.1347,5.1348,5.1171,5.1034,5.0878,4.992,4.9053,4.8915,4.8757,4.8403,4.8029,4.7613,4.7176,4.6876,4.6587,4.6524,4.6375,4.6206,4.6279,4.6309,4.6424,4.6547,4.612,4.6085,4.6037,4.6138,4.6274,4.6274,4.6079,4.6118,4.6327,4.6327,4.6371,4.6482,4.6754,4.7589,4.6289,4.6306,4.6296,4.6306,4.6302,4.6302,4.6302,4.6302,4.6302,4.6302,4.6302,4.6302,4.6302,4.6302,4.6302,4.6302,4.6302,4.6302,4.6302,4.6302,4.6302,4.6302,4.6302,4.6302,4.6302,4.6302,4.6302,4.6302,4.6302,4.6302,4.63,4.6298,4.6294,4.6264,4.6253,4.6215,4.6219,4.6203,4.6201,4.6181,4.6145,4.6108,4.6075,4.6075,4.6645,4.732,4.8127,4.9004,4.9909,5.066,5.1154,5.1369,5.14,5.1271,5.0924,5.0363,4.9802,4.9375,4.8828,4.9082,4.9413,5.0194,5.0972,5.1299,5.1394,5.1393,5.102,5.069,5.0515,5.0458,5.0459,5.0618,5.0756,5.1364,5.1383,5.1384,5.1383,5.1384,5.1402,5.1382,5.1381,5.1381,5.1323,5.1188,5.0819,5.0137,5.0156,4.9824,4.9277,4.8905,4.8474,4.8042,4.7628,4.7325,4.7036,4.7223,4.7387,4.7467,4.7443,4.7267,4.7172,4.678,4.6771,4.7153,4.7162,4.6832,4.6915,4.7167,4.6871,4.6502,4.6696,4.7031,4.724,4.7667,4.8055,4.6288,4.6306,4.6291,4.63,4.63,4.63,4.63,4.63,4.6302,4.6302,4.6302,4.6302,4.6302,4.6302,4.6302,4.6302,4.6302,4.6302,4.6302,4.6302,4.6302,4.6302,4.6302,4.6302,4.6302,4.6302,4.6302,4.6302,4.6302,4.6302,4.6302,4.6378,4.6435,4.6487,4.634,4.6298,4.6264,4.6258,4.6403,4.6446,4.6333,4.6312,4.6294,4.6139,4.6246,4.6824,4.7654,4.832,4.9166,4.9984,5.0666,5.0896,5.0967,5.1014,5.0624,4.9902,4.9236,4.8549,4.7865,4.9193,4.9757,5.0028,5.0708,5.1348,5.14,5.1377,5.1379,5.1031,5.1151,5.1234,5.1294,5.1316,5.1337,5.1357,5.1376,5.1395,5.1395,5.1394,5.1394,5.1393,5.1396,5.1398,5.1398,5.1379,5.1358,5.1204,5.132,5.0931,5.023,4.9646,4.9198,4.8847,4.8418,4.8142,4.7997,4.8365,4.8569,4.8621,4.8448,4.8121,4.8037,4.7923,4.8049,4.8333,4.8094,4.7686,4.8055,4.8502,4.8114,4.7784,4.7939,4.8211,4.8366,4.8483,4.8755,4.6307,4.6289,4.6294,4.6296,4.629,4.629,4.6294,4.63,4.6302,4.6302,4.6302,4.6302,4.6302,4.6302,4.6302,4.6302,4.6302,4.6302,4.6302,4.6302,4.6302,4.6302,4.6302,4.6302,4.6302,4.6302,4.6302,4.6302,4.6302,4.6302,4.6302,4.6358,4.6905,4.7114,4.7296,4.7493,4.793,4.7954,4.7894,4.77,4.7085,4.696,4.671,4.6202,4.6186,4.655,4.727,4.7786,4.8418,4.9137,4.978,4.9911,4.99,4.9902,4.9433,4.8729,4.8098,4.7954,4.7853,4.8594,4.9161,4.9687,5.0544,5.1341,5.1394,5.1394,5.1394,5.1394,5.1398,5.1402,5.1382,5.1363,5.1384,5.1384,5.1402,5.1402,5.1402,5.1402,5.1402,5.1402,5.1384,5.1385,5.1387,5.139,5.139,5.1391,5.1393,5.1395,5.0852,5.0267,4.9761,4.9528,4.9217,4.8965,4.8925,4.9254,4.9281,4.9176,4.8931,4.8587,4.8623,4.8915,4.8826,4.8857,4.8702,4.8599,4.8949,4.9221,4.9324,4.9265,4.9202,4.9007,4.891,4.8988,4.9182,4.6285,4.6289,4.6295,4.6298,4.6306,4.6279,4.6267,4.6294,4.6296,4.6296,4.63,4.6302,4.6302,4.6302,4.6302,4.6302,4.6302,4.6302,4.6302,4.6302,4.6302,4.6302,4.6302,4.6302,4.6302,4.6302,4.6302,4.6302,4.6302,4.6302,4.6515,4.6963,4.7586,4.8166,4.8389,4.8708,4.8655,4.86,4.8522,4.8413,4.7918,4.756,4.7139,4.6671,4.6437,4.6426,4.6921,4.7345,4.7738,4.8261,4.8615,4.8802,4.8847,4.8769,4.8416,4.7885,4.7583,4.757,4.776,4.8798,4.9368,4.9528,5.0674,5.1297,5.1394,5.1394,5.1394,5.1394,5.1394,5.1394,5.1394,5.1394,5.1394,5.1394,5.1394,5.1396,5.1396,5.1396,5.1396,5.1394,5.1394,5.1394,5.1394,5.1394,5.1398,5.1402,5.1385,5.139,5.1394,5.0867,5.0419,5.0245,5.0171,5.0057,4.998,5.0077,5.001,4.9751,4.9566,4.9396,4.9671,5.0018,4.9681,4.9479,4.9673,4.9804,4.9765,4.9901,5.0076,5.0114,5.0037,4.9804,4.9512,4.9629,4.9843,4.6243,4.6287,4.6299,4.6303,4.6286,4.6231,4.6233,4.6284,4.6286,4.629,4.63,4.63,4.6302,4.6302,4.6302,4.6302,4.6302,4.6302,4.6302,4.6302,4.6302,4.6302,4.6302,4.6302,4.6302,4.6302,4.6302,4.6302,4.6302,4.6302,4.669,4.7489,4.8193,4.8888,4.9269,4.9469,4.9279,4.938,4.9363,4.9196,4.8803,4.8012,4.7599,4.7096,4.6625,4.6317,4.6559,4.6917,4.7242,4.7682,4.8113,4.8502,4.8727,4.8789,4.8257,4.7778,4.7426,4.7535,4.7945,4.9183,4.9948,5.0186,5.0887,5.1297,5.1394,5.1394,5.1394,5.1394,5.1394,5.1394,5.1394,5.1394,5.1394,5.1394,5.1394,5.1394,5.1394,5.1394,5.1394,5.1394,5.1394,5.1394,5.1394,5.1394,5.1394,5.1396,5.14,5.14,5.1384,5.1385,5.1037,5.1042,5.1026,5.1187,5.1112,5.08,5.0753,5.0492,5.0681,5.0644,5.0921,5.0855,5.057,5.047,5.0911,5.0969,5.06,5.0658,5.093,5.0911,5.0639,5.0619,5.0328,5.0542,5.0755,4.6301,4.6289,4.6301,4.6264,4.6223,4.6212,4.6209,4.6214,4.6282,4.6288,4.629,4.6298,4.6302,4.6302,4.6302,4.6302,4.6302,4.6302,4.6302,4.6302,4.6302,4.6302,4.6302,4.6302,4.6302,4.6302,4.6302,4.6302,4.6302,4.6302,4.6749,4.7588,4.831,4.9163,4.9835,5.0408,5.0374,5.0374,5.0298,5.0077,4.957,4.8822,4.8234,4.7513,4.6738,4.6372,4.6367,4.6468,4.6674,4.6777,4.6897,4.7072,4.7044,4.7051,4.6811,4.6845,4.716,4.7755,4.8467,4.9486,5.0349,5.0824,5.1256,5.1316,5.1394,5.1394,5.1394,5.1394,5.1394,5.1394,5.1394,5.1394,5.1394,5.1394,5.1394,5.1394,5.1394,5.1394,5.1394,5.1394,5.1394,5.1394,5.1394,5.1394,5.1394,5.1394,5.1394,5.1394,5.1396,5.14,5.1385,5.1391,5.1399,5.1385,5.1386,5.1151,5.1258,5.1314,5.1341,5.128,5.1141,5.1083,5.1167,5.1208,5.1202,5.1202,5.1125,5.1202,5.1202,5.1202,5.1027,5.1125,5.1202,5.1202,5.1202,4.63,4.6288,4.6306,4.627,4.6204,4.6209,4.62,4.6215,4.6231,4.6279,4.6286,4.6296,4.6302,4.6302,4.6302,4.6302,4.6302,4.6302,4.6302,4.6302,4.6302,4.6302,4.6302,4.6302,4.6302,4.6302,4.6302,4.6302,4.6302,4.6378,4.6729,4.7567,4.8172,4.8771,4.9484,5.016,5.0656,5.0813,5.091,5.0899,5.0392,4.9694,4.8883,4.7993,4.7141,4.6638,4.6222,4.6203,4.6209,4.6233,4.6294,4.6308,4.6323,4.6328,4.6313,4.6516,4.7493,4.8154,4.8842,4.9979,5.0752,5.1208,5.1388,5.139,5.1392,5.1394,5.1394,5.1394,5.1394,5.1394,5.1394,5.1394,5.1394,5.1394,5.1394,5.1394,5.1394,5.1394,5.1394,5.1394,5.1394,5.1394,5.1394,5.1394,5.1394,5.1394,5.1394,5.1394,5.1398,5.1384,5.1389,5.1394,5.1402,5.1386,5.1386,5.1384,5.1389,5.1379,5.1317,5.1269,5.1235,5.1214,5.1214,5.1202,5.1202,5.1202,5.1202,5.1202,5.1202,5.1202,5.1202,5.1202,5.1202,5.1202,5.1202,4.6299,4.6307,4.6289,4.6258,4.6208,4.6203,4.6203,4.6209,4.6203,4.6238,4.6286,4.6296,4.6303,4.6306,4.6305,4.6303,4.6303,4.6302,4.6302,4.6302,4.6302,4.6302,4.6302,4.6302,4.6302,4.6302,4.6302,4.6302,4.6302,4.6358,4.6671,4.7489,4.7684,4.8109,4.8745,4.9579,5.0079,5.0419,5.0768,5.0949,5.0979,5.0459,4.9669,4.8755,4.7869,4.7103,4.6435,4.6219,4.6245,4.6264,4.6302,4.6294,4.6288,4.6244,4.6218,4.6816,4.7869,4.8607,4.9351,5.0394,5.1029,5.1352,5.1396,5.1384,5.1388,5.1392,5.1394,5.1394,5.1394,5.1394,5.1394,5.1394,5.1394,5.1394,5.1394,5.1394,5.1394,5.1394,5.1394,5.1394,5.1394,5.1394,5.1394,5.1394,5.1394,5.1394,5.1394,5.1394,5.14,5.1385,5.1391,5.1397,5.1385,5.1386,5.1384,5.1397,5.14,5.1366,5.1319,5.1276,5.1215,5.1214,5.1202,5.1202,5.1202,5.1202,5.1202,5.1202,5.1202,5.1202,5.1202,5.1202,5.1202,5.1202,5.1202,4.629,4.63,4.6289,4.6282,4.6267,4.6208,4.6201,4.6208,4.6271,4.6271,4.6249,4.6284,4.6294,4.6296,4.6293,4.6291,4.6288,4.6303,4.6302,4.63,4.63,4.6298,4.63,4.63,4.63,4.6302,4.6302,4.63,4.63,4.6319,4.6358,4.669,4.71,4.7682,4.7893,4.8708,4.9326,4.975,5.0152,5.0725,5.1082,5.0489,4.9699,4.8857,4.8002,4.7227,4.6609,4.6257,4.6231,4.6233,4.628,4.6288,4.6287,4.623,4.6557,4.724,4.811,4.8902,4.9685,5.0553,5.1229,5.138,5.1389,5.1396,5.1384,5.139,5.1394,5.1394,5.1394,5.1394,5.1394,5.1394,5.1394,5.1394,5.1394,5.1394,5.1394,5.1394,5.1394,5.1394,5.1394,5.1394,5.1394,5.1394,5.1394,5.1394,5.1394,5.1396,5.1402,5.1387,5.1393,5.1399,5.1386,5.1385,5.14,5.1389,5.1386,5.1355,5.1312,5.1252,5.1211,5.1208,5.1202,5.1202,5.1202,5.1202,5.1202,5.1202,5.1202,5.1202,5.1202,5.1202,5.1202,5.1202,5.1202,4.629,4.6296,4.6289,4.6306,4.63,4.6248,4.6222,4.6204,4.6266,4.6288,4.6252,4.6299,4.6302,4.6305,4.6301,4.6296,4.6293,4.6305,4.6298,4.6296,4.6294,4.6294,4.6294,4.6298,4.63,4.6302,4.63,4.63,4.6296,4.63,4.6339,4.6358,4.6885,4.7081,4.7176,4.7834,4.8496,4.8925,4.9332,5.002,5.084,5.0555,5.0178,4.9387,4.8533,4.7695,4.6953,4.6523,4.623,4.6229,4.6289,4.6307,4.6277,4.6236,4.6409,4.7072,4.7951,4.9025,4.9737,5.052,5.1268,5.1343,5.14,5.1386,5.1401,5.1388,5.1394,5.1394,5.1394,5.1394,5.1394,5.1394,5.1394,5.1394,5.1394,5.1394,5.1394,5.1394,5.1394,5.1394,5.1394,5.1394,5.1394,5.1394,5.1394,5.1394,5.1394,5.1394,5.14,5.1387,5.1394,5.1401,5.1387,5.1384,5.1399,5.1402,5.1389,5.1356,5.13,5.1249,5.1219,5.1206,5.1202,5.1202,5.1202,5.1202,5.1202,5.1202,5.1202,5.1202,5.1202,5.1202,5.1241,5.1319,5.1377,4.6291,4.6295,4.6306,4.6289,4.6288,4.6302,4.6257,4.6234,4.6277,4.6303,4.6288,4.6288,4.6288,4.6288,4.6307,4.6302,4.6295,4.6305,4.6296,4.6288,4.6306,4.6284,4.6288,4.6292,4.6296,4.63,4.63,4.6296,4.6292,4.6298,4.6302,4.6302,4.6302,4.6321,4.6536,4.6965,4.7609,4.7987,4.8479,4.9208,5.0011,5.0772,5.0487,4.9961,4.9371,4.8527,4.77,4.7094,4.6651,4.6575,4.6711,4.6605,4.6456,4.6394,4.646,4.6986,4.8041,4.881,4.9434,5.0525,5.1043,5.1326,5.1362,5.1378,5.1394,5.1384,5.139,5.1394,5.1394,5.1394,5.1394,5.1394,5.1394,5.1394,5.1394,5.1394,5.1394,5.1394,5.1394,5.1394,5.1394,5.1394,5.1394,5.1394,5.1394,5.1394,5.1394,5.1394,5.1396,5.1385,5.1393,5.1401,5.1386,5.1385,5.1399,5.14,5.1383,5.133,5.1273,5.1245,5.1206,5.1208,5.1202,5.1202,5.1202,5.1202,5.1202,5.1202,5.1202,5.1202,5.1202,5.128,5.163,5.1688,5.1668,4.6287,4.6294,4.6297,4.6301,4.6305,4.6289,4.6289,4.6288,4.6289,4.6288,4.6306,4.6306,4.6306,4.6289,4.6288,4.6305,4.6299,4.6288,4.6296,4.6306,4.6279,4.6258,4.6258,4.6286,4.6294,4.6296,4.6298,4.63,4.6296,4.63,4.6302,4.6303,4.6303,4.6305,4.633,4.6683,4.6941,4.7336,4.777,4.8437,4.9648,5.0213,5.0232,5.0028,4.9954,4.9298,4.8738,4.8423,4.8333,4.8125,4.766,4.734,4.6996,4.6688,4.6657,4.7018,4.8096,4.8869,4.9644,5.0618,5.1152,5.1312,5.1349,5.1346,5.1364,5.1396,5.1384,5.1394,5.1394,5.1394,5.1394,5.1394,5.1394,5.1394,5.1394,5.1394,5.1394,5.1394,5.1394,5.1394,5.1394,5.1394,5.1394,5.1394,5.1394,5.1394,5.1394,5.1394,5.1394,5.1384,5.1391,5.1401,5.1386,5.1386,5.1399,5.14,5.1386,5.131,5.1261,5.1229,5.12,5.1208,5.1202,5.1202,5.1202,5.1202,5.1202,5.1202,5.1202,5.1202,5.1202,5.1338,5.1785,5.2212,5.2329]}]]